﻿<?xml version="1.0" encoding="utf-8"?><gpx creator="Garmin Desktop App" version="1.1" xsi:schemaLocation="http://www.topografix.com/GPX/1/1 http://www.topografix.com/GPX/1/1/gpx.xsd http://www.garmin.com/xmlschemas/WaypointExtension/v1 http://www8.garmin.com/xmlschemas/WaypointExtensionv1.xsd http://www.garmin.com/xmlschemas/TrackPointExtension/v1 http://www.garmin.com/xmlschemas/TrackPointExtensionv1.xsd http://www.garmin.com/xmlschemas/GpxExtensions/v3 http://www8.garmin.com/xmlschemas/GpxExtensionsv3.xsd http://www.garmin.com/xmlschemas/ActivityExtension/v1 http://www8.garmin.com/xmlschemas/ActivityExtensionv1.xsd http://www.garmin.com/xmlschemas/AdventuresExtensions/v1 http://www8.garmin.com/xmlschemas/AdventuresExtensionv1.xsd http://www.garmin.com/xmlschemas/PressureExtension/v1 http://www.garmin.com/xmlschemas/PressureExtensionv1.xsd http://www.garmin.com/xmlschemas/TripExtensions/v1 http://www.garmin.com/xmlschemas/TripExtensionsv1.xsd http://www.garmin.com/xmlschemas/TripMetaDataExtensions/v1 http://www.garmin.com/xmlschemas/TripMetaDataExtensionsv1.xsd http://www.garmin.com/xmlschemas/ViaPointTransportationModeExtensions/v1 http://www.garmin.com/xmlschemas/ViaPointTransportationModeExtensionsv1.xsd http://www.garmin.com/xmlschemas/CreationTimeExtension/v1 http://www.garmin.com/xmlschemas/CreationTimeExtensionsv1.xsd http://www.garmin.com/xmlschemas/AccelerationExtension/v1 http://www.garmin.com/xmlschemas/AccelerationExtensionv1.xsd http://www.garmin.com/xmlschemas/PowerExtension/v1 http://www.garmin.com/xmlschemas/PowerExtensionv1.xsd http://www.garmin.com/xmlschemas/VideoExtension/v1 http://www.garmin.com/xmlschemas/VideoExtensionv1.xsd" xmlns="http://www.topografix.com/GPX/1/1" xmlns:xsi="http://www.w3.org/2001/XMLSchema-instance" xmlns:wptx1="http://www.garmin.com/xmlschemas/WaypointExtension/v1" xmlns:gpxtrx="http://www.garmin.com/xmlschemas/GpxExtensions/v3" xmlns:gpxtpx="http://www.garmin.com/xmlschemas/TrackPointExtension/v1" xmlns:gpxx="http://www.garmin.com/xmlschemas/GpxExtensions/v3" xmlns:trp="http://www.garmin.com/xmlschemas/TripExtensions/v1" xmlns:adv="http://www.garmin.com/xmlschemas/AdventuresExtensions/v1" xmlns:prs="http://www.garmin.com/xmlschemas/PressureExtension/v1" xmlns:tmd="http://www.garmin.com/xmlschemas/TripMetaDataExtensions/v1" xmlns:vptm="http://www.garmin.com/xmlschemas/ViaPointTransportationModeExtensions/v1" xmlns:ctx="http://www.garmin.com/xmlschemas/CreationTimeExtension/v1" xmlns:gpxacc="http://www.garmin.com/xmlschemas/AccelerationExtension/v1" xmlns:gpxpx="http://www.garmin.com/xmlschemas/PowerExtension/v1" xmlns:vidx1="http://www.garmin.com/xmlschemas/VideoExtension/v1">

  <metadata>
    <link href="http://www.garmin.com">
      <text>Garmin International</text>
    </link>
    <time>2019-06-24T11:47:02Z</time>
    <bounds maxlat="52.392211966216564" maxlon="13.730935966596007" minlat="52.014299025759101" minlon="13.062572982162237" />
  </metadata>

  <trk>
    <name>Heinersdorf - Glasshütte - Dobbrikow</name>
    <extensions>
      <gpxx:TrackExtension>
        <gpxx:DisplayColor>DarkGray</gpxx:DisplayColor>
      </gpxx:TrackExtension>
    </extensions>
    <trkseg>
      <trkpt lat="52.390409018844366" lon="13.34104998037219">
        <ele>44.350000000000001</ele>
        <time>2019-06-23T08:59:22Z</time>
      </trkpt>
      <trkpt lat="52.390430979430676" lon="13.34109297953546">
        <ele>44.350000000000001</ele>
        <time>2019-06-23T08:59:24Z</time>
      </trkpt>
      <trkpt lat="52.390473978593946" lon="13.341029025614262">
        <ele>44.350000000000001</ele>
        <time>2019-06-23T08:59:25Z</time>
      </trkpt>
      <trkpt lat="52.390495017170906" lon="13.340986026450992">
        <ele>44.350000000000001</ele>
        <time>2019-06-23T08:59:26Z</time>
      </trkpt>
      <trkpt lat="52.390495017170906" lon="13.34096398204565">
        <ele>44.350000000000001</ele>
        <time>2019-06-23T08:59:27Z</time>
      </trkpt>
      <trkpt lat="52.390515971928835" lon="13.340943027287722">
        <ele>44.350000000000001</ele>
        <time>2019-06-23T08:59:28Z</time>
      </trkpt>
      <trkpt lat="52.390538016334176" lon="13.340921988710761">
        <ele>44.829999999999998</ele>
        <time>2019-06-23T08:59:29Z</time>
      </trkpt>
      <trkpt lat="52.390558971092105" lon="13.340878989547491">
        <ele>44.829999999999998</ele>
        <time>2019-06-23T08:59:30Z</time>
      </trkpt>
      <trkpt lat="52.390558971092105" lon="13.340857028961182">
        <ele>44.829999999999998</ele>
        <time>2019-06-23T08:59:31Z</time>
      </trkpt>
      <trkpt lat="52.390558971092105" lon="13.340857028961182">
        <ele>44.350000000000001</ele>
        <time>2019-06-23T08:59:43Z</time>
      </trkpt>
      <trkpt lat="52.390773966908455" lon="13.340534996241331">
        <ele>45.789999999999999</ele>
        <time>2019-06-23T08:59:52Z</time>
      </trkpt>
      <trkpt lat="52.391224997118115" lon="13.339697979390621">
        <ele>45.310000000000002</ele>
        <time>2019-06-23T08:59:59Z</time>
      </trkpt>
      <trkpt lat="52.391567984595895" lon="13.338969005271792">
        <ele>43.869999999999997</ele>
        <time>2019-06-23T09:00:04Z</time>
      </trkpt>
      <trkpt lat="52.391589023172855" lon="13.338775970041752">
        <ele>43.869999999999997</ele>
        <time>2019-06-23T09:00:05Z</time>
      </trkpt>
      <trkpt lat="52.391610983759165" lon="13.338603973388672">
        <ele>43.380000000000003</ele>
        <time>2019-06-23T09:00:06Z</time>
      </trkpt>
      <trkpt lat="52.391632022336125" lon="13.338411021977663">
        <ele>43.380000000000003</ele>
        <time>2019-06-23T09:00:07Z</time>
      </trkpt>
      <trkpt lat="52.391610983759165" lon="13.338196026161313">
        <ele>42.899999999999999</ele>
        <time>2019-06-23T09:00:08Z</time>
      </trkpt>
      <trkpt lat="52.391589023172855" lon="13.337982036173344">
        <ele>42.420000000000002</ele>
        <time>2019-06-23T09:00:09Z</time>
      </trkpt>
      <trkpt lat="52.391567984595895" lon="13.337724041193724">
        <ele>42.899999999999999</ele>
        <time>2019-06-23T09:00:10Z</time>
      </trkpt>
      <trkpt lat="52.391546024009585" lon="13.337445007637143">
        <ele>42.420000000000002</ele>
        <time>2019-06-23T09:00:11Z</time>
      </trkpt>
      <trkpt lat="52.391546024009585" lon="13.337145019322634">
        <ele>42.420000000000002</ele>
        <time>2019-06-23T09:00:12Z</time>
      </trkpt>
      <trkpt lat="52.391589023172855" lon="13.336822986602783">
        <ele>41.939999999999998</ele>
        <time>2019-06-23T09:00:13Z</time>
      </trkpt>
      <trkpt lat="52.391610983759165" lon="13.336544036865234">
        <ele>41.460000000000001</ele>
        <time>2019-06-23T09:00:14Z</time>
      </trkpt>
      <trkpt lat="52.391804018989205" lon="13.334633968770504">
        <ele>40.020000000000003</ele>
        <time>2019-06-23T09:00:21Z</time>
      </trkpt>
      <trkpt lat="52.392061008140445" lon="13.332296004518867">
        <ele>41.460000000000001</ele>
        <time>2019-06-23T09:00:30Z</time>
      </trkpt>
      <trkpt lat="52.392104007303715" lon="13.331909012049437">
        <ele>41.460000000000001</ele>
        <time>2019-06-23T09:00:32Z</time>
      </trkpt>
      <trkpt lat="52.392147006466985" lon="13.331781020388007">
        <ele>41.460000000000001</ele>
        <time>2019-06-23T09:00:33Z</time>
      </trkpt>
      <trkpt lat="52.392168967053294" lon="13.331672977656126">
        <ele>41.460000000000001</ele>
        <time>2019-06-23T09:00:34Z</time>
      </trkpt>
      <trkpt lat="52.392211966216564" lon="13.331480026245117">
        <ele>41.460000000000001</ele>
        <time>2019-06-23T09:00:39Z</time>
      </trkpt>
      <trkpt lat="52.392168967053294" lon="13.331458987668157">
        <ele>41.460000000000001</ele>
        <time>2019-06-23T09:00:40Z</time>
      </trkpt>
      <trkpt lat="52.392104007303715" lon="13.331415988504887">
        <ele>41.460000000000001</ele>
        <time>2019-06-23T09:00:41Z</time>
      </trkpt>
      <trkpt lat="52.392039969563484" lon="13.331372989341617">
        <ele>41.939999999999998</ele>
        <time>2019-06-23T09:00:42Z</time>
      </trkpt>
      <trkpt lat="52.391953971236944" lon="13.331309035420418">
        <ele>41.939999999999998</ele>
        <time>2019-06-23T09:00:43Z</time>
      </trkpt>
      <trkpt lat="52.391867972910404" lon="13.331266036257148">
        <ele>41.939999999999998</ele>
        <time>2019-06-23T09:00:44Z</time>
      </trkpt>
      <trkpt lat="52.391761019825935" lon="13.331243991851807">
        <ele>41.939999999999998</ele>
        <time>2019-06-23T09:00:45Z</time>
      </trkpt>
      <trkpt lat="52.391653982922435" lon="13.331266036257148">
        <ele>41.939999999999998</ele>
        <time>2019-06-23T09:00:46Z</time>
      </trkpt>
      <trkpt lat="52.390258982777596" lon="13.331437027081847">
        <ele>40.5</ele>
        <time>2019-06-23T09:00:56Z</time>
      </trkpt>
      <trkpt lat="52.389958994463086" lon="13.331480026245117">
        <ele>40.979999999999997</ele>
        <time>2019-06-23T09:00:58Z</time>
      </trkpt>
      <trkpt lat="52.388069964945316" lon="13.331738021224737">
        <ele>39.060000000000002</ele>
        <time>2019-06-23T09:01:11Z</time>
      </trkpt>
      <trkpt lat="52.386717963963747" lon="13.331930972635746">
        <ele>37.619999999999997</ele>
        <time>2019-06-23T09:01:21Z</time>
      </trkpt>
      <trkpt lat="52.386031989008188" lon="13.332016970962286">
        <ele>37.619999999999997</ele>
        <time>2019-06-23T09:01:29Z</time>
      </trkpt>
      <trkpt lat="52.385945990681648" lon="13.331952011212707">
        <ele>37.619999999999997</ele>
        <time>2019-06-23T09:01:30Z</time>
      </trkpt>
      <trkpt lat="52.385237971320748" lon="13.331351028755307">
        <ele>37.619999999999997</ele>
        <time>2019-06-23T09:01:35Z</time>
      </trkpt>
      <trkpt lat="52.384057966992259" lon="13.330257022753358">
        <ele>36.18</ele>
        <time>2019-06-23T09:01:40Z</time>
      </trkpt>
      <trkpt lat="52.38236297853291" lon="13.328691031783819">
        <ele>31.850000000000001</ele>
        <time>2019-06-23T09:01:47Z</time>
      </trkpt>
      <trkpt lat="52.380517031997442" lon="13.32703803665936">
        <ele>28.969999999999999</ele>
        <time>2019-06-23T09:01:57Z</time>
      </trkpt>
      <trkpt lat="52.379852011799812" lon="13.326416015625">
        <ele>28.48</ele>
        <time>2019-06-23T09:02:03Z</time>
      </trkpt>
      <trkpt lat="52.379637015983462" lon="13.326222980394959">
        <ele>31.370000000000001</ele>
        <time>2019-06-23T09:02:08Z</time>
      </trkpt>
      <trkpt lat="52.379637015983462" lon="13.326222980394959">
        <ele>34.729999999999997</ele>
        <time>2019-06-23T09:02:19Z</time>
      </trkpt>
      <trkpt lat="52.379552023485303" lon="13.326116027310491">
        <ele>37.140000000000001</ele>
        <time>2019-06-23T09:02:56Z</time>
      </trkpt>
      <trkpt lat="52.378821959719062" lon="13.325451007112861">
        <ele>38.100000000000001</ele>
        <time>2019-06-23T09:03:02Z</time>
      </trkpt>
      <trkpt lat="52.377492003142834" lon="13.32424895837903">
        <ele>38.579999999999998</ele>
        <time>2019-06-23T09:03:09Z</time>
      </trkpt>
      <trkpt lat="52.375216986984015" lon="13.322167983278632">
        <ele>36.659999999999997</ele>
        <time>2019-06-23T09:03:20Z</time>
      </trkpt>
      <trkpt lat="52.373887030407786" lon="13.320966018363833">
        <ele>34.729999999999997</ele>
        <time>2019-06-23T09:03:28Z</time>
      </trkpt>
      <trkpt lat="52.373478999361396" lon="13.320471988990903">
        <ele>34.729999999999997</ele>
        <time>2019-06-23T09:03:33Z</time>
      </trkpt>
      <trkpt lat="52.373478999361396" lon="13.320365035906434">
        <ele>35.689999999999998</ele>
        <time>2019-06-23T09:03:34Z</time>
      </trkpt>
      <trkpt lat="52.373478999361396" lon="13.320236038416624">
        <ele>36.18</ele>
        <time>2019-06-23T09:03:35Z</time>
      </trkpt>
      <trkpt lat="52.373414961621165" lon="13.320064963772893">
        <ele>36.659999999999997</ele>
        <time>2019-06-23T09:03:36Z</time>
      </trkpt>
      <trkpt lat="52.373307002708316" lon="13.320043003186584">
        <ele>36.659999999999997</ele>
        <time>2019-06-23T09:03:37Z</time>
      </trkpt>
      <trkpt lat="52.373264003545046" lon="13.320021964609623">
        <ele>36.18</ele>
        <time>2019-06-23T09:03:38Z</time>
      </trkpt>
      <trkpt lat="52.373093012720346" lon="13.320129001513124">
        <ele>36.18</ele>
        <time>2019-06-23T09:03:39Z</time>
      </trkpt>
      <trkpt lat="52.372984969988465" lon="13.320064963772893">
        <ele>36.659999999999997</ele>
        <time>2019-06-23T09:03:40Z</time>
      </trkpt>
      <trkpt lat="52.372835017740726" lon="13.319978965446353">
        <ele>37.140000000000001</ele>
        <time>2019-06-23T09:03:41Z</time>
      </trkpt>
      <trkpt lat="52.372664026916027" lon="13.319872012361884">
        <ele>38.100000000000001</ele>
        <time>2019-06-23T09:03:42Z</time>
      </trkpt>
      <trkpt lat="52.371547976508737" lon="13.318841960281134">
        <ele>41.939999999999998</ele>
        <time>2019-06-23T09:03:47Z</time>
      </trkpt>
      <trkpt lat="52.370324973016977" lon="13.317747032269835">
        <ele>41.939999999999998</ele>
        <time>2019-06-23T09:03:53Z</time>
      </trkpt>
      <trkpt lat="52.368565024808049" lon="13.316373992711306">
        <ele>40.979999999999997</ele>
        <time>2019-06-23T09:04:03Z</time>
      </trkpt>
      <trkpt lat="52.36755701713264" lon="13.315687011927366">
        <ele>40.979999999999997</ele>
        <time>2019-06-23T09:04:10Z</time>
      </trkpt>
      <trkpt lat="52.366440966725349" lon="13.314935993403196">
        <ele>40.020000000000003</ele>
        <time>2019-06-23T09:04:20Z</time>
      </trkpt>
      <trkpt lat="52.365282000973821" lon="13.314207019284368">
        <ele>39.539999999999999</ele>
        <time>2019-06-23T09:04:31Z</time>
      </trkpt>
      <trkpt lat="52.363887000828981" lon="13.313284004107118">
        <ele>37.619999999999997</ele>
        <time>2019-06-23T09:04:44Z</time>
      </trkpt>
      <trkpt lat="52.362493006512523" lon="13.312340034171939">
        <ele>37.140000000000001</ele>
        <time>2019-06-23T09:04:57Z</time>
      </trkpt>
      <trkpt lat="52.361118961125612" lon="13.311438979580998">
        <ele>36.18</ele>
        <time>2019-06-23T09:05:09Z</time>
      </trkpt>
      <trkpt lat="52.359509970992804" lon="13.31036601215601">
        <ele>36.18</ele>
        <time>2019-06-23T09:05:23Z</time>
      </trkpt>
      <trkpt lat="52.358308006078005" lon="13.30944299697876">
        <ele>35.210000000000001</ele>
        <time>2019-06-23T09:05:35Z</time>
      </trkpt>
      <trkpt lat="52.357149962335825" lon="13.308542026206851">
        <ele>35.689999999999998</ele>
        <time>2019-06-23T09:05:48Z</time>
      </trkpt>
      <trkpt lat="52.356076994910836" lon="13.307963004335761">
        <ele>36.18</ele>
        <time>2019-06-23T09:05:58Z</time>
      </trkpt>
      <trkpt lat="52.354704039171338" lon="13.307276023551822">
        <ele>37.619999999999997</ele>
        <time>2019-06-23T09:06:09Z</time>
      </trkpt>
      <trkpt lat="52.354595996439457" lon="13.307276023551822">
        <ele>37.619999999999997</ele>
        <time>2019-06-23T09:06:10Z</time>
      </trkpt>
      <trkpt lat="52.354468004778028" lon="13.307276023551822">
        <ele>37.140000000000001</ele>
        <time>2019-06-23T09:06:11Z</time>
      </trkpt>
      <trkpt lat="52.353781023994088" lon="13.307253979146481">
        <ele>38.100000000000001</ele>
        <time>2019-06-23T09:06:19Z</time>
      </trkpt>
      <trkpt lat="52.353716986253858" lon="13.307125987485051">
        <ele>38.100000000000001</ele>
        <time>2019-06-23T09:06:20Z</time>
      </trkpt>
      <trkpt lat="52.353630987927318" lon="13.307061027735472">
        <ele>38.100000000000001</ele>
        <time>2019-06-23T09:06:21Z</time>
      </trkpt>
      <trkpt lat="52.353544989600778" lon="13.307039989158511">
        <ele>38.100000000000001</ele>
        <time>2019-06-23T09:06:22Z</time>
      </trkpt>
      <trkpt lat="52.353480029851198" lon="13.307039989158511">
        <ele>38.579999999999998</ele>
        <time>2019-06-23T09:06:23Z</time>
      </trkpt>
      <trkpt lat="52.353309039026499" lon="13.307104026898742">
        <ele>39.539999999999999</ele>
        <time>2019-06-23T09:06:26Z</time>
      </trkpt>
      <trkpt lat="52.353266039863229" lon="13.307147026062012">
        <ele>40.020000000000003</ele>
        <time>2019-06-23T09:06:27Z</time>
      </trkpt>
      <trkpt lat="52.353180041536689" lon="13.307253979146481">
        <ele>40.020000000000003</ele>
        <time>2019-06-23T09:06:28Z</time>
      </trkpt>
      <trkpt lat="52.353093959391117" lon="13.307253979146481">
        <ele>40.020000000000003</ele>
        <time>2019-06-23T09:06:29Z</time>
      </trkpt>
      <trkpt lat="52.352987006306648" lon="13.307276023551822">
        <ele>40.020000000000003</ele>
        <time>2019-06-23T09:06:30Z</time>
      </trkpt>
      <trkpt lat="52.352879969403148" lon="13.307276023551822">
        <ele>40.5</ele>
        <time>2019-06-23T09:06:31Z</time>
      </trkpt>
      <trkpt lat="52.352772010490298" lon="13.307296978309751">
        <ele>40.5</ele>
        <time>2019-06-23T09:06:32Z</time>
      </trkpt>
      <trkpt lat="52.351549006998539" lon="13.307425975799561">
        <ele>40.979999999999997</ele>
        <time>2019-06-23T09:06:42Z</time>
      </trkpt>
      <trkpt lat="52.35024000518024" lon="13.307533012703061">
        <ele>41.939999999999998</ele>
        <time>2019-06-23T09:06:53Z</time>
      </trkpt>
      <trkpt lat="52.349382033571601" lon="13.307339977473021">
        <ele>41.460000000000001</ele>
        <time>2019-06-23T09:07:00Z</time>
      </trkpt>
      <trkpt lat="52.3492749966681" lon="13.307253979146481">
        <ele>41.460000000000001</ele>
        <time>2019-06-23T09:07:01Z</time>
      </trkpt>
      <trkpt lat="52.34914599917829" lon="13.307147026062012">
        <ele>41.460000000000001</ele>
        <time>2019-06-23T09:07:02Z</time>
      </trkpt>
      <trkpt lat="52.34903896227479" lon="13.306996989995241">
        <ele>41.939999999999998</ele>
        <time>2019-06-23T09:07:03Z</time>
      </trkpt>
      <trkpt lat="52.34890996478498" lon="13.306824993342161">
        <ele>41.939999999999998</ele>
        <time>2019-06-23T09:07:04Z</time>
      </trkpt>
      <trkpt lat="52.347793998196721" lon="13.305237041786313">
        <ele>41.460000000000001</ele>
        <time>2019-06-23T09:07:15Z</time>
      </trkpt>
      <trkpt lat="52.346742991358042" lon="13.303864002227783">
        <ele>40.020000000000003</ele>
        <time>2019-06-23T09:07:23Z</time>
      </trkpt>
      <trkpt lat="52.345261992886662" lon="13.302469002082944">
        <ele>36.18</ele>
        <time>2019-06-23T09:07:32Z</time>
      </trkpt>
      <trkpt lat="52.345069041475654" lon="13.302361965179443">
        <ele>36.18</ele>
        <time>2019-06-23T09:07:33Z</time>
      </trkpt>
      <trkpt lat="52.343975035473704" lon="13.301975978538394">
        <ele>35.689999999999998</ele>
        <time>2019-06-23T09:07:37Z</time>
      </trkpt>
      <trkpt lat="52.341892970725894" lon="13.301245998591185">
        <ele>35.210000000000001</ele>
        <time>2019-06-23T09:07:44Z</time>
      </trkpt>
      <trkpt lat="52.339189974591136" lon="13.300345027819276">
        <ele>35.210000000000001</ele>
        <time>2019-06-23T09:07:55Z</time>
      </trkpt>
      <trkpt lat="52.338717989623547" lon="13.300216030329466">
        <ele>34.729999999999997</ele>
        <time>2019-06-23T09:07:57Z</time>
      </trkpt>
      <trkpt lat="52.338439039885998" lon="13.300216030329466">
        <ele>34.729999999999997</ele>
        <time>2019-06-23T09:07:58Z</time>
      </trkpt>
      <trkpt lat="52.336422018706799" lon="13.300237990915775">
        <ele>34.25</ele>
        <time>2019-06-23T09:08:05Z</time>
      </trkpt>
      <trkpt lat="52.334276000037789" lon="13.300237990915775">
        <ele>33.770000000000003</ele>
        <time>2019-06-23T09:08:13Z</time>
      </trkpt>
      <trkpt lat="52.332066027447581" lon="13.300280990079045">
        <ele>34.25</ele>
        <time>2019-06-23T09:08:21Z</time>
      </trkpt>
      <trkpt lat="52.329405024647713" lon="13.300194991752505">
        <ele>34.25</ele>
        <time>2019-06-23T09:08:32Z</time>
      </trkpt>
      <trkpt lat="52.327408958226442" lon="13.300108993425965">
        <ele>32.810000000000002</ele>
        <time>2019-06-23T09:08:40Z</time>
      </trkpt>
      <trkpt lat="52.325971964746714" lon="13.300774013623595">
        <ele>30.890000000000001</ele>
        <time>2019-06-23T09:08:46Z</time>
      </trkpt>
      <trkpt lat="52.324513010680676" lon="13.302212012931705">
        <ele>28.969999999999999</ele>
        <time>2019-06-23T09:08:52Z</time>
      </trkpt>
      <trkpt lat="52.322752978652716" lon="13.304035998880863">
        <ele>25.600000000000001</ele>
        <time>2019-06-23T09:09:00Z</time>
      </trkpt>
      <trkpt lat="52.321337023749948" lon="13.305472992360592">
        <ele>27.039999999999999</ele>
        <time>2019-06-23T09:09:08Z</time>
      </trkpt>
      <trkpt lat="52.319470038637519" lon="13.307491019368172">
        <ele>26.079999999999998</ele>
        <time>2019-06-23T09:09:18Z</time>
      </trkpt>
      <trkpt lat="52.317774966359138" lon="13.30967903137207">
        <ele>25.120000000000001</ele>
        <time>2019-06-23T09:09:27Z</time>
      </trkpt>
      <trkpt lat="52.31706703081727" lon="13.311009993776679">
        <ele>27.52</ele>
        <time>2019-06-23T09:09:33Z</time>
      </trkpt>
      <trkpt lat="52.31616597622633" lon="13.312812019139528">
        <ele>33.770000000000003</ele>
        <time>2019-06-23T09:09:43Z</time>
      </trkpt>
      <trkpt lat="52.31528596021235" lon="13.314679004251957">
        <ele>35.210000000000001</ele>
        <time>2019-06-23T09:09:54Z</time>
      </trkpt>
      <trkpt lat="52.314298991113901" lon="13.316739024594426">
        <ele>38.100000000000001</ele>
        <time>2019-06-23T09:10:06Z</time>
      </trkpt>
      <trkpt lat="52.314234031364322" lon="13.316868022084236">
        <ele>38.100000000000001</ele>
        <time>2019-06-23T09:10:07Z</time>
      </trkpt>
      <trkpt lat="52.314149038866162" lon="13.316996013745666">
        <ele>38.579999999999998</ele>
        <time>2019-06-23T09:10:08Z</time>
      </trkpt>
      <trkpt lat="52.314040996134281" lon="13.316996013745666">
        <ele>38.579999999999998</ele>
        <time>2019-06-23T09:10:09Z</time>
      </trkpt>
      <trkpt lat="52.313913004472852" lon="13.316996013745666">
        <ele>39.060000000000002</ele>
        <time>2019-06-23T09:10:10Z</time>
      </trkpt>
      <trkpt lat="52.313784006983042" lon="13.316910015419126">
        <ele>39.539999999999999</ele>
        <time>2019-06-23T09:10:11Z</time>
      </trkpt>
      <trkpt lat="52.313655009493232" lon="13.316802978515625">
        <ele>39.539999999999999</ele>
        <time>2019-06-23T09:10:12Z</time>
      </trkpt>
      <trkpt lat="52.312495959922671" lon="13.316181041300297">
        <ele>39.060000000000002</ele>
        <time>2019-06-23T09:10:20Z</time>
      </trkpt>
      <trkpt lat="52.310608020052314" lon="13.315687011927366">
        <ele>38.100000000000001</ele>
        <time>2019-06-23T09:10:31Z</time>
      </trkpt>
      <trkpt lat="52.308462001383305" lon="13.315172027796507">
        <ele>36.659999999999997</ele>
        <time>2019-06-23T09:10:41Z</time>
      </trkpt>
      <trkpt lat="52.305759005248547" lon="13.314550006762147">
        <ele>40.5</ele>
        <time>2019-06-23T09:10:53Z</time>
      </trkpt>
      <trkpt lat="52.303784983232617" lon="13.314078021794558">
        <ele>36.18</ele>
        <time>2019-06-23T09:11:01Z</time>
      </trkpt>
      <trkpt lat="52.301810039207339" lon="13.313649035990238">
        <ele>33.770000000000003</ele>
        <time>2019-06-23T09:11:09Z</time>
      </trkpt>
      <trkpt lat="52.298613013699651" lon="13.313155006617308">
        <ele>34.25</ele>
        <time>2019-06-23T09:11:23Z</time>
      </trkpt>
      <trkpt lat="52.297605006024241" lon="13.313090968877077">
        <ele>33.289999999999999</ele>
        <time>2019-06-23T09:11:29Z</time>
      </trkpt>
      <trkpt lat="52.29745396412909" lon="13.313219966366887">
        <ele>33.289999999999999</ele>
        <time>2019-06-23T09:11:30Z</time>
      </trkpt>
      <trkpt lat="52.297282973304391" lon="13.313348041847348">
        <ele>32.810000000000002</ele>
        <time>2019-06-23T09:11:31Z</time>
      </trkpt>
      <trkpt lat="52.297153975814581" lon="13.313583992421627">
        <ele>32.329999999999998</ele>
        <time>2019-06-23T09:11:32Z</time>
      </trkpt>
      <trkpt lat="52.297047022730112" lon="13.313841987401247">
        <ele>32.329999999999998</ele>
        <time>2019-06-23T09:11:33Z</time>
      </trkpt>
      <trkpt lat="52.296939985826612" lon="13.314141975715756">
        <ele>32.810000000000002</ele>
        <time>2019-06-23T09:11:34Z</time>
      </trkpt>
      <trkpt lat="52.296853987500072" lon="13.314464008435607">
        <ele>32.810000000000002</ele>
        <time>2019-06-23T09:11:35Z</time>
      </trkpt>
      <trkpt lat="52.296425001695752" lon="13.315816009417176">
        <ele>33.770000000000003</ele>
        <time>2019-06-23T09:11:41Z</time>
      </trkpt>
      <trkpt lat="52.295952010899782" lon="13.316910015419126">
        <ele>35.210000000000001</ele>
        <time>2019-06-23T09:11:49Z</time>
      </trkpt>
      <trkpt lat="52.295630984008312" lon="13.317510997876525">
        <ele>35.689999999999998</ele>
        <time>2019-06-23T09:11:54Z</time>
      </trkpt>
      <trkpt lat="52.295544985681772" lon="13.317576041445136">
        <ele>35.689999999999998</ele>
        <time>2019-06-23T09:11:55Z</time>
      </trkpt>
      <trkpt lat="52.295458987355232" lon="13.317619040608406">
        <ele>35.689999999999998</ele>
        <time>2019-06-23T09:11:56Z</time>
      </trkpt>
      <trkpt lat="52.295352034270763" lon="13.317576041445136">
        <ele>36.18</ele>
        <time>2019-06-23T09:11:57Z</time>
      </trkpt>
      <trkpt lat="52.295243991538882" lon="13.317510997876525">
        <ele>36.18</ele>
        <time>2019-06-23T09:11:58Z</time>
      </trkpt>
      <trkpt lat="52.295137038454413" lon="13.317424999549985">
        <ele>36.659999999999997</ele>
        <time>2019-06-23T09:11:59Z</time>
      </trkpt>
      <trkpt lat="52.295008040964603" lon="13.317317962646484">
        <ele>36.659999999999997</ele>
        <time>2019-06-23T09:12:00Z</time>
      </trkpt>
      <trkpt lat="52.294879965484142" lon="13.317211009562016">
        <ele>36.18</ele>
        <time>2019-06-23T09:12:01Z</time>
      </trkpt>
      <trkpt lat="52.294257022440434" lon="13.316459991037846">
        <ele>37.140000000000001</ele>
        <time>2019-06-23T09:12:07Z</time>
      </trkpt>
      <trkpt lat="52.293355967849493" lon="13.314958037808537">
        <ele>38.579999999999998</ele>
        <time>2019-06-23T09:12:17Z</time>
      </trkpt>
      <trkpt lat="52.292218962684274" lon="13.313004970550537">
        <ele>39.539999999999999</ele>
        <time>2019-06-23T09:12:30Z</time>
      </trkpt>
      <trkpt lat="52.291511027142406" lon="13.311566971242428">
        <ele>38.100000000000001</ele>
        <time>2019-06-23T09:12:40Z</time>
      </trkpt>
      <trkpt lat="52.290866961702704" lon="13.30965799279511">
        <ele>38.100000000000001</ele>
        <time>2019-06-23T09:12:49Z</time>
      </trkpt>
      <trkpt lat="52.290566973388195" lon="13.30886397510767">
        <ele>38.100000000000001</ele>
        <time>2019-06-23T09:12:53Z</time>
      </trkpt>
      <trkpt lat="52.290480975061655" lon="13.308671023696661">
        <ele>38.100000000000001</ele>
        <time>2019-06-23T09:12:54Z</time>
      </trkpt>
      <trkpt lat="52.290331022813916" lon="13.308499027043581">
        <ele>38.100000000000001</ele>
        <time>2019-06-23T09:12:55Z</time>
      </trkpt>
      <trkpt lat="52.289065020158887" lon="13.306781994178891">
        <ele>37.140000000000001</ele>
        <time>2019-06-23T09:13:04Z</time>
      </trkpt>
      <trkpt lat="52.287604976445436" lon="13.304529022425413">
        <ele>37.140000000000001</ele>
        <time>2019-06-23T09:13:14Z</time>
      </trkpt>
      <trkpt lat="52.287026038393378" lon="13.303670966997743">
        <ele>36.659999999999997</ele>
        <time>2019-06-23T09:13:18Z</time>
      </trkpt>
      <trkpt lat="52.286854041740298" lon="13.303478015586734">
        <ele>36.659999999999997</ele>
        <time>2019-06-23T09:13:19Z</time>
      </trkpt>
      <trkpt lat="52.285502962768078" lon="13.302232967689633">
        <ele>36.18</ele>
        <time>2019-06-23T09:13:27Z</time>
      </trkpt>
      <trkpt lat="52.285330966114998" lon="13.301975978538394">
        <ele>35.689999999999998</ele>
        <time>2019-06-23T09:13:28Z</time>
      </trkpt>
      <trkpt lat="52.285201968625188" lon="13.301717983558774">
        <ele>35.689999999999998</ele>
        <time>2019-06-23T09:13:29Z</time>
      </trkpt>
      <trkpt lat="52.28391501121223" lon="13.299271976575255">
        <ele>39.060000000000002</ele>
        <time>2019-06-23T09:13:39Z</time>
      </trkpt>
      <trkpt lat="52.28273500688374" lon="13.297234000638127">
        <ele>40.020000000000003</ele>
        <time>2019-06-23T09:13:49Z</time>
      </trkpt>
      <trkpt lat="52.2814039606601" lon="13.294444000348449">
        <ele>40.5</ele>
        <time>2019-06-23T09:14:01Z</time>
      </trkpt>
      <trkpt lat="52.280567027628422" lon="13.29268497414887">
        <ele>40.5</ele>
        <time>2019-06-23T09:14:09Z</time>
      </trkpt>
      <trkpt lat="52.280117003247142" lon="13.29182599671185">
        <ele>40.020000000000003</ele>
        <time>2019-06-23T09:14:16Z</time>
      </trkpt>
      <trkpt lat="52.279902007430792" lon="13.29146197065711">
        <ele>40.979999999999997</ele>
        <time>2019-06-23T09:14:23Z</time>
      </trkpt>
      <trkpt lat="52.279816009104252" lon="13.29137597233057">
        <ele>40.979999999999997</ele>
        <time>2019-06-23T09:14:24Z</time>
      </trkpt>
      <trkpt lat="52.279001036658883" lon="13.290582038462162">
        <ele>42.420000000000002</ele>
        <time>2019-06-23T09:14:30Z</time>
      </trkpt>
      <trkpt lat="52.277649035677314" lon="13.289293991401792">
        <ele>43.380000000000003</ele>
        <time>2019-06-23T09:14:37Z</time>
      </trkpt>
      <trkpt lat="52.275567976757884" lon="13.287256015464664">
        <ele>40.5</ele>
        <time>2019-06-23T09:14:48Z</time>
      </trkpt>
      <trkpt lat="52.274495009332895" lon="13.286139965057373">
        <ele>39.060000000000002</ele>
        <time>2019-06-23T09:14:55Z</time>
      </trkpt>
      <trkpt lat="52.274386966601014" lon="13.285947013646364">
        <ele>38.579999999999998</ele>
        <time>2019-06-23T09:14:56Z</time>
      </trkpt>
      <trkpt lat="52.274301974102855" lon="13.285647025331855">
        <ele>38.579999999999998</ele>
        <time>2019-06-23T09:14:57Z</time>
      </trkpt>
      <trkpt lat="52.274215975776315" lon="13.285346031188965">
        <ele>38.579999999999998</ele>
        <time>2019-06-23T09:14:58Z</time>
      </trkpt>
      <trkpt lat="52.274129977449775" lon="13.285045959055424">
        <ele>38.579999999999998</ele>
        <time>2019-06-23T09:14:59Z</time>
      </trkpt>
      <trkpt lat="52.273636031895876" lon="13.283264972269535">
        <ele>38.579999999999998</ele>
        <time>2019-06-23T09:15:06Z</time>
      </trkpt>
      <trkpt lat="52.273057010024786" lon="13.281268989667296">
        <ele>40.979999999999997</ele>
        <time>2019-06-23T09:15:16Z</time>
      </trkpt>
      <trkpt lat="52.272370029240847" lon="13.278887020424008">
        <ele>44.829999999999998</ele>
        <time>2019-06-23T09:15:28Z</time>
      </trkpt>
      <trkpt lat="52.272262992337346" lon="13.278522994369268">
        <ele>45.310000000000002</ele>
        <time>2019-06-23T09:15:31Z</time>
      </trkpt>
      <trkpt lat="52.272219993174076" lon="13.278415035456419">
        <ele>45.310000000000002</ele>
        <time>2019-06-23T09:15:32Z</time>
      </trkpt>
      <trkpt lat="52.272219993174076" lon="13.278243960812688">
        <ele>45.310000000000002</ele>
        <time>2019-06-23T09:15:33Z</time>
      </trkpt>
      <trkpt lat="52.272285036742687" lon="13.278136001899838">
        <ele>45.789999999999999</ele>
        <time>2019-06-23T09:15:34Z</time>
      </trkpt>
      <trkpt lat="52.272328035905957" lon="13.278028964996338">
        <ele>45.310000000000002</ele>
        <time>2019-06-23T09:15:35Z</time>
      </trkpt>
      <trkpt lat="52.272671023383737" lon="13.276762962341309">
        <ele>46.75</ele>
        <time>2019-06-23T09:15:44Z</time>
      </trkpt>
      <trkpt lat="52.272949973121285" lon="13.275496959686279">
        <ele>45.789999999999999</ele>
        <time>2019-06-23T09:15:51Z</time>
      </trkpt>
      <trkpt lat="52.272971011698246" lon="13.275261009112">
        <ele>45.310000000000002</ele>
        <time>2019-06-23T09:15:52Z</time>
      </trkpt>
      <trkpt lat="52.272949973121285" lon="13.27498197555542">
        <ele>45.310000000000002</ele>
        <time>2019-06-23T09:15:53Z</time>
      </trkpt>
      <trkpt lat="52.272906973958015" lon="13.274703025817871">
        <ele>45.310000000000002</ele>
        <time>2019-06-23T09:15:54Z</time>
      </trkpt>
      <trkpt lat="52.272843020036817" lon="13.274403037503362">
        <ele>45.310000000000002</ele>
        <time>2019-06-23T09:15:55Z</time>
      </trkpt>
      <trkpt lat="52.272691978141665" lon="13.273501982912421">
        <ele>44.829999999999998</ele>
        <time>2019-06-23T09:15:58Z</time>
      </trkpt>
      <trkpt lat="52.272671023383737" lon="13.273200988769531">
        <ele>45.310000000000002</ele>
        <time>2019-06-23T09:15:59Z</time>
      </trkpt>
      <trkpt lat="52.272691978141665" lon="13.272879039868712">
        <ele>45.310000000000002</ele>
        <time>2019-06-23T09:16:00Z</time>
      </trkpt>
      <trkpt lat="52.272734977304935" lon="13.271077014505863">
        <ele>49.149999999999999</ele>
        <time>2019-06-23T09:16:07Z</time>
      </trkpt>
      <trkpt lat="52.272734977304935" lon="13.268953040242195">
        <ele>50.109999999999999</ele>
        <time>2019-06-23T09:16:17Z</time>
      </trkpt>
      <trkpt lat="52.272906973958015" lon="13.266698978841305">
        <ele>47.710000000000001</ele>
        <time>2019-06-23T09:16:27Z</time>
      </trkpt>
      <trkpt lat="52.272906973958015" lon="13.265819968655705">
        <ele>47.710000000000001</ele>
        <time>2019-06-23T09:16:32Z</time>
      </trkpt>
      <trkpt lat="52.272820975631475" lon="13.265755008906126">
        <ele>47.710000000000001</ele>
        <time>2019-06-23T09:16:33Z</time>
      </trkpt>
      <trkpt lat="52.272757021710277" lon="13.265690971165895">
        <ele>47.710000000000001</ele>
        <time>2019-06-23T09:16:34Z</time>
      </trkpt>
      <trkpt lat="52.272648978978395" lon="13.265647972002625">
        <ele>47.229999999999997</ele>
        <time>2019-06-23T09:16:35Z</time>
      </trkpt>
      <trkpt lat="52.272520987316966" lon="13.265627017244697">
        <ele>46.75</ele>
        <time>2019-06-23T09:16:36Z</time>
      </trkpt>
      <trkpt lat="52.271511973813176" lon="13.265475975349545">
        <ele>45.310000000000002</ele>
        <time>2019-06-23T09:16:42Z</time>
      </trkpt>
      <trkpt lat="52.270867992192507" lon="13.265498019754887">
        <ele>42.899999999999999</ele>
        <time>2019-06-23T09:16:46Z</time>
      </trkpt>
      <trkpt lat="52.270740000531077" lon="13.265627017244697">
        <ele>42.420000000000002</ele>
        <time>2019-06-23T09:16:47Z</time>
      </trkpt>
      <trkpt lat="52.270611003041267" lon="13.265755008906126">
        <ele>41.939999999999998</ele>
        <time>2019-06-23T09:16:48Z</time>
      </trkpt>
      <trkpt lat="52.270460966974497" lon="13.265905966982245">
        <ele>41.939999999999998</ele>
        <time>2019-06-23T09:16:49Z</time>
      </trkpt>
      <trkpt lat="52.270311014726758" lon="13.265970004722476">
        <ele>41.460000000000001</ele>
        <time>2019-06-23T09:16:50Z</time>
      </trkpt>
      <trkpt lat="52.270139018073678" lon="13.265970004722476">
        <ele>41.460000000000001</ele>
        <time>2019-06-23T09:16:51Z</time>
      </trkpt>
      <trkpt lat="52.269945982843637" lon="13.265970004722476">
        <ele>40.979999999999997</ele>
        <time>2019-06-23T09:16:52Z</time>
      </trkpt>
      <trkpt lat="52.268487028777599" lon="13.265970004722476">
        <ele>39.060000000000002</ele>
        <time>2019-06-23T09:16:58Z</time>
      </trkpt>
      <trkpt lat="52.26588997989893" lon="13.265990959480405">
        <ele>38.100000000000001</ele>
        <time>2019-06-23T09:17:08Z</time>
      </trkpt>
      <trkpt lat="52.26571898907423" lon="13.265927005559206">
        <ele>38.100000000000001</ele>
        <time>2019-06-23T09:17:09Z</time>
      </trkpt>
      <trkpt lat="52.26554699242115" lon="13.265841007232666">
        <ele>38.100000000000001</ele>
        <time>2019-06-23T09:17:10Z</time>
      </trkpt>
      <trkpt lat="52.26537499576807" lon="13.265712009742856">
        <ele>38.100000000000001</ele>
        <time>2019-06-23T09:17:11Z</time>
      </trkpt>
      <trkpt lat="52.264108993113041" lon="13.264361014589667">
        <ele>38.100000000000001</ele>
        <time>2019-06-23T09:17:19Z</time>
      </trkpt>
      <trkpt lat="52.26387295871973" lon="13.264103019610047">
        <ele>37.140000000000001</ele>
        <time>2019-06-23T09:17:22Z</time>
      </trkpt>
      <trkpt lat="52.263852003961802" lon="13.264081981033087">
        <ele>36.659999999999997</ele>
        <time>2019-06-23T09:17:23Z</time>
      </trkpt>
      <trkpt lat="52.263809004798532" lon="13.264146018773317">
        <ele>36.659999999999997</ele>
        <time>2019-06-23T09:17:24Z</time>
      </trkpt>
      <trkpt lat="52.26374396122992" lon="13.264252971857786">
        <ele>36.18</ele>
        <time>2019-06-23T09:17:25Z</time>
      </trkpt>
      <trkpt lat="52.263658968731761" lon="13.264381969347596">
        <ele>36.18</ele>
        <time>2019-06-23T09:17:26Z</time>
      </trkpt>
      <trkpt lat="52.263594008982182" lon="13.264553966000676">
        <ele>36.18</ele>
        <time>2019-06-23T09:17:27Z</time>
      </trkpt>
      <trkpt lat="52.263508010655642" lon="13.264682041481137">
        <ele>36.18</ele>
        <time>2019-06-23T09:17:28Z</time>
      </trkpt>
      <trkpt lat="52.263466017320752" lon="13.264768039807677">
        <ele>36.18</ele>
        <time>2019-06-23T09:17:29Z</time>
      </trkpt>
      <trkpt lat="52.263423018157482" lon="13.264832999557257">
        <ele>35.689999999999998</ele>
        <time>2019-06-23T09:17:30Z</time>
      </trkpt>
      <trkpt lat="52.263357974588871" lon="13.264875998720527">
        <ele>34.25</ele>
        <time>2019-06-23T09:17:31Z</time>
      </trkpt>
      <trkpt lat="52.263271976262331" lon="13.264811038970947">
        <ele>33.289999999999999</ele>
        <time>2019-06-23T09:17:32Z</time>
      </trkpt>
      <trkpt lat="52.263186983764172" lon="13.264661002904177">
        <ele>31.850000000000001</ele>
        <time>2019-06-23T09:17:33Z</time>
      </trkpt>
      <trkpt lat="52.263057986274362" lon="13.264467967674136">
        <ele>30.41</ele>
        <time>2019-06-23T09:17:34Z</time>
      </trkpt>
      <trkpt lat="52.262908034026623" lon="13.264189017936587">
        <ele>28.969999999999999</ele>
        <time>2019-06-23T09:17:35Z</time>
      </trkpt>
      <trkpt lat="52.261877981945872" lon="13.262300994247198">
        <ele>31.370000000000001</ele>
        <time>2019-06-23T09:17:42Z</time>
      </trkpt>
      <trkpt lat="52.260461021214724" lon="13.25946799479425">
        <ele>38.100000000000001</ele>
        <time>2019-06-23T09:17:51Z</time>
      </trkpt>
      <trkpt lat="52.258402006700635" lon="13.255090964958072">
        <ele>43.869999999999997</ele>
        <time>2019-06-23T09:18:07Z</time>
      </trkpt>
      <trkpt lat="52.257692981511354" lon="13.253566967323422">
        <ele>44.350000000000001</ele>
        <time>2019-06-23T09:18:14Z</time>
      </trkpt>
      <trkpt lat="52.257586028426886" lon="13.253309978172183">
        <ele>44.350000000000001</ele>
        <time>2019-06-23T09:18:16Z</time>
      </trkpt>
      <trkpt lat="52.257543029263616" lon="13.253203025087714">
        <ele>44.350000000000001</ele>
        <time>2019-06-23T09:18:17Z</time>
      </trkpt>
      <trkpt lat="52.257500030100346" lon="13.253117026761174">
        <ele>44.350000000000001</ele>
        <time>2019-06-23T09:18:18Z</time>
      </trkpt>
      <trkpt lat="52.257435992360115" lon="13.253008984029293">
        <ele>44.829999999999998</ele>
        <time>2019-06-23T09:18:19Z</time>
      </trkpt>
      <trkpt lat="52.257392993196845" lon="13.252902030944824">
        <ele>44.829999999999998</ele>
        <time>2019-06-23T09:18:20Z</time>
      </trkpt>
      <trkpt lat="52.257329039275646" lon="13.252794994041324">
        <ele>44.829999999999998</ele>
        <time>2019-06-23T09:18:21Z</time>
      </trkpt>
      <trkpt lat="52.257286040112376" lon="13.252665996551514">
        <ele>44.829999999999998</ele>
        <time>2019-06-23T09:18:22Z</time>
      </trkpt>
      <trkpt lat="52.257200041785836" lon="13.252493999898434">
        <ele>44.829999999999998</ele>
        <time>2019-06-23T09:18:23Z</time>
      </trkpt>
      <trkpt lat="52.257093004882336" lon="13.252300964668393">
        <ele>44.829999999999998</ele>
        <time>2019-06-23T09:18:24Z</time>
      </trkpt>
      <trkpt lat="52.257007006555796" lon="13.252065014094114">
        <ele>45.310000000000002</ele>
        <time>2019-06-23T09:18:25Z</time>
      </trkpt>
      <trkpt lat="52.256406024098396" lon="13.250820972025394">
        <ele>46.270000000000003</ele>
        <time>2019-06-23T09:18:29Z</time>
      </trkpt>
      <trkpt lat="52.255718959495425" lon="13.249425971880555">
        <ele>48.189999999999998</ele>
        <time>2019-06-23T09:18:34Z</time>
      </trkpt>
      <trkpt lat="52.255375972017646" lon="13.248824989423156">
        <ele>48.670000000000002</ele>
        <time>2019-06-23T09:18:37Z</time>
      </trkpt>
      <trkpt lat="52.255246974527836" lon="13.248632038012147">
        <ele>48.670000000000002</ele>
        <time>2019-06-23T09:18:38Z</time>
      </trkpt>
      <trkpt lat="52.254131007939577" lon="13.247258998453617">
        <ele>48.189999999999998</ele>
        <time>2019-06-23T09:18:45Z</time>
      </trkpt>
      <trkpt lat="52.252972964197397" lon="13.245692001655698">
        <ele>48.189999999999998</ele>
        <time>2019-06-23T09:18:54Z</time>
      </trkpt>
      <trkpt lat="52.252028994262218" lon="13.244490958750248">
        <ele>47.710000000000001</ele>
        <time>2019-06-23T09:19:04Z</time>
      </trkpt>
      <trkpt lat="52.251471010968089" lon="13.24382602237165">
        <ele>47.229999999999997</ele>
        <time>2019-06-23T09:19:13Z</time>
      </trkpt>
      <trkpt lat="52.25082702934742" lon="13.242880962789059">
        <ele>46.270000000000003</ele>
        <time>2019-06-23T09:19:23Z</time>
      </trkpt>
      <trkpt lat="52.250461997464299" lon="13.241873038932681">
        <ele>46.270000000000003</ele>
        <time>2019-06-23T09:19:33Z</time>
      </trkpt>
      <trkpt lat="52.25016200914979" lon="13.24114297516644">
        <ele>46.270000000000003</ele>
        <time>2019-06-23T09:19:40Z</time>
      </trkpt>
      <trkpt lat="52.250139964744449" lon="13.24109997600317">
        <ele>46.270000000000003</ele>
        <time>2019-06-23T09:19:41Z</time>
      </trkpt>
      <trkpt lat="52.25011900998652" lon="13.241057982668281">
        <ele>46.270000000000003</ele>
        <time>2019-06-23T09:19:42Z</time>
      </trkpt>
      <trkpt lat="52.24994701333344" lon="13.240713989362121">
        <ele>45.789999999999999</ele>
        <time>2019-06-23T09:19:50Z</time>
      </trkpt>
      <trkpt lat="52.249882975593209" lon="13.240607036277652">
        <ele>46.270000000000003</ele>
        <time>2019-06-23T09:19:51Z</time>
      </trkpt>
      <trkpt lat="52.24981801584363" lon="13.240478038787842">
        <ele>46.270000000000003</ele>
        <time>2019-06-23T09:19:52Z</time>
      </trkpt>
      <trkpt lat="52.24941099062562" lon="13.239791980013251">
        <ele>46.75</ele>
        <time>2019-06-23T09:19:56Z</time>
      </trkpt>
      <trkpt lat="52.24923899397254" lon="13.239598022773862">
        <ele>46.75</ele>
        <time>2019-06-23T09:19:57Z</time>
      </trkpt>
      <trkpt lat="52.24906699731946" lon="13.239384032785892">
        <ele>46.270000000000003</ele>
        <time>2019-06-23T09:19:58Z</time>
      </trkpt>
      <trkpt lat="52.246792986989021" lon="13.237538002431393">
        <ele>46.270000000000003</ele>
        <time>2019-06-23T09:20:09Z</time>
      </trkpt>
      <trkpt lat="52.244861964136362" lon="13.236058009788394">
        <ele>47.229999999999997</ele>
        <time>2019-06-23T09:20:19Z</time>
      </trkpt>
      <trkpt lat="52.243509963154793" lon="13.235005997121334">
        <ele>48.189999999999998</ele>
        <time>2019-06-23T09:20:27Z</time>
      </trkpt>
      <trkpt lat="52.242307998239994" lon="13.234105026349425">
        <ele>50.590000000000003</ele>
        <time>2019-06-23T09:20:34Z</time>
      </trkpt>
      <trkpt lat="52.242157962173223" lon="13.233977034687996">
        <ele>50.590000000000003</ele>
        <time>2019-06-23T09:20:35Z</time>
      </trkpt>
      <trkpt lat="52.242008009925485" lon="13.233868991956115">
        <ele>50.109999999999999</ele>
        <time>2019-06-23T09:20:36Z</time>
      </trkpt>
      <trkpt lat="52.241922011598945" lon="13.232946982607245">
        <ele>49.149999999999999</ele>
        <time>2019-06-23T09:20:38Z</time>
      </trkpt>
      <trkpt lat="52.241256991401315" lon="13.231530021876097">
        <ele>46.75</ele>
        <time>2019-06-23T09:20:43Z</time>
      </trkpt>
      <trkpt lat="52.241084994748235" lon="13.231379985809326">
        <ele>46.270000000000003</ele>
        <time>2019-06-23T09:20:44Z</time>
      </trkpt>
      <trkpt lat="52.240419974550605" lon="13.230843963101506">
        <ele>44.829999999999998</ele>
        <time>2019-06-23T09:20:48Z</time>
      </trkpt>
      <trkpt lat="52.239605002105236" lon="13.231465984135866">
        <ele>42.420000000000002</ele>
        <time>2019-06-23T09:20:51Z</time>
      </trkpt>
      <trkpt lat="52.239519003778696" lon="13.231293987482786">
        <ele>41.939999999999998</ele>
        <time>2019-06-23T09:20:52Z</time>
      </trkpt>
      <trkpt lat="52.239410961046815" lon="13.231101036071777">
        <ele>40.979999999999997</ele>
        <time>2019-06-23T09:20:53Z</time>
      </trkpt>
      <trkpt lat="52.239282969385386" lon="13.230886962264776">
        <ele>39.539999999999999</ele>
        <time>2019-06-23T09:20:54Z</time>
      </trkpt>
      <trkpt lat="52.239196971058846" lon="13.230693005025387">
        <ele>38.579999999999998</ele>
        <time>2019-06-23T09:20:55Z</time>
      </trkpt>
      <trkpt lat="52.239153971895576" lon="13.230414977297187">
        <ele>37.619999999999997</ele>
        <time>2019-06-23T09:20:56Z</time>
      </trkpt>
      <trkpt lat="52.239090017974377" lon="13.230113983154297">
        <ele>36.659999999999997</ele>
        <time>2019-06-23T09:20:57Z</time>
      </trkpt>
      <trkpt lat="52.239047018811107" lon="13.229856994003057">
        <ele>36.18</ele>
        <time>2019-06-23T09:20:58Z</time>
      </trkpt>
      <trkpt lat="52.238810984417796" lon="13.228119006380439">
        <ele>37.619999999999997</ele>
        <time>2019-06-23T09:21:05Z</time>
      </trkpt>
      <trkpt lat="52.238789023831487" lon="13.228010963648558">
        <ele>38.100000000000001</ele>
        <time>2019-06-23T09:21:06Z</time>
      </trkpt>
      <trkpt lat="52.238746024668217" lon="13.227924965322018">
        <ele>38.579999999999998</ele>
        <time>2019-06-23T09:21:07Z</time>
      </trkpt>
      <trkpt lat="52.238724986091256" lon="13.227861011400819">
        <ele>39.060000000000002</ele>
        <time>2019-06-23T09:21:08Z</time>
      </trkpt>
      <trkpt lat="52.238789023831487" lon="13.227561023086309">
        <ele>39.060000000000002</ele>
        <time>2019-06-23T09:21:09Z</time>
      </trkpt>
      <trkpt lat="52.238875022158027" lon="13.227432025596499">
        <ele>39.539999999999999</ele>
        <time>2019-06-23T09:21:10Z</time>
      </trkpt>
      <trkpt lat="52.238961020484567" lon="13.227260028943419">
        <ele>39.060000000000002</ele>
        <time>2019-06-23T09:21:11Z</time>
      </trkpt>
      <trkpt lat="52.239218009635806" lon="13.22681000456214">
        <ele>39.539999999999999</ele>
        <time>2019-06-23T09:21:13Z</time>
      </trkpt>
      <trkpt lat="52.239304007962346" lon="13.226487971842289">
        <ele>39.060000000000002</ele>
        <time>2019-06-23T09:21:14Z</time>
      </trkpt>
      <trkpt lat="52.239410961046815" lon="13.226143978536129">
        <ele>39.060000000000002</ele>
        <time>2019-06-23T09:21:15Z</time>
      </trkpt>
      <trkpt lat="52.240162985399365" lon="13.224063003435731">
        <ele>39.539999999999999</ele>
        <time>2019-06-23T09:21:21Z</time>
      </trkpt>
      <trkpt lat="52.241084994748235" lon="13.221724033355713">
        <ele>39.539999999999999</ele>
        <time>2019-06-23T09:21:29Z</time>
      </trkpt>
      <trkpt lat="52.242501033470035" lon="13.218462970107794">
        <ele>39.539999999999999</ele>
        <time>2019-06-23T09:21:39Z</time>
      </trkpt>
      <trkpt lat="52.244325019419193" lon="13.215437019243836">
        <ele>39.060000000000002</ele>
        <time>2019-06-23T09:21:49Z</time>
      </trkpt>
      <trkpt lat="52.246149005368352" lon="13.212733017280698">
        <ele>37.619999999999997</ele>
        <time>2019-06-23T09:21:59Z</time>
      </trkpt>
      <trkpt lat="52.247244017198682" lon="13.211682010442019">
        <ele>38.100000000000001</ele>
        <time>2019-06-23T09:22:05Z</time>
      </trkpt>
      <trkpt lat="52.247436968609691" lon="13.211596012115479">
        <ele>38.100000000000001</ele>
        <time>2019-06-23T09:22:06Z</time>
      </trkpt>
      <trkpt lat="52.247630003839731" lon="13.211510013788939">
        <ele>38.100000000000001</ele>
        <time>2019-06-23T09:22:07Z</time>
      </trkpt>
      <trkpt lat="52.248681010678411" lon="13.211102988570929">
        <ele>38.100000000000001</ele>
        <time>2019-06-23T09:22:14Z</time>
      </trkpt>
      <trkpt lat="52.248982004821301" lon="13.211038028821349">
        <ele>38.100000000000001</ele>
        <time>2019-06-23T09:22:17Z</time>
      </trkpt>
      <trkpt lat="52.24906699731946" lon="13.211081027984619">
        <ele>37.619999999999997</ele>
        <time>2019-06-23T09:22:18Z</time>
      </trkpt>
      <trkpt lat="52.249152995646" lon="13.211167026311159">
        <ele>37.619999999999997</ele>
        <time>2019-06-23T09:22:19Z</time>
      </trkpt>
      <trkpt lat="52.24949698895216" lon="13.211510013788939">
        <ele>38.100000000000001</ele>
        <time>2019-06-23T09:22:25Z</time>
      </trkpt>
      <trkpt lat="52.24953998811543" lon="13.211510013788939">
        <ele>38.100000000000001</ele>
        <time>2019-06-23T09:22:26Z</time>
      </trkpt>
      <trkpt lat="52.249581981450319" lon="13.211510013788939">
        <ele>38.100000000000001</ele>
        <time>2019-06-23T09:22:27Z</time>
      </trkpt>
      <trkpt lat="52.24960402585566" lon="13.211467014625669">
        <ele>38.100000000000001</ele>
        <time>2019-06-23T09:22:28Z</time>
      </trkpt>
      <trkpt lat="52.249667979776859" lon="13.211382022127509">
        <ele>38.100000000000001</ele>
        <time>2019-06-23T09:22:29Z</time>
      </trkpt>
      <trkpt lat="52.24973302334547" lon="13.211273979395628">
        <ele>38.100000000000001</ele>
        <time>2019-06-23T09:22:30Z</time>
      </trkpt>
      <trkpt lat="52.250332999974489" lon="13.210308970883489">
        <ele>36.659999999999997</ele>
        <time>2019-06-23T09:22:36Z</time>
      </trkpt>
      <trkpt lat="52.251362968236208" lon="13.208698974922299">
        <ele>35.689999999999998</ele>
        <time>2019-06-23T09:22:47Z</time>
      </trkpt>
      <trkpt lat="52.252608016133308" lon="13.20743297226727">
        <ele>35.210000000000001</ele>
        <time>2019-06-23T09:22:58Z</time>
      </trkpt>
      <trkpt lat="52.252714969217777" lon="13.207326019182801">
        <ele>35.689999999999998</ele>
        <time>2019-06-23T09:22:59Z</time>
      </trkpt>
      <trkpt lat="52.252823011949658" lon="13.207175983116031">
        <ele>35.689999999999998</ele>
        <time>2019-06-23T09:23:00Z</time>
      </trkpt>
      <trkpt lat="52.252929965034127" lon="13.207026030868292">
        <ele>36.18</ele>
        <time>2019-06-23T09:23:01Z</time>
      </trkpt>
      <trkpt lat="52.253165999427438" lon="13.206682037562132">
        <ele>36.18</ele>
        <time>2019-06-23T09:23:03Z</time>
      </trkpt>
      <trkpt lat="52.253337996080518" lon="13.206510962918401">
        <ele>35.689999999999998</ele>
        <time>2019-06-23T09:23:04Z</time>
      </trkpt>
      <trkpt lat="52.253531031310558" lon="13.206424964591861">
        <ele>35.689999999999998</ele>
        <time>2019-06-23T09:23:05Z</time>
      </trkpt>
      <trkpt lat="52.253745021298528" lon="13.206318011507392">
        <ele>35.689999999999998</ele>
        <time>2019-06-23T09:23:06Z</time>
      </trkpt>
      <trkpt lat="52.253937972709537" lon="13.206232013180852">
        <ele>35.210000000000001</ele>
        <time>2019-06-23T09:23:07Z</time>
      </trkpt>
      <trkpt lat="52.254109969362617" lon="13.206166969612241">
        <ele>35.210000000000001</ele>
        <time>2019-06-23T09:23:08Z</time>
      </trkpt>
      <trkpt lat="52.254303004592657" lon="13.206189014017582">
        <ele>34.729999999999997</ele>
        <time>2019-06-23T09:23:09Z</time>
      </trkpt>
      <trkpt lat="52.254496039822698" lon="13.206209968775511">
        <ele>34.25</ele>
        <time>2019-06-23T09:23:10Z</time>
      </trkpt>
      <trkpt lat="52.254925025627017" lon="13.206360004842281">
        <ele>33.770000000000003</ele>
        <time>2019-06-23T09:23:12Z</time>
      </trkpt>
      <trkpt lat="52.256341986358166" lon="13.206381965428591">
        <ele>33.770000000000003</ele>
        <time>2019-06-23T09:23:19Z</time>
      </trkpt>
      <trkpt lat="52.256535021588206" lon="13.206295967102051">
        <ele>33.770000000000003</ele>
        <time>2019-06-23T09:23:20Z</time>
      </trkpt>
      <trkpt lat="52.256749011576176" lon="13.206166969612241">
        <ele>34.25</ele>
        <time>2019-06-23T09:23:21Z</time>
      </trkpt>
      <trkpt lat="52.256921008229256" lon="13.205909980461001">
        <ele>34.25</ele>
        <time>2019-06-23T09:23:22Z</time>
      </trkpt>
      <trkpt lat="52.257113959640265" lon="13.205674029886723">
        <ele>34.25</ele>
        <time>2019-06-23T09:23:23Z</time>
      </trkpt>
      <trkpt lat="52.257329039275646" lon="13.205502033233643">
        <ele>34.25</ele>
        <time>2019-06-23T09:23:24Z</time>
      </trkpt>
      <trkpt lat="52.257564989849925" lon="13.205351997166872">
        <ele>34.25</ele>
        <time>2019-06-23T09:23:25Z</time>
      </trkpt>
      <trkpt lat="52.259110026061535" lon="13.204171992838383">
        <ele>34.729999999999997</ele>
        <time>2019-06-23T09:23:32Z</time>
      </trkpt>
      <trkpt lat="52.259753001853824" lon="13.203763961791992">
        <ele>35.210000000000001</ele>
        <time>2019-06-23T09:23:36Z</time>
      </trkpt>
      <trkpt lat="52.259924998506904" lon="13.203806960955262">
        <ele>35.210000000000001</ele>
        <time>2019-06-23T09:23:37Z</time>
      </trkpt>
      <trkpt lat="52.260096995159984" lon="13.203827999532223">
        <ele>35.210000000000001</ele>
        <time>2019-06-23T09:23:38Z</time>
      </trkpt>
      <trkpt lat="52.261985018849373" lon="13.204107033088803">
        <ele>36.659999999999997</ele>
        <time>2019-06-23T09:23:49Z</time>
      </trkpt>
      <trkpt lat="52.262114016339183" lon="13.204085994511843">
        <ele>37.140000000000001</ele>
        <time>2019-06-23T09:23:50Z</time>
      </trkpt>
      <trkpt lat="52.262543002143502" lon="13.203999996185303">
        <ele>37.140000000000001</ele>
        <time>2019-06-23T09:23:54Z</time>
      </trkpt>
      <trkpt lat="52.262629000470042" lon="13.204042995348573">
        <ele>37.619999999999997</ele>
        <time>2019-06-23T09:23:55Z</time>
      </trkpt>
      <trkpt lat="52.262779036536813" lon="13.203999996185303">
        <ele>37.619999999999997</ele>
        <time>2019-06-23T09:23:57Z</time>
      </trkpt>
      <trkpt lat="52.262822035700083" lon="13.203935958445072">
        <ele>37.619999999999997</ele>
        <time>2019-06-23T09:23:58Z</time>
      </trkpt>
      <trkpt lat="52.262885989621282" lon="13.203827999532223">
        <ele>37.140000000000001</ele>
        <time>2019-06-23T09:23:59Z</time>
      </trkpt>
      <trkpt lat="52.262993026524782" lon="13.203720962628722">
        <ele>37.140000000000001</ele>
        <time>2019-06-23T09:24:00Z</time>
      </trkpt>
      <trkpt lat="52.263122024014592" lon="13.203634964302182">
        <ele>36.659999999999997</ele>
        <time>2019-06-23T09:24:01Z</time>
      </trkpt>
      <trkpt lat="52.263271976262331" lon="13.203571010380983">
        <ele>36.18</ele>
        <time>2019-06-23T09:24:02Z</time>
      </trkpt>
      <trkpt lat="52.263466017320752" lon="13.203485012054443">
        <ele>35.689999999999998</ele>
        <time>2019-06-23T09:24:03Z</time>
      </trkpt>
      <trkpt lat="52.264603022485971" lon="13.203034987673163">
        <ele>34.729999999999997</ele>
        <time>2019-06-23T09:24:08Z</time>
      </trkpt>
      <trkpt lat="52.26642700843513" lon="13.202305007725954">
        <ele>33.770000000000003</ele>
        <time>2019-06-23T09:24:17Z</time>
      </trkpt>
      <trkpt lat="52.26681299507618" lon="13.202048018574715">
        <ele>33.289999999999999</ele>
        <time>2019-06-23T09:24:19Z</time>
      </trkpt>
      <trkpt lat="52.266984991729259" lon="13.201853977516294">
        <ele>33.289999999999999</ele>
        <time>2019-06-23T09:24:20Z</time>
      </trkpt>
      <trkpt lat="52.2671780269593" lon="13.201618026942015">
        <ele>33.289999999999999</ele>
        <time>2019-06-23T09:24:21Z</time>
      </trkpt>
      <trkpt lat="52.268401030451059" lon="13.199816001579165">
        <ele>34.25</ele>
        <time>2019-06-23T09:24:28Z</time>
      </trkpt>
      <trkpt lat="52.269259002059698" lon="13.198421001434326">
        <ele>34.25</ele>
        <time>2019-06-23T09:24:34Z</time>
      </trkpt>
      <trkpt lat="52.269387999549508" lon="13.198141967877746">
        <ele>34.25</ele>
        <time>2019-06-23T09:24:35Z</time>
      </trkpt>
      <trkpt lat="52.269430998712778" lon="13.197798980399966">
        <ele>34.25</ele>
        <time>2019-06-23T09:24:36Z</time>
      </trkpt>
      <trkpt lat="52.269452037289739" lon="13.197391033172607">
        <ele>34.729999999999997</ele>
        <time>2019-06-23T09:24:37Z</time>
      </trkpt>
      <trkpt lat="52.269495036453009" lon="13.196983002126217">
        <ele>34.729999999999997</ele>
        <time>2019-06-23T09:24:38Z</time>
      </trkpt>
      <trkpt lat="52.269581034779549" lon="13.196597015485168">
        <ele>34.729999999999997</ele>
        <time>2019-06-23T09:24:39Z</time>
      </trkpt>
      <trkpt lat="52.269644988700747" lon="13.196254028007388">
        <ele>34.729999999999997</ele>
        <time>2019-06-23T09:24:40Z</time>
      </trkpt>
      <trkpt lat="52.269796030595899" lon="13.195974994450808">
        <ele>34.25</ele>
        <time>2019-06-23T09:24:41Z</time>
      </trkpt>
      <trkpt lat="52.269967021420598" lon="13.195675006136298">
        <ele>34.25</ele>
        <time>2019-06-23T09:24:42Z</time>
      </trkpt>
      <trkpt lat="52.270116973668337" lon="13.195374011993408">
        <ele>33.770000000000003</ele>
        <time>2019-06-23T09:24:43Z</time>
      </trkpt>
      <trkpt lat="52.271983958780766" lon="13.192156031727791">
        <ele>35.210000000000001</ele>
        <time>2019-06-23T09:24:54Z</time>
      </trkpt>
      <trkpt lat="52.272305991500616" lon="13.19161900319159">
        <ele>34.729999999999997</ele>
        <time>2019-06-23T09:24:56Z</time>
      </trkpt>
      <trkpt lat="52.272542025893927" lon="13.19140400737524">
        <ele>34.25</ele>
        <time>2019-06-23T09:24:57Z</time>
      </trkpt>
      <trkpt lat="52.272777976468205" lon="13.191233016550541">
        <ele>33.770000000000003</ele>
        <time>2019-06-23T09:24:58Z</time>
      </trkpt>
      <trkpt lat="52.274366011843085" lon="13.19024596363306">
        <ele>35.210000000000001</ele>
        <time>2019-06-23T09:25:05Z</time>
      </trkpt>
      <trkpt lat="52.276340033859015" lon="13.189258994534612">
        <ele>39.539999999999999</ele>
        <time>2019-06-23T09:25:14Z</time>
      </trkpt>
      <trkpt lat="52.277563037350774" lon="13.188635967671871">
        <ele>40.979999999999997</ele>
        <time>2019-06-23T09:25:21Z</time>
      </trkpt>
      <trkpt lat="52.278099982067943" lon="13.188358023762703">
        <ele>40.979999999999997</ele>
        <time>2019-06-23T09:25:27Z</time>
      </trkpt>
      <trkpt lat="52.278056982904673" lon="13.188315024599433">
        <ele>41.460000000000001</ele>
        <time>2019-06-23T09:25:28Z</time>
      </trkpt>
      <trkpt lat="52.278056982904673" lon="13.188249981030822">
        <ele>40.979999999999997</ele>
        <time>2019-06-23T09:25:29Z</time>
      </trkpt>
      <trkpt lat="52.278035022318363" lon="13.188143027946353">
        <ele>40.979999999999997</ele>
        <time>2019-06-23T09:25:30Z</time>
      </trkpt>
      <trkpt lat="52.277992023155093" lon="13.187949992716312">
        <ele>40.979999999999997</ele>
        <time>2019-06-23T09:25:31Z</time>
      </trkpt>
      <trkpt lat="52.277949023991823" lon="13.187713958323002">
        <ele>40.5</ele>
        <time>2019-06-23T09:25:32Z</time>
      </trkpt>
      <trkpt lat="52.277563037350774" lon="13.185631977394223">
        <ele>39.539999999999999</ele>
        <time>2019-06-23T09:25:39Z</time>
      </trkpt>
      <trkpt lat="52.277133967727423" lon="13.183379005640745">
        <ele>39.060000000000002</ele>
        <time>2019-06-23T09:25:46Z</time>
      </trkpt>
      <trkpt lat="52.276961971074343" lon="13.182907020673156">
        <ele>39.060000000000002</ele>
        <time>2019-06-23T09:25:48Z</time>
      </trkpt>
      <trkpt lat="52.276876978576183" lon="13.182693030685186">
        <ele>39.060000000000002</ele>
        <time>2019-06-23T09:25:49Z</time>
      </trkpt>
      <trkpt lat="52.276790980249643" lon="13.182499995455146">
        <ele>39.060000000000002</ele>
        <time>2019-06-23T09:25:50Z</time>
      </trkpt>
      <trkpt lat="52.275675013661385" lon="13.180332016199827">
        <ele>40.020000000000003</ele>
        <time>2019-06-23T09:26:01Z</time>
      </trkpt>
      <trkpt lat="52.274816958233714" lon="13.178701987490058">
        <ele>40.020000000000003</ele>
        <time>2019-06-23T09:26:10Z</time>
      </trkpt>
      <trkpt lat="52.274000979959965" lon="13.17702803760767">
        <ele>38.100000000000001</ele>
        <time>2019-06-23T09:26:20Z</time>
      </trkpt>
      <trkpt lat="52.273163963109255" lon="13.175140013918281">
        <ele>35.689999999999998</ele>
        <time>2019-06-23T09:26:30Z</time>
      </trkpt>
      <trkpt lat="52.272477988153696" lon="13.173573017120361">
        <ele>35.689999999999998</ele>
        <time>2019-06-23T09:26:39Z</time>
      </trkpt>
      <trkpt lat="52.271491019055247" lon="13.171319961547852">
        <ele>34.729999999999997</ele>
        <time>2019-06-23T09:26:52Z</time>
      </trkpt>
      <trkpt lat="52.270460966974497" lon="13.169195987284184">
        <ele>34.729999999999997</ele>
        <time>2019-06-23T09:27:04Z</time>
      </trkpt>
      <trkpt lat="52.270311014726758" lon="13.169023990631104">
        <ele>34.729999999999997</ele>
        <time>2019-06-23T09:27:05Z</time>
      </trkpt>
      <trkpt lat="52.269259002059698" lon="13.167500998824835">
        <ele>35.210000000000001</ele>
        <time>2019-06-23T09:27:12Z</time>
      </trkpt>
      <trkpt lat="52.268078997731209" lon="13.165397979319096">
        <ele>34.729999999999997</ele>
        <time>2019-06-23T09:27:19Z</time>
      </trkpt>
      <trkpt lat="52.26655500009656" lon="13.162693977355957">
        <ele>33.770000000000003</ele>
        <time>2019-06-23T09:27:29Z</time>
      </trkpt>
      <trkpt lat="52.266318965703249" lon="13.162329029291868">
        <ele>33.289999999999999</ele>
        <time>2019-06-23T09:27:31Z</time>
      </trkpt>
      <trkpt lat="52.26616901345551" lon="13.162178993225098">
        <ele>33.289999999999999</ele>
        <time>2019-06-23T09:27:32Z</time>
      </trkpt>
      <trkpt lat="52.2660400159657" lon="13.162049995735288">
        <ele>33.289999999999999</ele>
        <time>2019-06-23T09:27:33Z</time>
      </trkpt>
      <trkpt lat="52.264732019975781" lon="13.161063026636839">
        <ele>33.289999999999999</ele>
        <time>2019-06-23T09:27:41Z</time>
      </trkpt>
      <trkpt lat="52.2646239772439" lon="13.16084903664887">
        <ele>33.289999999999999</ele>
        <time>2019-06-23T09:27:42Z</time>
      </trkpt>
      <trkpt lat="52.264517024159431" lon="13.160570003092289">
        <ele>33.289999999999999</ele>
        <time>2019-06-23T09:27:43Z</time>
      </trkpt>
      <trkpt lat="52.264431025832891" lon="13.160247970372438">
        <ele>33.289999999999999</ele>
        <time>2019-06-23T09:27:44Z</time>
      </trkpt>
      <trkpt lat="52.264323988929391" lon="13.159947982057929">
        <ele>33.289999999999999</ele>
        <time>2019-06-23T09:27:45Z</time>
      </trkpt>
      <trkpt lat="52.262842990458012" lon="13.154991008341312">
        <ele>34.729999999999997</ele>
        <time>2019-06-23T09:28:00Z</time>
      </trkpt>
      <trkpt lat="52.262779036536813" lon="13.154690014198422">
        <ele>34.729999999999997</ele>
        <time>2019-06-23T09:28:01Z</time>
      </trkpt>
      <trkpt lat="52.262756992131472" lon="13.154347026720643">
        <ele>34.729999999999997</ele>
        <time>2019-06-23T09:28:02Z</time>
      </trkpt>
      <trkpt lat="52.262736037373543" lon="13.151492988690734">
        <ele>34.25</ele>
        <time>2019-06-23T09:28:10Z</time>
      </trkpt>
      <trkpt lat="52.262779036536813" lon="13.151171039789915">
        <ele>34.25</ele>
        <time>2019-06-23T09:28:11Z</time>
      </trkpt>
      <trkpt lat="52.263014987111092" lon="13.149690963327885">
        <ele>33.770000000000003</ele>
        <time>2019-06-23T09:28:17Z</time>
      </trkpt>
      <trkpt lat="52.263229982927442" lon="13.148960983380675">
        <ele>33.289999999999999</ele>
        <time>2019-06-23T09:28:21Z</time>
      </trkpt>
      <trkpt lat="52.263294020667672" lon="13.148811031132936">
        <ele>33.289999999999999</ele>
        <time>2019-06-23T09:28:22Z</time>
      </trkpt>
      <trkpt lat="52.263486972078681" lon="13.148424960672855">
        <ele>33.289999999999999</ele>
        <time>2019-06-23T09:28:25Z</time>
      </trkpt>
      <trkpt lat="52.263508010655642" lon="13.148338962346315">
        <ele>33.289999999999999</ele>
        <time>2019-06-23T09:28:26Z</time>
      </trkpt>
      <trkpt lat="52.263466017320752" lon="13.148252964019775">
        <ele>33.289999999999999</ele>
        <time>2019-06-23T09:28:27Z</time>
      </trkpt>
      <trkpt lat="52.263423018157482" lon="13.148166965693235">
        <ele>33.289999999999999</ele>
        <time>2019-06-23T09:28:28Z</time>
      </trkpt>
      <trkpt lat="52.263357974588871" lon="13.148060012608767">
        <ele>33.770000000000003</ele>
        <time>2019-06-23T09:28:29Z</time>
      </trkpt>
      <trkpt lat="52.263251021504402" lon="13.147931015118957">
        <ele>33.770000000000003</ele>
        <time>2019-06-23T09:28:30Z</time>
      </trkpt>
      <trkpt lat="52.263122024014592" lon="13.147780979052186">
        <ele>34.25</ele>
        <time>2019-06-23T09:28:31Z</time>
      </trkpt>
      <trkpt lat="52.262005973607302" lon="13.146708011627197">
        <ele>34.25</ele>
        <time>2019-06-23T09:28:39Z</time>
      </trkpt>
      <trkpt lat="52.260439982637763" lon="13.145743003115058">
        <ele>33.770000000000003</ele>
        <time>2019-06-23T09:28:47Z</time>
      </trkpt>
      <trkpt lat="52.257735980674624" lon="13.144004009664059">
        <ele>34.25</ele>
        <time>2019-06-23T09:29:00Z</time>
      </trkpt>
      <trkpt lat="52.256621019914746" lon="13.142910003662109">
        <ele>34.729999999999997</ele>
        <time>2019-06-23T09:29:07Z</time>
      </trkpt>
      <trkpt lat="52.254968024790287" lon="13.141129016876221">
        <ele>34.25</ele>
        <time>2019-06-23T09:29:18Z</time>
      </trkpt>
      <trkpt lat="52.253917017951608" lon="13.139583980664611">
        <ele>35.210000000000001</ele>
        <time>2019-06-23T09:29:25Z</time>
      </trkpt>
      <trkpt lat="52.253531031310558" lon="13.139068996533751">
        <ele>35.210000000000001</ele>
        <time>2019-06-23T09:29:28Z</time>
      </trkpt>
      <trkpt lat="52.253359034657478" lon="13.138961959630251">
        <ele>34.729999999999997</ele>
        <time>2019-06-23T09:29:29Z</time>
      </trkpt>
      <trkpt lat="52.253187038004398" lon="13.138855006545782">
        <ele>34.729999999999997</ele>
        <time>2019-06-23T09:29:30Z</time>
      </trkpt>
      <trkpt lat="52.251514010131359" lon="13.137931991368532">
        <ele>34.729999999999997</ele>
        <time>2019-06-23T09:29:39Z</time>
      </trkpt>
      <trkpt lat="52.249581981450319" lon="13.136945022270083">
        <ele>35.210000000000001</ele>
        <time>2019-06-23T09:29:50Z</time>
      </trkpt>
      <trkpt lat="52.247673003003001" lon="13.135957969352603">
        <ele>34.729999999999997</ele>
        <time>2019-06-23T09:29:59Z</time>
      </trkpt>
      <trkpt lat="52.246342040598392" lon="13.135270988568664">
        <ele>35.689999999999998</ele>
        <time>2019-06-23T09:30:06Z</time>
      </trkpt>
      <trkpt lat="52.244626013562083" lon="13.133961986750364">
        <ele>38.579999999999998</ele>
        <time>2019-06-23T09:30:16Z</time>
      </trkpt>
      <trkpt lat="52.244432978332043" lon="13.133941031992435">
        <ele>39.060000000000002</ele>
        <time>2019-06-23T09:30:17Z</time>
      </trkpt>
      <trkpt lat="52.244239021092653" lon="13.133898032829165">
        <ele>39.060000000000002</ele>
        <time>2019-06-23T09:30:18Z</time>
      </trkpt>
      <trkpt lat="52.244068030267954" lon="13.133918987587094">
        <ele>39.539999999999999</ele>
        <time>2019-06-23T09:30:19Z</time>
      </trkpt>
      <trkpt lat="52.243874995037913" lon="13.133961986750364">
        <ele>39.539999999999999</ele>
        <time>2019-06-23T09:30:20Z</time>
      </trkpt>
      <trkpt lat="52.243702998384833" lon="13.134004985913634">
        <ele>39.539999999999999</ele>
        <time>2019-06-23T09:30:21Z</time>
      </trkpt>
      <trkpt lat="52.242373041808605" lon="13.134327018633485">
        <ele>37.140000000000001</ele>
        <time>2019-06-23T09:30:29Z</time>
      </trkpt>
      <trkpt lat="52.241235030815005" lon="13.134627006947994">
        <ele>37.140000000000001</ele>
        <time>2019-06-23T09:30:37Z</time>
      </trkpt>
      <trkpt lat="52.239669039845467" lon="13.135035037994385">
        <ele>37.619999999999997</ele>
        <time>2019-06-23T09:30:46Z</time>
      </trkpt>
      <trkpt lat="52.238938976079226" lon="13.135250033810735">
        <ele>36.659999999999997</ele>
        <time>2019-06-23T09:30:52Z</time>
      </trkpt>
      <trkpt lat="52.238746024668217" lon="13.135313987731934">
        <ele>36.18</ele>
        <time>2019-06-23T09:30:55Z</time>
      </trkpt>
      <trkpt lat="52.238703025504947" lon="13.135313987731934">
        <ele>36.18</ele>
        <time>2019-06-23T09:30:56Z</time>
      </trkpt>
      <trkpt lat="52.238660026341677" lon="13.135336032137275">
        <ele>36.18</ele>
        <time>2019-06-23T09:30:57Z</time>
      </trkpt>
      <trkpt lat="52.238660026341677" lon="13.135421024635434">
        <ele>35.689999999999998</ele>
        <time>2019-06-23T09:30:58Z</time>
      </trkpt>
      <trkpt lat="52.238681986927986" lon="13.135485984385014">
        <ele>35.689999999999998</ele>
        <time>2019-06-23T09:30:59Z</time>
      </trkpt>
      <trkpt lat="52.238724986091256" lon="13.135593021288514">
        <ele>35.689999999999998</ele>
        <time>2019-06-23T09:31:00Z</time>
      </trkpt>
      <trkpt lat="52.238767985254526" lon="13.135742973536253">
        <ele>35.689999999999998</ele>
        <time>2019-06-23T09:31:01Z</time>
      </trkpt>
      <trkpt lat="52.238810984417796" lon="13.135914970189333">
        <ele>35.689999999999998</ele>
        <time>2019-06-23T09:31:02Z</time>
      </trkpt>
      <trkpt lat="52.239239970222116" lon="13.137417007237673">
        <ele>36.18</ele>
        <time>2019-06-23T09:31:09Z</time>
      </trkpt>
      <trkpt lat="52.239347007125616" lon="13.137759994715452">
        <ele>36.18</ele>
        <time>2019-06-23T09:31:11Z</time>
      </trkpt>
      <trkpt lat="52.239390006288886" lon="13.137931991368532">
        <ele>36.18</ele>
        <time>2019-06-23T09:31:12Z</time>
      </trkpt>
      <trkpt lat="52.239347007125616" lon="13.138103988021612">
        <ele>35.689999999999998</ele>
        <time>2019-06-23T09:31:13Z</time>
      </trkpt>
      <trkpt lat="52.239304007962346" lon="13.138317978009582">
        <ele>35.689999999999998</ele>
        <time>2019-06-23T09:31:14Z</time>
      </trkpt>
      <trkpt lat="52.239261008799076" lon="13.138532973825932">
        <ele>35.689999999999998</ele>
        <time>2019-06-23T09:31:15Z</time>
      </trkpt>
      <trkpt lat="52.238918021321297" lon="13.140292000025511">
        <ele>36.18</ele>
        <time>2019-06-23T09:31:22Z</time>
      </trkpt>
      <trkpt lat="52.238810984417796" lon="13.14080698415637">
        <ele>35.689999999999998</ele>
        <time>2019-06-23T09:31:24Z</time>
      </trkpt>
      <trkpt lat="52.238789023831487" lon="13.14106497913599">
        <ele>35.689999999999998</ele>
        <time>2019-06-23T09:31:25Z</time>
      </trkpt>
      <trkpt lat="52.238746024668217" lon="13.143618023023009">
        <ele>34.25</ele>
        <time>2019-06-23T09:31:33Z</time>
      </trkpt>
      <trkpt lat="52.238681986927986" lon="13.146708011627197">
        <ele>33.770000000000003</ele>
        <time>2019-06-23T09:31:40Z</time>
      </trkpt>
      <trkpt lat="52.238638987764716" lon="13.149561965838075">
        <ele>34.729999999999997</ele>
        <time>2019-06-23T09:31:48Z</time>
      </trkpt>
      <trkpt lat="52.238575033843517" lon="13.153768004849553">
        <ele>35.210000000000001</ele>
        <time>2019-06-23T09:32:00Z</time>
      </trkpt>
      <trkpt lat="52.238552989438176" lon="13.156900992617011">
        <ele>34.729999999999997</ele>
        <time>2019-06-23T09:32:09Z</time>
      </trkpt>
      <trkpt lat="52.238638987764716" lon="13.157137027010322">
        <ele>34.729999999999997</ele>
        <time>2019-06-23T09:32:10Z</time>
      </trkpt>
      <trkpt lat="52.238724986091256" lon="13.15732997842133">
        <ele>34.729999999999997</ele>
        <time>2019-06-23T09:32:11Z</time>
      </trkpt>
      <trkpt lat="52.238853983581066" lon="13.157480014488101">
        <ele>34.729999999999997</ele>
        <time>2019-06-23T09:32:12Z</time>
      </trkpt>
      <trkpt lat="52.239024974405766" lon="13.15758696757257">
        <ele>34.729999999999997</ele>
        <time>2019-06-23T09:32:13Z</time>
      </trkpt>
      <trkpt lat="52.239196971058846" lon="13.15769400447607">
        <ele>35.210000000000001</ele>
        <time>2019-06-23T09:32:14Z</time>
      </trkpt>
      <trkpt lat="52.240356020629406" lon="13.15842398442328">
        <ele>37.619999999999997</ele>
        <time>2019-06-23T09:32:22Z</time>
      </trkpt>
      <trkpt lat="52.240419974550605" lon="13.15857402049005">
        <ele>37.619999999999997</ele>
        <time>2019-06-23T09:32:23Z</time>
      </trkpt>
      <trkpt lat="52.240484012290835" lon="13.15874601714313">
        <ele>37.619999999999997</ele>
        <time>2019-06-23T09:32:24Z</time>
      </trkpt>
      <trkpt lat="52.240527011454105" lon="13.158938968554139">
        <ele>38.100000000000001</ele>
        <time>2019-06-23T09:32:25Z</time>
      </trkpt>
      <trkpt lat="52.240548972040415" lon="13.15913200378418">
        <ele>38.100000000000001</ele>
        <time>2019-06-23T09:32:26Z</time>
      </trkpt>
      <trkpt lat="52.240570010617375" lon="13.15934699960053">
        <ele>38.100000000000001</ele>
        <time>2019-06-23T09:32:27Z</time>
      </trkpt>
      <trkpt lat="52.240914003923535" lon="13.161364020779729">
        <ele>37.619999999999997</ele>
        <time>2019-06-23T09:32:36Z</time>
      </trkpt>
      <trkpt lat="52.240955997258425" lon="13.161556972190738">
        <ele>37.619999999999997</ele>
        <time>2019-06-23T09:32:37Z</time>
      </trkpt>
      <trkpt lat="52.240978041663766" lon="13.161770962178707">
        <ele>37.619999999999997</ele>
        <time>2019-06-23T09:32:38Z</time>
      </trkpt>
      <trkpt lat="52.240978041663766" lon="13.162006996572018">
        <ele>38.100000000000001</ele>
        <time>2019-06-23T09:32:39Z</time>
      </trkpt>
      <trkpt lat="52.240998996421695" lon="13.162244036793709">
        <ele>38.100000000000001</ele>
        <time>2019-06-23T09:32:40Z</time>
      </trkpt>
      <trkpt lat="52.240998996421695" lon="13.162479987367988">
        <ele>38.100000000000001</ele>
        <time>2019-06-23T09:32:41Z</time>
      </trkpt>
      <trkpt lat="52.240978041663766" lon="13.162716021761298">
        <ele>38.100000000000001</ele>
        <time>2019-06-23T09:32:42Z</time>
      </trkpt>
      <trkpt lat="52.240891959518194" lon="13.165033031255007">
        <ele>37.140000000000001</ele>
        <time>2019-06-23T09:32:52Z</time>
      </trkpt>
      <trkpt lat="52.240484012290835" lon="13.166943015530705">
        <ele>37.619999999999997</ele>
        <time>2019-06-23T09:33:02Z</time>
      </trkpt>
      <trkpt lat="52.239861991256475" lon="13.169947005808353">
        <ele>38.579999999999998</ele>
        <time>2019-06-23T09:33:17Z</time>
      </trkpt>
      <trkpt lat="52.238789023831487" lon="13.173508979380131">
        <ele>37.619999999999997</ele>
        <time>2019-06-23T09:33:35Z</time>
      </trkpt>
      <trkpt lat="52.238296000286937" lon="13.175633037462831">
        <ele>37.140000000000001</ele>
        <time>2019-06-23T09:33:42Z</time>
      </trkpt>
      <trkpt lat="52.237566020339727" lon="13.179516959935427">
        <ele>37.140000000000001</ele>
        <time>2019-06-23T09:33:52Z</time>
      </trkpt>
      <trkpt lat="52.237029997631907" lon="13.182521034032106">
        <ele>37.140000000000001</ele>
        <time>2019-06-23T09:34:00Z</time>
      </trkpt>
      <trkpt lat="52.236558012664318" lon="13.185268035158515">
        <ele>37.140000000000001</ele>
        <time>2019-06-23T09:34:07Z</time>
      </trkpt>
      <trkpt lat="52.236363971605897" lon="13.186146961525083">
        <ele>36.659999999999997</ele>
        <time>2019-06-23T09:34:09Z</time>
      </trkpt>
      <trkpt lat="52.236214019358158" lon="13.186554992571473">
        <ele>36.659999999999997</ele>
        <time>2019-06-23T09:34:10Z</time>
      </trkpt>
      <trkpt lat="52.236063983291388" lon="13.186983978375793">
        <ele>37.140000000000001</ele>
        <time>2019-06-23T09:34:11Z</time>
      </trkpt>
      <trkpt lat="52.235034015029669" lon="13.189472984522581">
        <ele>37.140000000000001</ele>
        <time>2019-06-23T09:34:17Z</time>
      </trkpt>
      <trkpt lat="52.233617976307869" lon="13.192948959767818">
        <ele>37.619999999999997</ele>
        <time>2019-06-23T09:34:27Z</time>
      </trkpt>
      <trkpt lat="52.233359981328249" lon="13.19350702688098">
        <ele>37.140000000000001</ele>
        <time>2019-06-23T09:34:29Z</time>
      </trkpt>
      <trkpt lat="52.23321002908051" lon="13.19372202269733">
        <ele>36.659999999999997</ele>
        <time>2019-06-23T09:34:30Z</time>
      </trkpt>
      <trkpt lat="52.23301699385047" lon="13.193914974108338">
        <ele>36.18</ele>
        <time>2019-06-23T09:34:31Z</time>
      </trkpt>
      <trkpt lat="52.23162199370563" lon="13.195245014503598">
        <ele>35.689999999999998</ele>
        <time>2019-06-23T09:34:38Z</time>
      </trkpt>
      <trkpt lat="52.231451002880931" lon="13.195374011993408">
        <ele>35.689999999999998</ele>
        <time>2019-06-23T09:34:39Z</time>
      </trkpt>
      <trkpt lat="52.231236007064581" lon="13.195417011156678">
        <ele>35.689999999999998</ele>
        <time>2019-06-23T09:34:40Z</time>
      </trkpt>
      <trkpt lat="52.23104297183454" lon="13.195460010319948">
        <ele>35.689999999999998</ele>
        <time>2019-06-23T09:34:41Z</time>
      </trkpt>
      <trkpt lat="52.230850020423532" lon="13.195503009483218">
        <ele>35.689999999999998</ele>
        <time>2019-06-23T09:34:42Z</time>
      </trkpt>
      <trkpt lat="52.230656985193491" lon="13.195566963404417">
        <ele>35.689999999999998</ele>
        <time>2019-06-23T09:34:43Z</time>
      </trkpt>
      <trkpt lat="52.230464033782482" lon="13.195738960057497">
        <ele>35.689999999999998</ele>
        <time>2019-06-23T09:34:44Z</time>
      </trkpt>
      <trkpt lat="52.230227999389172" lon="13.195911040529609">
        <ele>36.18</ele>
        <time>2019-06-23T09:34:45Z</time>
      </trkpt>
      <trkpt lat="52.228618003427982" lon="13.196898009628057">
        <ele>36.18</ele>
        <time>2019-06-23T09:34:52Z</time>
      </trkpt>
      <trkpt lat="52.226365031674504" lon="13.197626983746886">
        <ele>36.18</ele>
        <time>2019-06-23T09:35:00Z</time>
      </trkpt>
      <trkpt lat="52.223682990297675" lon="13.198485961183906">
        <ele>36.659999999999997</ele>
        <time>2019-06-23T09:35:10Z</time>
      </trkpt>
      <trkpt lat="52.222310034558177" lon="13.198935985565186">
        <ele>37.140000000000001</ele>
        <time>2019-06-23T09:35:17Z</time>
      </trkpt>
      <trkpt lat="52.221559016034007" lon="13.199129020795226">
        <ele>38.579999999999998</ele>
        <time>2019-06-23T09:35:24Z</time>
      </trkpt>
      <trkpt lat="52.221430018544197" lon="13.199172019958496">
        <ele>38.579999999999998</ele>
        <time>2019-06-23T09:35:26Z</time>
      </trkpt>
      <trkpt lat="52.221365980803967" lon="13.199193980544806">
        <ele>38.579999999999998</ele>
        <time>2019-06-23T09:35:27Z</time>
      </trkpt>
      <trkpt lat="52.221344020217657" lon="13.199193980544806">
        <ele>38.579999999999998</ele>
        <time>2019-06-23T09:35:28Z</time>
      </trkpt>
      <trkpt lat="52.221279982477427" lon="13.199150981381536">
        <ele>38.100000000000001</ele>
        <time>2019-06-23T09:35:35Z</time>
      </trkpt>
      <trkpt lat="52.221236983314157" lon="13.199129020795226">
        <ele>38.100000000000001</ele>
        <time>2019-06-23T09:35:36Z</time>
      </trkpt>
      <trkpt lat="52.221150984987617" lon="13.199172019958496">
        <ele>38.100000000000001</ele>
        <time>2019-06-23T09:35:37Z</time>
      </trkpt>
      <trkpt lat="52.221107985824347" lon="13.199278973042965">
        <ele>38.100000000000001</ele>
        <time>2019-06-23T09:35:38Z</time>
      </trkpt>
      <trkpt lat="52.221044031903148" lon="13.199364971369505">
        <ele>38.100000000000001</ele>
        <time>2019-06-23T09:35:39Z</time>
      </trkpt>
      <trkpt lat="52.220442965626717" lon="13.200287986546755">
        <ele>38.579999999999998</ele>
        <time>2019-06-23T09:35:46Z</time>
      </trkpt>
      <trkpt lat="52.220336012542248" lon="13.200395023450255">
        <ele>38.579999999999998</ele>
        <time>2019-06-23T09:35:47Z</time>
      </trkpt>
      <trkpt lat="52.220227969810367" lon="13.200459983199835">
        <ele>38.579999999999998</ele>
        <time>2019-06-23T09:35:48Z</time>
      </trkpt>
      <trkpt lat="52.218833975493908" lon="13.201295994222164">
        <ele>39.539999999999999</ele>
        <time>2019-06-23T09:35:59Z</time>
      </trkpt>
      <trkpt lat="52.217718008905649" lon="13.202025974169374">
        <ele>39.539999999999999</ele>
        <time>2019-06-23T09:36:09Z</time>
      </trkpt>
      <trkpt lat="52.217417014762759" lon="13.202325962483883">
        <ele>39.539999999999999</ele>
        <time>2019-06-23T09:36:12Z</time>
      </trkpt>
      <trkpt lat="52.2173320222646" lon="13.202434005215764">
        <ele>39.539999999999999</ele>
        <time>2019-06-23T09:36:13Z</time>
      </trkpt>
      <trkpt lat="52.21728902310133" lon="13.202584041282535">
        <ele>39.060000000000002</ele>
        <time>2019-06-23T09:36:14Z</time>
      </trkpt>
      <trkpt lat="52.217266978695989" lon="13.202756037935615">
        <ele>38.579999999999998</ele>
        <time>2019-06-23T09:36:15Z</time>
      </trkpt>
      <trkpt lat="52.217223979532719" lon="13.202948989346623">
        <ele>38.579999999999998</ele>
        <time>2019-06-23T09:36:16Z</time>
      </trkpt>
      <trkpt lat="52.217180980369449" lon="13.203119980171323">
        <ele>38.100000000000001</ele>
        <time>2019-06-23T09:36:17Z</time>
      </trkpt>
      <trkpt lat="52.21711702644825" lon="13.203700007870793">
        <ele>37.619999999999997</ele>
        <time>2019-06-23T09:36:20Z</time>
      </trkpt>
      <trkpt lat="52.21711702644825" lon="13.203892959281802">
        <ele>37.619999999999997</ele>
        <time>2019-06-23T09:36:21Z</time>
      </trkpt>
      <trkpt lat="52.217052988708019" lon="13.206360004842281">
        <ele>37.619999999999997</ele>
        <time>2019-06-23T09:36:32Z</time>
      </trkpt>
      <trkpt lat="52.2167310398072" lon="13.209128966554999">
        <ele>37.140000000000001</ele>
        <time>2019-06-23T09:36:45Z</time>
      </trkpt>
      <trkpt lat="52.21658100374043" lon="13.209964977577329">
        <ele>37.619999999999997</ele>
        <time>2019-06-23T09:36:49Z</time>
      </trkpt>
      <trkpt lat="52.216515960171819" lon="13.210136974230409">
        <ele>38.100000000000001</ele>
        <time>2019-06-23T09:36:50Z</time>
      </trkpt>
      <trkpt lat="52.216429961845279" lon="13.210330009460449">
        <ele>38.579999999999998</ele>
        <time>2019-06-23T09:36:51Z</time>
      </trkpt>
      <trkpt lat="52.216066019609571" lon="13.210973991081119">
        <ele>38.579999999999998</ele>
        <time>2019-06-23T09:36:55Z</time>
      </trkpt>
      <trkpt lat="52.215957976877689" lon="13.211081027984619">
        <ele>39.060000000000002</ele>
        <time>2019-06-23T09:36:56Z</time>
      </trkpt>
      <trkpt lat="52.215851023793221" lon="13.211187981069088">
        <ele>39.060000000000002</ele>
        <time>2019-06-23T09:36:57Z</time>
      </trkpt>
      <trkpt lat="52.214971007779241" lon="13.211831962689757">
        <ele>40.979999999999997</ele>
        <time>2019-06-23T09:37:05Z</time>
      </trkpt>
      <trkpt lat="52.214885009452701" lon="13.211897006258368">
        <ele>40.979999999999997</ele>
        <time>2019-06-23T09:37:06Z</time>
      </trkpt>
      <trkpt lat="52.214800016954541" lon="13.211960960179567">
        <ele>40.979999999999997</ele>
        <time>2019-06-23T09:37:07Z</time>
      </trkpt>
      <trkpt lat="52.214499022811651" lon="13.212368991225958">
        <ele>40.020000000000003</ele>
        <time>2019-06-23T09:37:14Z</time>
      </trkpt>
      <trkpt lat="52.214456023648381" lon="13.212411990389228">
        <ele>39.539999999999999</ele>
        <time>2019-06-23T09:37:15Z</time>
      </trkpt>
      <trkpt lat="52.214434985071421" lon="13.212476028129458">
        <ele>39.539999999999999</ele>
        <time>2019-06-23T09:37:16Z</time>
      </trkpt>
      <trkpt lat="52.214327026158571" lon="13.212453983724117">
        <ele>39.539999999999999</ele>
        <time>2019-06-23T09:37:17Z</time>
      </trkpt>
      <trkpt lat="52.214285032823682" lon="13.212368991225958">
        <ele>39.060000000000002</ele>
        <time>2019-06-23T09:37:18Z</time>
      </trkpt>
      <trkpt lat="52.214219989255071" lon="13.212282992899418">
        <ele>39.060000000000002</ele>
        <time>2019-06-23T09:37:19Z</time>
      </trkpt>
      <trkpt lat="52.213339973241091" lon="13.211316978558898">
        <ele>39.539999999999999</ele>
        <time>2019-06-23T09:37:29Z</time>
      </trkpt>
      <trkpt lat="52.213233020156622" lon="13.211253024637699">
        <ele>39.539999999999999</ele>
        <time>2019-06-23T09:37:30Z</time>
      </trkpt>
      <trkpt lat="52.213147021830082" lon="13.211187981069088">
        <ele>39.539999999999999</ele>
        <time>2019-06-23T09:37:31Z</time>
      </trkpt>
      <trkpt lat="52.213039984926581" lon="13.211167026311159">
        <ele>39.539999999999999</ele>
        <time>2019-06-23T09:37:32Z</time>
      </trkpt>
      <trkpt lat="52.212933031842113" lon="13.211187981069088">
        <ele>40.020000000000003</ele>
        <time>2019-06-23T09:37:33Z</time>
      </trkpt>
      <trkpt lat="52.212824989110231" lon="13.211187981069088">
        <ele>40.020000000000003</ele>
        <time>2019-06-23T09:37:34Z</time>
      </trkpt>
      <trkpt lat="52.212696997448802" lon="13.211210025474429">
        <ele>40.5</ele>
        <time>2019-06-23T09:37:35Z</time>
      </trkpt>
      <trkpt lat="52.212589038535953" lon="13.211210025474429">
        <ele>40.5</ele>
        <time>2019-06-23T09:37:36Z</time>
      </trkpt>
      <trkpt lat="52.211795020848513" lon="13.211510013788939">
        <ele>40.020000000000003</ele>
        <time>2019-06-23T09:37:42Z</time>
      </trkpt>
      <trkpt lat="52.211644984781742" lon="13.211488975211978">
        <ele>40.020000000000003</ele>
        <time>2019-06-23T09:37:43Z</time>
      </trkpt>
      <trkpt lat="52.211495032534003" lon="13.211445976048708">
        <ele>40.020000000000003</ele>
        <time>2019-06-23T09:37:44Z</time>
      </trkpt>
      <trkpt lat="52.211366035044193" lon="13.211359977722168">
        <ele>40.020000000000003</ele>
        <time>2019-06-23T09:37:45Z</time>
      </trkpt>
      <trkpt lat="52.211215998977423" lon="13.211253024637699">
        <ele>40.020000000000003</ele>
        <time>2019-06-23T09:37:46Z</time>
      </trkpt>
      <trkpt lat="52.211087001487613" lon="13.211145987734199">
        <ele>40.020000000000003</ele>
        <time>2019-06-23T09:37:47Z</time>
      </trkpt>
      <trkpt lat="52.210936965420842" lon="13.211038028821349">
        <ele>40.020000000000003</ele>
        <time>2019-06-23T09:37:48Z</time>
      </trkpt>
      <trkpt lat="52.210035994648933" lon="13.210179973393679">
        <ele>38.579999999999998</ele>
        <time>2019-06-23T09:37:56Z</time>
      </trkpt>
      <trkpt lat="52.209906997159123" lon="13.210093975067139">
        <ele>38.579999999999998</ele>
        <time>2019-06-23T09:37:57Z</time>
      </trkpt>
      <trkpt lat="52.209777999669313" lon="13.21003002114594">
        <ele>38.579999999999998</ele>
        <time>2019-06-23T09:37:58Z</time>
      </trkpt>
      <trkpt lat="52.208791030570865" lon="13.20968602783978">
        <ele>38.100000000000001</ele>
        <time>2019-06-23T09:38:06Z</time>
      </trkpt>
      <trkpt lat="52.208663038909435" lon="13.20972902700305">
        <ele>38.100000000000001</ele>
        <time>2019-06-23T09:38:07Z</time>
      </trkpt>
      <trkpt lat="52.208577040582895" lon="13.209836985915899">
        <ele>38.100000000000001</ele>
        <time>2019-06-23T09:38:08Z</time>
      </trkpt>
      <trkpt lat="52.208083011209965" lon="13.210244011133909">
        <ele>37.140000000000001</ele>
        <time>2019-06-23T09:38:12Z</time>
      </trkpt>
      <trkpt lat="52.207889975979924" lon="13.210265971720219">
        <ele>37.140000000000001</ele>
        <time>2019-06-23T09:38:13Z</time>
      </trkpt>
      <trkpt lat="52.207718985155225" lon="13.210265971720219">
        <ele>37.140000000000001</ele>
        <time>2019-06-23T09:38:14Z</time>
      </trkpt>
      <trkpt lat="52.205572966486216" lon="13.210522960871458">
        <ele>36.18</ele>
        <time>2019-06-23T09:38:24Z</time>
      </trkpt>
      <trkpt lat="52.205122020095587" lon="13.210631003603339">
        <ele>36.659999999999997</ele>
        <time>2019-06-23T09:38:26Z</time>
      </trkpt>
      <trkpt lat="52.204908030107617" lon="13.210565960034728">
        <ele>36.659999999999997</ele>
        <time>2019-06-23T09:38:27Z</time>
      </trkpt>
      <trkpt lat="52.204693034291267" lon="13.210479961708188">
        <ele>37.140000000000001</ele>
        <time>2019-06-23T09:38:28Z</time>
      </trkpt>
      <trkpt lat="52.204456999897957" lon="13.210416007786989">
        <ele>37.619999999999997</ele>
        <time>2019-06-23T09:38:29Z</time>
      </trkpt>
      <trkpt lat="52.204220965504646" lon="13.210436962544918">
        <ele>37.619999999999997</ele>
        <time>2019-06-23T09:38:30Z</time>
      </trkpt>
      <trkpt lat="52.204005969688296" lon="13.210459006950259">
        <ele>38.100000000000001</ele>
        <time>2019-06-23T09:38:31Z</time>
      </trkpt>
      <trkpt lat="52.203770019114017" lon="13.210479961708188">
        <ele>38.100000000000001</ele>
        <time>2019-06-23T09:38:32Z</time>
      </trkpt>
      <trkpt lat="52.203576983883977" lon="13.210436962544918">
        <ele>38.579999999999998</ele>
        <time>2019-06-23T09:38:33Z</time>
      </trkpt>
      <trkpt lat="52.203384032472968" lon="13.210394969210029">
        <ele>39.060000000000002</ele>
        <time>2019-06-23T09:38:34Z</time>
      </trkpt>
      <trkpt lat="52.203190997242928" lon="13.210308970883489">
        <ele>39.539999999999999</ele>
        <time>2019-06-23T09:38:35Z</time>
      </trkpt>
      <trkpt lat="52.202997962012887" lon="13.210201011970639">
        <ele>40.020000000000003</ele>
        <time>2019-06-23T09:38:36Z</time>
      </trkpt>
      <trkpt lat="52.201967993751168" lon="13.20955803617835">
        <ele>40.979999999999997</ele>
        <time>2019-06-23T09:38:43Z</time>
      </trkpt>
      <trkpt lat="52.2007230296731" lon="13.209042968228459">
        <ele>40.020000000000003</ele>
        <time>2019-06-23T09:38:52Z</time>
      </trkpt>
      <trkpt lat="52.200572993606329" lon="13.20906400680542">
        <ele>40.020000000000003</ele>
        <time>2019-06-23T09:38:53Z</time>
      </trkpt>
      <trkpt lat="52.20042304135859" lon="13.20910700596869">
        <ele>40.020000000000003</ele>
        <time>2019-06-23T09:38:54Z</time>
      </trkpt>
      <trkpt lat="52.20027300529182" lon="13.209170959889889">
        <ele>40.020000000000003</ele>
        <time>2019-06-23T09:38:55Z</time>
      </trkpt>
      <trkpt lat="52.200121963396668" lon="13.209213959053159">
        <ele>40.020000000000003</ele>
        <time>2019-06-23T09:38:56Z</time>
      </trkpt>
      <trkpt lat="52.19997201114893" lon="13.20932200178504">
        <ele>40.020000000000003</ele>
        <time>2019-06-23T09:38:57Z</time>
      </trkpt>
      <trkpt lat="52.1987060084939" lon="13.210093975067139">
        <ele>41.460000000000001</ele>
        <time>2019-06-23T09:39:06Z</time>
      </trkpt>
      <trkpt lat="52.19829898327589" lon="13.210416007786989">
        <ele>41.939999999999998</ele>
        <time>2019-06-23T09:39:09Z</time>
      </trkpt>
      <trkpt lat="52.19821298494935" lon="13.210588004440069">
        <ele>42.420000000000002</ele>
        <time>2019-06-23T09:39:10Z</time>
      </trkpt>
      <trkpt lat="52.19816998578608" lon="13.210801994428039">
        <ele>42.420000000000002</ele>
        <time>2019-06-23T09:39:11Z</time>
      </trkpt>
      <trkpt lat="52.19812698662281" lon="13.211016990244389">
        <ele>42.899999999999999</ele>
        <time>2019-06-23T09:39:12Z</time>
      </trkpt>
      <trkpt lat="52.19816998578608" lon="13.211273979395628">
        <ele>43.380000000000003</ele>
        <time>2019-06-23T09:39:13Z</time>
      </trkpt>
      <trkpt lat="52.19821298494935" lon="13.211574973538518">
        <ele>44.350000000000001</ele>
        <time>2019-06-23T09:39:14Z</time>
      </trkpt>
      <trkpt lat="52.19825598411262" lon="13.211917961016297">
        <ele>44.829999999999998</ele>
        <time>2019-06-23T09:39:15Z</time>
      </trkpt>
      <trkpt lat="52.198406020179391" lon="13.214406967163086">
        <ele>48.189999999999998</ele>
        <time>2019-06-23T09:39:22Z</time>
      </trkpt>
      <trkpt lat="52.198492018505931" lon="13.216724982485175">
        <ele>45.789999999999999</ele>
        <time>2019-06-23T09:39:29Z</time>
      </trkpt>
      <trkpt lat="52.19842697493732" lon="13.216981971636415">
        <ele>45.310000000000002</ele>
        <time>2019-06-23T09:39:30Z</time>
      </trkpt>
      <trkpt lat="52.19834198243916" lon="13.217218006029725">
        <ele>44.829999999999998</ele>
        <time>2019-06-23T09:39:31Z</time>
      </trkpt>
      <trkpt lat="52.198234023526311" lon="13.217476001009345">
        <ele>44.350000000000001</ele>
        <time>2019-06-23T09:39:32Z</time>
      </trkpt>
      <trkpt lat="52.198105026036501" lon="13.217775989323854">
        <ele>43.869999999999997</ele>
        <time>2019-06-23T09:39:33Z</time>
      </trkpt>
      <trkpt lat="52.196688987314701" lon="13.220673026517034">
        <ele>40.020000000000003</ele>
        <time>2019-06-23T09:39:43Z</time>
      </trkpt>
      <trkpt lat="52.195723978802562" lon="13.221853030845523">
        <ele>38.100000000000001</ele>
        <time>2019-06-23T09:39:49Z</time>
      </trkpt>
      <trkpt lat="52.195531027391553" lon="13.221982028335333">
        <ele>38.100000000000001</ele>
        <time>2019-06-23T09:39:50Z</time>
      </trkpt>
      <trkpt lat="52.195336986333132" lon="13.222088981419802">
        <ele>38.100000000000001</ele>
        <time>2019-06-23T09:39:51Z</time>
      </trkpt>
      <trkpt lat="52.194737009704113" lon="13.222454013302922">
        <ele>39.060000000000002</ele>
        <time>2019-06-23T09:39:54Z</time>
      </trkpt>
      <trkpt lat="52.194565013051033" lon="13.222603965550661">
        <ele>39.060000000000002</ele>
        <time>2019-06-23T09:39:55Z</time>
      </trkpt>
      <trkpt lat="52.194371977820992" lon="13.222818961367011">
        <ele>39.060000000000002</ele>
        <time>2019-06-23T09:39:56Z</time>
      </trkpt>
      <trkpt lat="52.194222025573254" lon="13.223054995760322">
        <ele>39.539999999999999</ele>
        <time>2019-06-23T09:39:57Z</time>
      </trkpt>
      <trkpt lat="52.194070983678102" lon="13.223311984911561">
        <ele>39.539999999999999</ele>
        <time>2019-06-23T09:39:58Z</time>
      </trkpt>
      <trkpt lat="52.193942992016673" lon="13.22361197322607">
        <ele>39.539999999999999</ele>
        <time>2019-06-23T09:39:59Z</time>
      </trkpt>
      <trkpt lat="52.193856993690133" lon="13.22395596653223">
        <ele>39.539999999999999</ele>
        <time>2019-06-23T09:40:00Z</time>
      </trkpt>
      <trkpt lat="52.193770995363593" lon="13.224299037829041">
        <ele>39.539999999999999</ele>
        <time>2019-06-23T09:40:01Z</time>
      </trkpt>
      <trkpt lat="52.193727996200323" lon="13.224685024470091">
        <ele>39.060000000000002</ele>
        <time>2019-06-23T09:40:02Z</time>
      </trkpt>
      <trkpt lat="52.193707041442394" lon="13.22504997253418">
        <ele>38.579999999999998</ele>
        <time>2019-06-23T09:40:03Z</time>
      </trkpt>
      <trkpt lat="52.193707041442394" lon="13.2254150044173">
        <ele>38.100000000000001</ele>
        <time>2019-06-23T09:40:04Z</time>
      </trkpt>
      <trkpt lat="52.193641997873783" lon="13.226143978536129">
        <ele>36.18</ele>
        <time>2019-06-23T09:40:06Z</time>
      </trkpt>
      <trkpt lat="52.193577960133553" lon="13.22650901041925">
        <ele>35.689999999999998</ele>
        <time>2019-06-23T09:40:07Z</time>
      </trkpt>
      <trkpt lat="52.193514006212354" lon="13.226873958483338">
        <ele>34.729999999999997</ele>
        <time>2019-06-23T09:40:08Z</time>
      </trkpt>
      <trkpt lat="52.192547991871834" lon="13.230908000841737">
        <ele>34.25</ele>
        <time>2019-06-23T09:40:19Z</time>
      </trkpt>
      <trkpt lat="52.192010963335633" lon="13.233117973431945">
        <ele>36.18</ele>
        <time>2019-06-23T09:40:26Z</time>
      </trkpt>
      <trkpt lat="52.191496985033154" lon="13.235457027330995">
        <ele>37.619999999999997</ele>
        <time>2019-06-23T09:40:35Z</time>
      </trkpt>
      <trkpt lat="52.191346026957035" lon="13.235821975395083">
        <ele>38.100000000000001</ele>
        <time>2019-06-23T09:40:38Z</time>
      </trkpt>
      <trkpt lat="52.191367987543344" lon="13.235950972884893">
        <ele>38.100000000000001</ele>
        <time>2019-06-23T09:40:39Z</time>
      </trkpt>
      <trkpt lat="52.191410986706614" lon="13.236035965383053">
        <ele>38.100000000000001</ele>
        <time>2019-06-23T09:40:40Z</time>
      </trkpt>
      <trkpt lat="52.191453985869884" lon="13.236164962872863">
        <ele>38.100000000000001</ele>
        <time>2019-06-23T09:40:41Z</time>
      </trkpt>
      <trkpt lat="52.191518023610115" lon="13.236314998939633">
        <ele>37.619999999999997</ele>
        <time>2019-06-23T09:40:42Z</time>
      </trkpt>
      <trkpt lat="52.191604021936655" lon="13.236509039998055">
        <ele>37.619999999999997</ele>
        <time>2019-06-23T09:40:43Z</time>
      </trkpt>
      <trkpt lat="52.192162005230784" lon="13.237967994064093">
        <ele>37.619999999999997</ele>
        <time>2019-06-23T09:40:49Z</time>
      </trkpt>
      <trkpt lat="52.193062976002693" lon="13.240584991872311">
        <ele>38.579999999999998</ele>
        <time>2019-06-23T09:41:00Z</time>
      </trkpt>
      <trkpt lat="52.193663958460093" lon="13.242494976148009">
        <ele>37.140000000000001</ele>
        <time>2019-06-23T09:41:10Z</time>
      </trkpt>
      <trkpt lat="52.193792033940554" lon="13.243116997182369">
        <ele>37.140000000000001</ele>
        <time>2019-06-23T09:41:13Z</time>
      </trkpt>
      <trkpt lat="52.193856993690133" lon="13.243374992161989">
        <ele>37.140000000000001</ele>
        <time>2019-06-23T09:41:15Z</time>
      </trkpt>
      <trkpt lat="52.193921031430364" lon="13.243460990488529">
        <ele>36.659999999999997</ele>
        <time>2019-06-23T09:41:16Z</time>
      </trkpt>
      <trkpt lat="52.193985991179943" lon="13.243546988815069">
        <ele>37.140000000000001</ele>
        <time>2019-06-23T09:41:17Z</time>
      </trkpt>
      <trkpt lat="52.194050028920174" lon="13.243589987978339">
        <ele>37.140000000000001</ele>
        <time>2019-06-23T09:41:18Z</time>
      </trkpt>
      <trkpt lat="52.194136027246714" lon="13.24365402571857">
        <ele>37.140000000000001</ele>
        <time>2019-06-23T09:41:19Z</time>
      </trkpt>
      <trkpt lat="52.194436015561223" lon="13.243846977129579">
        <ele>37.140000000000001</ele>
        <time>2019-06-23T09:41:22Z</time>
      </trkpt>
      <trkpt lat="52.195637980476022" lon="13.244791030883789">
        <ele>36.659999999999997</ele>
        <time>2019-06-23T09:41:34Z</time>
      </trkpt>
      <trkpt lat="52.196711031720042" lon="13.246035994961858">
        <ele>38.100000000000001</ele>
        <time>2019-06-23T09:41:43Z</time>
      </trkpt>
      <trkpt lat="52.197590041905642" lon="13.246979964897037">
        <ele>37.619999999999997</ele>
        <time>2019-06-23T09:41:48Z</time>
      </trkpt>
      <trkpt lat="52.19883500598371" lon="13.248610999435186">
        <ele>38.579999999999998</ele>
        <time>2019-06-23T09:41:54Z</time>
      </trkpt>
      <trkpt lat="52.20005800947547" lon="13.250348987057805">
        <ele>39.060000000000002</ele>
        <time>2019-06-23T09:42:01Z</time>
      </trkpt>
      <trkpt lat="52.20018700696528" lon="13.250585021451116">
        <ele>39.060000000000002</ele>
        <time>2019-06-23T09:42:02Z</time>
      </trkpt>
      <trkpt lat="52.20031600445509" lon="13.250799011439085">
        <ele>39.060000000000002</ele>
        <time>2019-06-23T09:42:03Z</time>
      </trkpt>
      <trkpt lat="52.20080902799964" lon="13.251894023269415">
        <ele>39.539999999999999</ele>
        <time>2019-06-23T09:42:09Z</time>
      </trkpt>
      <trkpt lat="52.200981024652719" lon="13.252280009910464">
        <ele>40.020000000000003</ele>
        <time>2019-06-23T09:42:15Z</time>
      </trkpt>
      <trkpt lat="52.201024023815989" lon="13.252493999898434">
        <ele>40.020000000000003</ele>
        <time>2019-06-23T09:42:17Z</time>
      </trkpt>
      <trkpt lat="52.201001979410648" lon="13.252579998224974">
        <ele>40.5</ele>
        <time>2019-06-23T09:42:18Z</time>
      </trkpt>
      <trkpt lat="52.200958980247378" lon="13.252731040120125">
        <ele>40.5</ele>
        <time>2019-06-23T09:42:19Z</time>
      </trkpt>
      <trkpt lat="52.20089502632618" lon="13.252945030108094">
        <ele>40.020000000000003</ele>
        <time>2019-06-23T09:42:20Z</time>
      </trkpt>
      <trkpt lat="52.200830988585949" lon="13.253180980682373">
        <ele>40.020000000000003</ele>
        <time>2019-06-23T09:42:21Z</time>
      </trkpt>
      <trkpt lat="52.200744990259409" lon="13.253438975661993">
        <ele>40.020000000000003</ele>
        <time>2019-06-23T09:42:22Z</time>
      </trkpt>
      <trkpt lat="52.200079970061779" lon="13.255219962447882">
        <ele>42.420000000000002</ele>
        <time>2019-06-23T09:42:28Z</time>
      </trkpt>
      <trkpt lat="52.19950002618134" lon="13.257687008008361">
        <ele>44.350000000000001</ele>
        <time>2019-06-23T09:42:35Z</time>
      </trkpt>
      <trkpt lat="52.19868496991694" lon="13.261506976559758">
        <ele>40.979999999999997</ele>
        <time>2019-06-23T09:42:46Z</time>
      </trkpt>
      <trkpt lat="52.197740999981761" lon="13.265069033950567">
        <ele>38.100000000000001</ele>
        <time>2019-06-23T09:42:56Z</time>
      </trkpt>
      <trkpt lat="52.197612002491951" lon="13.265432976186275">
        <ele>38.579999999999998</ele>
        <time>2019-06-23T09:42:57Z</time>
      </trkpt>
      <trkpt lat="52.196582034230232" lon="13.267601039260626">
        <ele>43.869999999999997</ele>
        <time>2019-06-23T09:43:04Z</time>
      </trkpt>
      <trkpt lat="52.195273032411933" lon="13.270476032048464">
        <ele>44.350000000000001</ele>
        <time>2019-06-23T09:43:14Z</time>
      </trkpt>
      <trkpt lat="52.193985991179943" lon="13.273223033174872">
        <ele>42.899999999999999</ele>
        <time>2019-06-23T09:43:22Z</time>
      </trkpt>
      <trkpt lat="52.191132036969066" lon="13.279337966814637">
        <ele>41.939999999999998</ele>
        <time>2019-06-23T09:43:39Z</time>
      </trkpt>
      <trkpt lat="52.189952032640576" lon="13.281869972124696">
        <ele>43.380000000000003</ele>
        <time>2019-06-23T09:43:46Z</time>
      </trkpt>
      <trkpt lat="52.189115015789866" lon="13.283714996650815">
        <ele>45.789999999999999</ele>
        <time>2019-06-23T09:43:53Z</time>
      </trkpt>
      <trkpt lat="52.188385035842657" lon="13.285217033699155">
        <ele>45.789999999999999</ele>
        <time>2019-06-23T09:44:02Z</time>
      </trkpt>
      <trkpt lat="52.187569979578257" lon="13.286847984418273">
        <ele>43.380000000000003</ele>
        <time>2019-06-23T09:44:12Z</time>
      </trkpt>
      <trkpt lat="52.187311984598637" lon="13.287362968549132">
        <ele>41.939999999999998</ele>
        <time>2019-06-23T09:44:15Z</time>
      </trkpt>
      <trkpt lat="52.187268985435367" lon="13.287556003779173">
        <ele>41.460000000000001</ele>
        <time>2019-06-23T09:44:16Z</time>
      </trkpt>
      <trkpt lat="52.187225986272097" lon="13.287749039009213">
        <ele>40.979999999999997</ele>
        <time>2019-06-23T09:44:17Z</time>
      </trkpt>
      <trkpt lat="52.186925997957587" lon="13.290131008252501">
        <ele>41.460000000000001</ele>
        <time>2019-06-23T09:44:29Z</time>
      </trkpt>
      <trkpt lat="52.186861960217357" lon="13.290774989873171">
        <ele>41.939999999999998</ele>
        <time>2019-06-23T09:44:32Z</time>
      </trkpt>
      <trkpt lat="52.186754001304507" lon="13.293286040425301">
        <ele>40.020000000000003</ele>
        <time>2019-06-23T09:44:44Z</time>
      </trkpt>
      <trkpt lat="52.186711002141237" lon="13.295774962753057">
        <ele>38.579999999999998</ele>
        <time>2019-06-23T09:44:54Z</time>
      </trkpt>
      <trkpt lat="52.186646964401007" lon="13.298693038523197">
        <ele>38.100000000000001</ele>
        <time>2019-06-23T09:45:02Z</time>
      </trkpt>
      <trkpt lat="52.186540011316538" lon="13.301417995244265">
        <ele>38.100000000000001</ele>
        <time>2019-06-23T09:45:08Z</time>
      </trkpt>
      <trkpt lat="52.186088981106877" lon="13.304100036621094">
        <ele>38.579999999999998</ele>
        <time>2019-06-23T09:45:15Z</time>
      </trkpt>
      <trkpt lat="52.185831991955638" lon="13.305108966305852">
        <ele>38.579999999999998</ele>
        <time>2019-06-23T09:45:18Z</time>
      </trkpt>
      <trkpt lat="52.185702994465828" lon="13.305409038439393">
        <ele>38.579999999999998</ele>
        <time>2019-06-23T09:45:19Z</time>
      </trkpt>
      <trkpt lat="52.184630027040839" lon="13.307726969942451">
        <ele>38.579999999999998</ele>
        <time>2019-06-23T09:45:28Z</time>
      </trkpt>
      <trkpt lat="52.183235026896" lon="13.310794997960329">
        <ele>38.579999999999998</ele>
        <time>2019-06-23T09:45:41Z</time>
      </trkpt>
      <trkpt lat="52.181798033416271" lon="13.313669990748167">
        <ele>38.100000000000001</ele>
        <time>2019-06-23T09:45:51Z</time>
      </trkpt>
      <trkpt lat="52.181626036763191" lon="13.313906025141478">
        <ele>38.100000000000001</ele>
        <time>2019-06-23T09:45:52Z</time>
      </trkpt>
      <trkpt lat="52.180575029924512" lon="13.315602019429207">
        <ele>38.100000000000001</ele>
        <time>2019-06-23T09:45:58Z</time>
      </trkpt>
      <trkpt lat="52.179973963648081" lon="13.317510997876525">
        <ele>37.140000000000001</ele>
        <time>2019-06-23T09:46:04Z</time>
      </trkpt>
      <trkpt lat="52.179866004735231" lon="13.317768992856145">
        <ele>37.140000000000001</ele>
        <time>2019-06-23T09:46:05Z</time>
      </trkpt>
      <trkpt lat="52.179758967831731" lon="13.318005027249455">
        <ele>37.140000000000001</ele>
        <time>2019-06-23T09:46:06Z</time>
      </trkpt>
      <trkpt lat="52.179652014747262" lon="13.318240977823734">
        <ele>37.140000000000001</ele>
        <time>2019-06-23T09:46:07Z</time>
      </trkpt>
      <trkpt lat="52.179480018094182" lon="13.318326976150274">
        <ele>37.140000000000001</ele>
        <time>2019-06-23T09:46:08Z</time>
      </trkpt>
      <trkpt lat="52.179286982864141" lon="13.318411968648434">
        <ele>37.140000000000001</ele>
        <time>2019-06-23T09:46:09Z</time>
      </trkpt>
      <trkpt lat="52.179094031453133" lon="13.318520011380315">
        <ele>37.140000000000001</ele>
        <time>2019-06-23T09:46:10Z</time>
      </trkpt>
      <trkpt lat="52.177591994404793" lon="13.319185031577945">
        <ele>36.659999999999997</ele>
        <time>2019-06-23T09:46:17Z</time>
      </trkpt>
      <trkpt lat="52.176110995933414" lon="13.320043003186584">
        <ele>36.659999999999997</ele>
        <time>2019-06-23T09:46:24Z</time>
      </trkpt>
      <trkpt lat="52.174330009147525" lon="13.321481002494693">
        <ele>38.579999999999998</ele>
        <time>2019-06-23T09:46:31Z</time>
      </trkpt>
      <trkpt lat="52.172355987131596" lon="13.322960995137691">
        <ele>38.100000000000001</ele>
        <time>2019-06-23T09:46:39Z</time>
      </trkpt>
      <trkpt lat="52.170575000345707" lon="13.323970008641481">
        <ele>35.210000000000001</ele>
        <time>2019-06-23T09:46:47Z</time>
      </trkpt>
      <trkpt lat="52.168386988341808" lon="13.32504297606647">
        <ele>33.289999999999999</ele>
        <time>2019-06-23T09:46:56Z</time>
      </trkpt>
      <trkpt lat="52.16600501909852" lon="13.32562199793756">
        <ele>34.729999999999997</ele>
        <time>2019-06-23T09:47:06Z</time>
      </trkpt>
      <trkpt lat="52.16491000726819" lon="13.32592299208045">
        <ele>37.619999999999997</ele>
        <time>2019-06-23T09:47:13Z</time>
      </trkpt>
      <trkpt lat="52.163665965199471" lon="13.32671700976789">
        <ele>41.939999999999998</ele>
        <time>2019-06-23T09:47:23Z</time>
      </trkpt>
      <trkpt lat="52.162313964217901" lon="13.327746978029609">
        <ele>43.380000000000003</ele>
        <time>2019-06-23T09:47:34Z</time>
      </trkpt>
      <trkpt lat="52.160855010151863" lon="13.329183971509337">
        <ele>40.979999999999997</ele>
        <time>2019-06-23T09:47:47Z</time>
      </trkpt>
      <trkpt lat="52.160769011825323" lon="13.329355968162417">
        <ele>40.979999999999997</ele>
        <time>2019-06-23T09:47:48Z</time>
      </trkpt>
      <trkpt lat="52.160683013498783" lon="13.329549003392458">
        <ele>40.5</ele>
        <time>2019-06-23T09:47:49Z</time>
      </trkpt>
      <trkpt lat="52.160618975758553" lon="13.329763999208808">
        <ele>40.5</ele>
        <time>2019-06-23T09:47:50Z</time>
      </trkpt>
      <trkpt lat="52.160555021837354" lon="13.329977989196777">
        <ele>40.5</ele>
        <time>2019-06-23T09:47:51Z</time>
      </trkpt>
      <trkpt lat="52.159825041890144" lon="13.332595992833376">
        <ele>41.460000000000001</ele>
        <time>2019-06-23T09:48:02Z</time>
      </trkpt>
      <trkpt lat="52.159160021692514" lon="13.335278034210205">
        <ele>44.350000000000001</ele>
        <time>2019-06-23T09:48:14Z</time>
      </trkpt>
      <trkpt lat="52.158816028386354" lon="13.337810039520264">
        <ele>41.939999999999998</ele>
        <time>2019-06-23T09:48:25Z</time>
      </trkpt>
      <trkpt lat="52.158774035051465" lon="13.338025035336614">
        <ele>41.460000000000001</ele>
        <time>2019-06-23T09:48:26Z</time>
      </trkpt>
      <trkpt lat="52.158731035888195" lon="13.338239025324583">
        <ele>41.460000000000001</ele>
        <time>2019-06-23T09:48:27Z</time>
      </trkpt>
      <trkpt lat="52.158645037561655" lon="13.338431976735592">
        <ele>41.939999999999998</ele>
        <time>2019-06-23T09:48:28Z</time>
      </trkpt>
      <trkpt lat="52.158559039235115" lon="13.338603973388672">
        <ele>41.939999999999998</ele>
        <time>2019-06-23T09:48:29Z</time>
      </trkpt>
      <trkpt lat="52.158473040908575" lon="13.338775970041752">
        <ele>41.939999999999998</ele>
        <time>2019-06-23T09:48:30Z</time>
      </trkpt>
      <trkpt lat="52.158386958763003" lon="13.338946960866451">
        <ele>41.939999999999998</ele>
        <time>2019-06-23T09:48:31Z</time>
      </trkpt>
      <trkpt lat="52.157550025731325" lon="13.340557040646672">
        <ele>41.939999999999998</ele>
        <time>2019-06-23T09:48:41Z</time>
      </trkpt>
      <trkpt lat="52.157442988827825" lon="13.340771030634642">
        <ele>41.939999999999998</ele>
        <time>2019-06-23T09:48:43Z</time>
      </trkpt>
      <trkpt lat="52.157399989664555" lon="13.340857028961182">
        <ele>41.460000000000001</ele>
        <time>2019-06-23T09:48:44Z</time>
      </trkpt>
      <trkpt lat="52.157399989664555" lon="13.340943027287722">
        <ele>41.460000000000001</ele>
        <time>2019-06-23T09:48:45Z</time>
      </trkpt>
      <trkpt lat="52.157442988827825" lon="13.341029025614262">
        <ele>40.979999999999997</ele>
        <time>2019-06-23T09:48:46Z</time>
      </trkpt>
      <trkpt lat="52.157508032396436" lon="13.341158023104072">
        <ele>40.979999999999997</ele>
        <time>2019-06-23T09:48:47Z</time>
      </trkpt>
      <trkpt lat="52.157571986317635" lon="13.341286014765501">
        <ele>40.979999999999997</ele>
        <time>2019-06-23T09:48:48Z</time>
      </trkpt>
      <trkpt lat="52.158023016527295" lon="13.342295028269291">
        <ele>40.979999999999997</ele>
        <time>2019-06-23T09:48:55Z</time>
      </trkpt>
      <trkpt lat="52.158086970448494" lon="13.3424879796803">
        <ele>41.460000000000001</ele>
        <time>2019-06-23T09:48:56Z</time>
      </trkpt>
      <trkpt lat="52.158151008188725" lon="13.34268101491034">
        <ele>41.460000000000001</ele>
        <time>2019-06-23T09:48:57Z</time>
      </trkpt>
      <trkpt lat="52.158151008188725" lon="13.34289601072669">
        <ele>41.460000000000001</ele>
        <time>2019-06-23T09:48:58Z</time>
      </trkpt>
      <trkpt lat="52.158172968775034" lon="13.34311000071466">
        <ele>41.460000000000001</ele>
        <time>2019-06-23T09:48:59Z</time>
      </trkpt>
      <trkpt lat="52.158194007351995" lon="13.3433030359447">
        <ele>41.460000000000001</ele>
        <time>2019-06-23T09:49:00Z</time>
      </trkpt>
      <trkpt lat="52.158151008188725" lon="13.344483962282538">
        <ele>41.939999999999998</ele>
        <time>2019-06-23T09:49:06Z</time>
      </trkpt>
      <trkpt lat="52.158129969611764" lon="13.34469803608954">
        <ele>41.939999999999998</ele>
        <time>2019-06-23T09:49:07Z</time>
      </trkpt>
      <trkpt lat="52.158023016527295" lon="13.344847988337278">
        <ele>42.420000000000002</ele>
        <time>2019-06-23T09:49:08Z</time>
      </trkpt>
      <trkpt lat="52.157914973795414" lon="13.345019984990358">
        <ele>42.420000000000002</ele>
        <time>2019-06-23T09:49:09Z</time>
      </trkpt>
      <trkpt lat="52.157828975468874" lon="13.345213020220399">
        <ele>42.420000000000002</ele>
        <time>2019-06-23T09:49:10Z</time>
      </trkpt>
      <trkpt lat="52.156714014708996" lon="13.347402038052678">
        <ele>41.939999999999998</ele>
        <time>2019-06-23T09:49:22Z</time>
      </trkpt>
      <trkpt lat="52.155468966811895" lon="13.349997997283936">
        <ele>39.060000000000002</ele>
        <time>2019-06-23T09:49:35Z</time>
      </trkpt>
      <trkpt lat="52.155082980170846" lon="13.351285960525274">
        <ele>39.060000000000002</ele>
        <time>2019-06-23T09:49:40Z</time>
      </trkpt>
      <trkpt lat="52.154953982681036" lon="13.351543033495545">
        <ele>39.539999999999999</ele>
        <time>2019-06-23T09:49:41Z</time>
      </trkpt>
      <trkpt lat="52.154804030433297" lon="13.351758029311895">
        <ele>39.539999999999999</ele>
        <time>2019-06-23T09:49:42Z</time>
      </trkpt>
      <trkpt lat="52.154610995203257" lon="13.351950980722904">
        <ele>39.539999999999999</ele>
        <time>2019-06-23T09:49:43Z</time>
      </trkpt>
      <trkpt lat="52.154417959973216" lon="13.352164970710874">
        <ele>39.539999999999999</ele>
        <time>2019-06-23T09:49:44Z</time>
      </trkpt>
      <trkpt lat="52.154202964156866" lon="13.352358005940914">
        <ele>39.539999999999999</ele>
        <time>2019-06-23T09:49:45Z</time>
      </trkpt>
      <trkpt lat="52.152444021776319" lon="13.353860964998603">
        <ele>40.020000000000003</ele>
        <time>2019-06-23T09:49:52Z</time>
      </trkpt>
      <trkpt lat="52.149803973734379" lon="13.356134975329041">
        <ele>37.619999999999997</ele>
        <time>2019-06-23T09:50:03Z</time>
      </trkpt>
      <trkpt lat="52.147465003654361" lon="13.358108997344971">
        <ele>36.659999999999997</ele>
        <time>2019-06-23T09:50:14Z</time>
      </trkpt>
      <trkpt lat="52.146435035392642" lon="13.359267963096499">
        <ele>35.689999999999998</ele>
        <time>2019-06-23T09:50:20Z</time>
      </trkpt>
      <trkpt lat="52.145684016868472" lon="13.360232971608639">
        <ele>37.619999999999997</ele>
        <time>2019-06-23T09:50:28Z</time>
      </trkpt>
      <trkpt lat="52.144719008356333" lon="13.361521018669009">
        <ele>41.939999999999998</ele>
        <time>2019-06-23T09:50:38Z</time>
      </trkpt>
      <trkpt lat="52.144010988995433" lon="13.362421989440918">
        <ele>43.380000000000003</ele>
        <time>2019-06-23T09:50:46Z</time>
      </trkpt>
      <trkpt lat="52.142958976328373" lon="13.363753035664558">
        <ele>42.899999999999999</ele>
        <time>2019-06-23T09:50:56Z</time>
      </trkpt>
      <trkpt lat="52.142273001372814" lon="13.364353012293577">
        <ele>44.350000000000001</ele>
        <time>2019-06-23T09:51:03Z</time>
      </trkpt>
      <trkpt lat="52.142230002209544" lon="13.364417972043157">
        <ele>44.829999999999998</ele>
        <time>2019-06-23T09:51:04Z</time>
      </trkpt>
      <trkpt lat="52.142164958640933" lon="13.364503970369697">
        <ele>45.310000000000002</ele>
        <time>2019-06-23T09:51:06Z</time>
      </trkpt>
      <trkpt lat="52.142101004719734" lon="13.364545963704586">
        <ele>45.789999999999999</ele>
        <time>2019-06-23T09:51:07Z</time>
      </trkpt>
      <trkpt lat="52.142058005556464" lon="13.364568008109927">
        <ele>46.270000000000003</ele>
        <time>2019-06-23T09:51:08Z</time>
      </trkpt>
      <trkpt lat="52.141929008066654" lon="13.364631962031126">
        <ele>46.270000000000003</ele>
        <time>2019-06-23T09:51:10Z</time>
      </trkpt>
      <trkpt lat="52.141864970326424" lon="13.364654006436467">
        <ele>46.75</ele>
        <time>2019-06-23T09:51:11Z</time>
      </trkpt>
      <trkpt lat="52.141886008903384" lon="13.364717960357666">
        <ele>46.75</ele>
        <time>2019-06-23T09:51:12Z</time>
      </trkpt>
      <trkpt lat="52.141886008903384" lon="13.364781998097897">
        <ele>46.75</ele>
        <time>2019-06-23T09:51:13Z</time>
      </trkpt>
      <trkpt lat="52.141907969489694" lon="13.364847041666508">
        <ele>46.75</ele>
        <time>2019-06-23T09:51:14Z</time>
      </trkpt>
      <trkpt lat="52.141972007229924" lon="13.364867996424437">
        <ele>46.75</ele>
        <time>2019-06-23T09:51:15Z</time>
      </trkpt>
      <trkpt lat="52.142058005556464" lon="13.364933039993048">
        <ele>46.75</ele>
        <time>2019-06-23T09:51:16Z</time>
      </trkpt>
      <trkpt lat="52.142895022407174" lon="13.365425979718566">
        <ele>47.710000000000001</ele>
        <time>2019-06-23T09:51:23Z</time>
      </trkpt>
      <trkpt lat="52.143775038421154" lon="13.366026962175965">
        <ele>46.270000000000003</ele>
        <time>2019-06-23T09:51:30Z</time>
      </trkpt>
      <trkpt lat="52.143924990668893" lon="13.366155959665775">
        <ele>45.789999999999999</ele>
        <time>2019-06-23T09:51:31Z</time>
      </trkpt>
      <trkpt lat="52.144010988995433" lon="13.366348994895816">
        <ele>45.310000000000002</ele>
        <time>2019-06-23T09:51:32Z</time>
      </trkpt>
      <trkpt lat="52.144118025898933" lon="13.366542030125856">
        <ele>45.310000000000002</ele>
        <time>2019-06-23T09:51:33Z</time>
      </trkpt>
      <trkpt lat="52.144204024225473" lon="13.366757025942206">
        <ele>45.310000000000002</ele>
        <time>2019-06-23T09:51:34Z</time>
      </trkpt>
      <trkpt lat="52.144889999181032" lon="13.368323016911745">
        <ele>44.829999999999998</ele>
        <time>2019-06-23T09:51:42Z</time>
      </trkpt>
      <trkpt lat="52.145962966606021" lon="13.370833983644843">
        <ele>43.869999999999997</ele>
        <time>2019-06-23T09:51:53Z</time>
      </trkpt>
      <trkpt lat="52.146822027862072" lon="13.372851004824042">
        <ele>43.869999999999997</ele>
        <time>2019-06-23T09:51:59Z</time>
      </trkpt>
      <trkpt lat="52.148881964385509" lon="13.377635981887579">
        <ele>43.869999999999997</ele>
        <time>2019-06-23T09:52:14Z</time>
      </trkpt>
      <trkpt lat="52.149803973734379" lon="13.380081988871098">
        <ele>44.829999999999998</ele>
        <time>2019-06-23T09:52:20Z</time>
      </trkpt>
      <trkpt lat="52.151069976389408" lon="13.383622001856565">
        <ele>50.109999999999999</ele>
        <time>2019-06-23T09:52:28Z</time>
      </trkpt>
      <trkpt lat="52.152057029306889" lon="13.386605037376285">
        <ele>54.439999999999998</ele>
        <time>2019-06-23T09:52:36Z</time>
      </trkpt>
      <trkpt lat="52.152959005907178" lon="13.389824023470283">
        <ele>53.479999999999997</ele>
        <time>2019-06-23T09:52:45Z</time>
      </trkpt>
      <trkpt lat="52.154353000223637" lon="13.394994987174869">
        <ele>55.880000000000003</ele>
        <time>2019-06-23T09:52:59Z</time>
      </trkpt>
      <trkpt lat="52.155405012890697" lon="13.399436976760626">
        <ele>55.880000000000003</ele>
        <time>2019-06-23T09:53:11Z</time>
      </trkpt>
      <trkpt lat="52.155726961791515" lon="13.401346039026976">
        <ele>53.479999999999997</ele>
        <time>2019-06-23T09:53:17Z</time>
      </trkpt>
      <trkpt lat="52.156027033925056" lon="13.403405975550413">
        <ele>48.189999999999998</ele>
        <time>2019-06-23T09:53:26Z</time>
      </trkpt>
      <trkpt lat="52.156327022239566" lon="13.405272960662842">
        <ele>45.310000000000002</ele>
        <time>2019-06-23T09:53:37Z</time>
      </trkpt>
      <trkpt lat="52.156370021402836" lon="13.405680991709232">
        <ele>43.380000000000003</ele>
        <time>2019-06-23T09:53:43Z</time>
      </trkpt>
      <trkpt lat="52.156305983662605" lon="13.405766990035772">
        <ele>42.899999999999999</ele>
        <time>2019-06-23T09:53:45Z</time>
      </trkpt>
      <trkpt lat="52.156262984499335" lon="13.405809989199042">
        <ele>42.899999999999999</ele>
        <time>2019-06-23T09:53:46Z</time>
      </trkpt>
      <trkpt lat="52.156070033088326" lon="13.406023979187012">
        <ele>42.899999999999999</ele>
        <time>2019-06-23T09:53:49Z</time>
      </trkpt>
      <trkpt lat="52.156027033925056" lon="13.406089022755623">
        <ele>42.420000000000002</ele>
        <time>2019-06-23T09:53:50Z</time>
      </trkpt>
      <trkpt lat="52.156005995348096" lon="13.406217014417052">
        <ele>42.420000000000002</ele>
        <time>2019-06-23T09:53:51Z</time>
      </trkpt>
      <trkpt lat="52.156027033925056" lon="13.406281974166632">
        <ele>42.420000000000002</ele>
        <time>2019-06-23T09:53:52Z</time>
      </trkpt>
      <trkpt lat="52.156070033088326" lon="13.406409965828061">
        <ele>42.420000000000002</ele>
        <time>2019-06-23T09:53:53Z</time>
      </trkpt>
      <trkpt lat="52.156090987846255" lon="13.406538963317871">
        <ele>41.939999999999998</ele>
        <time>2019-06-23T09:53:54Z</time>
      </trkpt>
      <trkpt lat="52.156156031414866" lon="13.406710959970951">
        <ele>41.939999999999998</ele>
        <time>2019-06-23T09:53:55Z</time>
      </trkpt>
      <trkpt lat="52.156671015545726" lon="13.408621028065681">
        <ele>40.020000000000003</ele>
        <time>2019-06-23T09:54:05Z</time>
      </trkpt>
      <trkpt lat="52.156691970303655" lon="13.408835018053651">
        <ele>39.539999999999999</ele>
        <time>2019-06-23T09:54:06Z</time>
      </trkpt>
      <trkpt lat="52.156714014708996" lon="13.409050013870001">
        <ele>39.539999999999999</ele>
        <time>2019-06-23T09:54:07Z</time>
      </trkpt>
      <trkpt lat="52.156734969466925" lon="13.40952199883759">
        <ele>39.539999999999999</ele>
        <time>2019-06-23T09:54:09Z</time>
      </trkpt>
      <trkpt lat="52.156757013872266" lon="13.409758033230901">
        <ele>39.539999999999999</ele>
        <time>2019-06-23T09:54:10Z</time>
      </trkpt>
      <trkpt lat="52.156820967793465" lon="13.40997202321887">
        <ele>39.539999999999999</ele>
        <time>2019-06-23T09:54:11Z</time>
      </trkpt>
      <trkpt lat="52.156863966956735" lon="13.410207973793149">
        <ele>39.539999999999999</ele>
        <time>2019-06-23T09:54:12Z</time>
      </trkpt>
      <trkpt lat="52.156928004696965" lon="13.410422969609499">
        <ele>39.060000000000002</ele>
        <time>2019-06-23T09:54:13Z</time>
      </trkpt>
      <trkpt lat="52.157014003023505" lon="13.410594966262579">
        <ele>39.060000000000002</ele>
        <time>2019-06-23T09:54:14Z</time>
      </trkpt>
      <trkpt lat="52.157121039927006" lon="13.41078800149262">
        <ele>39.060000000000002</ele>
        <time>2019-06-23T09:54:15Z</time>
      </trkpt>
      <trkpt lat="52.157207038253546" lon="13.411001991480589">
        <ele>38.579999999999998</ele>
        <time>2019-06-23T09:54:16Z</time>
      </trkpt>
      <trkpt lat="52.157422034069896" lon="13.411453021690249">
        <ele>38.100000000000001</ele>
        <time>2019-06-23T09:54:18Z</time>
      </trkpt>
      <trkpt lat="52.157528987154365" lon="13.411731971427798">
        <ele>38.100000000000001</ele>
        <time>2019-06-23T09:54:19Z</time>
      </trkpt>
      <trkpt lat="52.157614985480905" lon="13.412074958905578">
        <ele>37.619999999999997</ele>
        <time>2019-06-23T09:54:20Z</time>
      </trkpt>
      <trkpt lat="52.158194007351995" lon="13.414200022816658">
        <ele>39.060000000000002</ele>
        <time>2019-06-23T09:54:27Z</time>
      </trkpt>
      <trkpt lat="52.158343959599733" lon="13.414714001119137">
        <ele>39.539999999999999</ele>
        <time>2019-06-23T09:54:29Z</time>
      </trkpt>
      <trkpt lat="52.158452002331614" lon="13.414951041340828">
        <ele>40.020000000000003</ele>
        <time>2019-06-23T09:54:30Z</time>
      </trkpt>
      <trkpt lat="52.159481970593333" lon="13.417204013094306">
        <ele>40.5</ele>
        <time>2019-06-23T09:54:39Z</time>
      </trkpt>
      <trkpt lat="52.160875964909792" lon="13.420487036928535">
        <ele>39.060000000000002</ele>
        <time>2019-06-23T09:54:51Z</time>
      </trkpt>
      <trkpt lat="52.161520030349493" lon="13.422225024551153">
        <ele>39.539999999999999</ele>
        <time>2019-06-23T09:54:57Z</time>
      </trkpt>
      <trkpt lat="52.161669982597232" lon="13.422783007845283">
        <ele>39.539999999999999</ele>
        <time>2019-06-23T09:54:59Z</time>
      </trkpt>
      <trkpt lat="52.161692027002573" lon="13.423082996159792">
        <ele>39.539999999999999</ele>
        <time>2019-06-23T09:55:00Z</time>
      </trkpt>
      <trkpt lat="52.161735026165843" lon="13.423405028879642">
        <ele>39.539999999999999</ele>
        <time>2019-06-23T09:55:01Z</time>
      </trkpt>
      <trkpt lat="52.161669982597232" lon="13.423705017194152">
        <ele>39.060000000000002</ele>
        <time>2019-06-23T09:55:02Z</time>
      </trkpt>
      <trkpt lat="52.161606028676033" lon="13.424006011337042">
        <ele>39.539999999999999</ele>
        <time>2019-06-23T09:55:03Z</time>
      </trkpt>
      <trkpt lat="52.161520030349493" lon="13.424263000488281">
        <ele>39.539999999999999</ele>
        <time>2019-06-23T09:55:04Z</time>
      </trkpt>
      <trkpt lat="52.161391032859683" lon="13.424520995467901">
        <ele>39.060000000000002</ele>
        <time>2019-06-23T09:55:05Z</time>
      </trkpt>
      <trkpt lat="52.161240996792912" lon="13.424777984619141">
        <ele>39.060000000000002</ele>
        <time>2019-06-23T09:55:06Z</time>
      </trkpt>
      <trkpt lat="52.159974994137883" lon="13.42679500579834">
        <ele>38.579999999999998</ele>
        <time>2019-06-23T09:55:14Z</time>
      </trkpt>
      <trkpt lat="52.159845996648073" lon="13.42701000161469">
        <ele>38.579999999999998</ele>
        <time>2019-06-23T09:55:15Z</time>
      </trkpt>
      <trkpt lat="52.159738959744573" lon="13.427266990765929">
        <ele>38.100000000000001</ele>
        <time>2019-06-23T09:55:16Z</time>
      </trkpt>
      <trkpt lat="52.159652961418033" lon="13.427567984908819">
        <ele>38.100000000000001</ele>
        <time>2019-06-23T09:55:17Z</time>
      </trkpt>
      <trkpt lat="52.159223975613713" lon="13.429841995239258">
        <ele>39.060000000000002</ele>
        <time>2019-06-23T09:55:23Z</time>
      </trkpt>
      <trkpt lat="52.158665992319584" lon="13.433060981333256">
        <ele>39.539999999999999</ele>
        <time>2019-06-23T09:55:32Z</time>
      </trkpt>
      <trkpt lat="52.158495001494884" lon="13.435400035232306">
        <ele>40.020000000000003</ele>
        <time>2019-06-23T09:55:37Z</time>
      </trkpt>
      <trkpt lat="52.158300960436463" lon="13.438232028856874">
        <ele>40.020000000000003</ele>
        <time>2019-06-23T09:55:44Z</time>
      </trkpt>
      <trkpt lat="52.158000972121954" lon="13.442288031801581">
        <ele>39.539999999999999</ele>
        <time>2019-06-23T09:55:56Z</time>
      </trkpt>
      <trkpt lat="52.158000972121954" lon="13.443253040313721">
        <ele>39.539999999999999</ele>
        <time>2019-06-23T09:55:59Z</time>
      </trkpt>
      <trkpt lat="52.158000972121954" lon="13.44361798837781">
        <ele>39.539999999999999</ele>
        <time>2019-06-23T09:56:00Z</time>
      </trkpt>
      <trkpt lat="52.158300960436463" lon="13.446020996198058">
        <ele>39.539999999999999</ele>
        <time>2019-06-23T09:56:06Z</time>
      </trkpt>
      <trkpt lat="52.158473040908575" lon="13.447715984657407">
        <ele>39.539999999999999</ele>
        <time>2019-06-23T09:56:11Z</time>
      </trkpt>
      <trkpt lat="52.158473040908575" lon="13.448081016540527">
        <ele>39.539999999999999</ele>
        <time>2019-06-23T09:56:12Z</time>
      </trkpt>
      <trkpt lat="52.158323004841805" lon="13.450376987457275">
        <ele>38.100000000000001</ele>
        <time>2019-06-23T09:56:19Z</time>
      </trkpt>
      <trkpt lat="52.158366004005075" lon="13.450656021013856">
        <ele>38.100000000000001</ele>
        <time>2019-06-23T09:56:20Z</time>
      </trkpt>
      <trkpt lat="52.158452002331614" lon="13.450934970751405">
        <ele>38.100000000000001</ele>
        <time>2019-06-23T09:56:21Z</time>
      </trkpt>
      <trkpt lat="52.158645037561655" lon="13.451728988438845">
        <ele>38.100000000000001</ele>
        <time>2019-06-23T09:56:24Z</time>
      </trkpt>
      <trkpt lat="52.158665992319584" lon="13.451985977590084">
        <ele>38.579999999999998</ele>
        <time>2019-06-23T09:56:25Z</time>
      </trkpt>
      <trkpt lat="52.158665992319584" lon="13.452200973406434">
        <ele>38.579999999999998</ele>
        <time>2019-06-23T09:56:26Z</time>
      </trkpt>
      <trkpt lat="52.158665992319584" lon="13.452437007799745">
        <ele>39.060000000000002</ele>
        <time>2019-06-23T09:56:27Z</time>
      </trkpt>
      <trkpt lat="52.158688036724925" lon="13.452629959210753">
        <ele>39.060000000000002</ele>
        <time>2019-06-23T09:56:28Z</time>
      </trkpt>
      <trkpt lat="52.158816028386354" lon="13.454669024795294">
        <ele>38.100000000000001</ele>
        <time>2019-06-23T09:56:39Z</time>
      </trkpt>
      <trkpt lat="52.158945025876164" lon="13.455569995567203">
        <ele>38.100000000000001</ele>
        <time>2019-06-23T09:56:44Z</time>
      </trkpt>
      <trkpt lat="52.158988025039434" lon="13.455741992220283">
        <ele>38.579999999999998</ele>
        <time>2019-06-23T09:56:45Z</time>
      </trkpt>
      <trkpt lat="52.159052984789014" lon="13.455892028287053">
        <ele>38.579999999999998</ele>
        <time>2019-06-23T09:56:46Z</time>
      </trkpt>
      <trkpt lat="52.159117022529244" lon="13.456063019111753">
        <ele>38.579999999999998</ele>
        <time>2019-06-23T09:56:47Z</time>
      </trkpt>
      <trkpt lat="52.159180976450443" lon="13.456213977187872">
        <ele>38.579999999999998</ele>
        <time>2019-06-23T09:56:48Z</time>
      </trkpt>
      <trkpt lat="52.159395972266793" lon="13.456749999895692">
        <ele>38.579999999999998</ele>
        <time>2019-06-23T09:56:51Z</time>
      </trkpt>
      <trkpt lat="52.159438971430063" lon="13.456943035125732">
        <ele>38.579999999999998</ele>
        <time>2019-06-23T09:56:52Z</time>
      </trkpt>
      <trkpt lat="52.159481970593333" lon="13.457158030942082">
        <ele>38.579999999999998</ele>
        <time>2019-06-23T09:56:53Z</time>
      </trkpt>
      <trkpt lat="52.159503009170294" lon="13.457329021766782">
        <ele>38.579999999999998</ele>
        <time>2019-06-23T09:56:54Z</time>
      </trkpt>
      <trkpt lat="52.159503009170294" lon="13.457564972341061">
        <ele>38.100000000000001</ele>
        <time>2019-06-23T09:56:55Z</time>
      </trkpt>
      <trkpt lat="52.159524969756603" lon="13.459432041272521">
        <ele>38.100000000000001</ele>
        <time>2019-06-23T09:57:04Z</time>
      </trkpt>
      <trkpt lat="52.159566963091493" lon="13.45958199352026">
        <ele>38.100000000000001</ele>
        <time>2019-06-23T09:57:05Z</time>
      </trkpt>
      <trkpt lat="52.159652961418033" lon="13.459690036252141">
        <ele>37.619999999999997</ele>
        <time>2019-06-23T09:57:06Z</time>
      </trkpt>
      <trkpt lat="52.159761004149914" lon="13.45983998849988">
        <ele>37.619999999999997</ele>
        <time>2019-06-23T09:57:07Z</time>
      </trkpt>
      <trkpt lat="52.159868041053414" lon="13.45999002456665">
        <ele>37.619999999999997</ele>
        <time>2019-06-23T09:57:08Z</time>
      </trkpt>
      <trkpt lat="52.160168029367924" lon="13.46046200953424">
        <ele>38.579999999999998</ele>
        <time>2019-06-23T09:57:11Z</time>
      </trkpt>
      <trkpt lat="52.160232989117503" lon="13.460654960945249">
        <ele>38.579999999999998</ele>
        <time>2019-06-23T09:57:12Z</time>
      </trkpt>
      <trkpt lat="52.160275988280773" lon="13.46087004058063">
        <ele>38.579999999999998</ele>
        <time>2019-06-23T09:57:13Z</time>
      </trkpt>
      <trkpt lat="52.160318987444043" lon="13.46108503639698">
        <ele>39.060000000000002</ele>
        <time>2019-06-23T09:57:14Z</time>
      </trkpt>
      <trkpt lat="52.160340026021004" lon="13.46129902638495">
        <ele>38.579999999999998</ele>
        <time>2019-06-23T09:57:15Z</time>
      </trkpt>
      <trkpt lat="52.160469023510814" lon="13.462414992973208">
        <ele>39.060000000000002</ele>
        <time>2019-06-23T09:57:21Z</time>
      </trkpt>
      <trkpt lat="52.160532977432013" lon="13.462565029039979">
        <ele>38.579999999999998</ele>
        <time>2019-06-23T09:57:22Z</time>
      </trkpt>
      <trkpt lat="52.160597015172243" lon="13.462694026529789">
        <ele>38.579999999999998</ele>
        <time>2019-06-23T09:57:23Z</time>
      </trkpt>
      <trkpt lat="52.160683013498783" lon="13.462800979614258">
        <ele>38.100000000000001</ele>
        <time>2019-06-23T09:57:24Z</time>
      </trkpt>
      <trkpt lat="52.160769011825323" lon="13.462886977940798">
        <ele>38.100000000000001</ele>
        <time>2019-06-23T09:57:25Z</time>
      </trkpt>
      <trkpt lat="52.160898009315133" lon="13.463080013170838">
        <ele>37.619999999999997</ele>
        <time>2019-06-23T09:57:27Z</time>
      </trkpt>
      <trkpt lat="52.160961963236332" lon="13.463166011497378">
        <ele>37.619999999999997</ele>
        <time>2019-06-23T09:57:28Z</time>
      </trkpt>
      <trkpt lat="52.160984007641673" lon="13.463295008987188">
        <ele>37.619999999999997</ele>
        <time>2019-06-23T09:57:29Z</time>
      </trkpt>
      <trkpt lat="52.160984007641673" lon="13.463401962071657">
        <ele>38.100000000000001</ele>
        <time>2019-06-23T09:57:30Z</time>
      </trkpt>
      <trkpt lat="52.160984007641673" lon="13.463508998975158">
        <ele>38.579999999999998</ele>
        <time>2019-06-23T09:57:31Z</time>
      </trkpt>
      <trkpt lat="52.160984007641673" lon="13.463788032531738">
        <ele>39.060000000000002</ele>
        <time>2019-06-23T09:57:33Z</time>
      </trkpt>
      <trkpt lat="52.161027006804943" lon="13.463917030021548">
        <ele>39.539999999999999</ele>
        <time>2019-06-23T09:57:34Z</time>
      </trkpt>
      <trkpt lat="52.161434032022953" lon="13.465355029329658">
        <ele>41.939999999999998</ele>
        <time>2019-06-23T09:57:42Z</time>
      </trkpt>
      <trkpt lat="52.162207011133432" lon="13.468144023790956">
        <ele>46.75</ele>
        <time>2019-06-23T09:57:57Z</time>
      </trkpt>
      <trkpt lat="52.162313964217901" lon="13.468637969344854">
        <ele>47.710000000000001</ele>
        <time>2019-06-23T09:57:59Z</time>
      </trkpt>
      <trkpt lat="52.162635996937752" lon="13.470891024917364">
        <ele>49.149999999999999</ele>
        <time>2019-06-23T09:58:08Z</time>
      </trkpt>
      <trkpt lat="52.162935985252261" lon="13.472778964787722">
        <ele>50.590000000000003</ele>
        <time>2019-06-23T09:58:17Z</time>
      </trkpt>
      <trkpt lat="52.163044027984142" lon="13.473829971626401">
        <ele>50.590000000000003</ele>
        <time>2019-06-23T09:58:26Z</time>
      </trkpt>
      <trkpt lat="52.163064982742071" lon="13.474044967442751">
        <ele>50.590000000000003</ele>
        <time>2019-06-23T09:58:48Z</time>
      </trkpt>
      <trkpt lat="52.163107981905341" lon="13.474302040413022">
        <ele>51.079999999999998</ele>
        <time>2019-06-23T09:58:50Z</time>
      </trkpt>
      <trkpt lat="52.163344016298652" lon="13.47556795924902">
        <ele>51.079999999999998</ele>
        <time>2019-06-23T09:58:57Z</time>
      </trkpt>
      <trkpt lat="52.163794962689281" lon="13.477885974571109">
        <ele>53</ele>
        <time>2019-06-23T09:59:08Z</time>
      </trkpt>
      <trkpt lat="52.16424498707056" lon="13.480202984064817">
        <ele>54.439999999999998</ele>
        <time>2019-06-23T09:59:19Z</time>
      </trkpt>
      <trkpt lat="52.16463097371161" lon="13.482241965830326">
        <ele>56.840000000000003</ele>
        <time>2019-06-23T09:59:29Z</time>
      </trkpt>
      <trkpt lat="52.164868013933301" lon="13.483529007062316">
        <ele>57.799999999999997</ele>
        <time>2019-06-23T09:59:37Z</time>
      </trkpt>
      <trkpt lat="52.16516800224781" lon="13.485053004696965">
        <ele>57.32</ele>
        <time>2019-06-23T09:59:45Z</time>
      </trkpt>
      <trkpt lat="52.165576033294201" lon="13.487027026712894">
        <ele>59.729999999999997</ele>
        <time>2019-06-23T09:59:54Z</time>
      </trkpt>
      <trkpt lat="52.16609101742506" lon="13.489773022010922">
        <ele>62.609999999999999</ele>
        <time>2019-06-23T10:00:03Z</time>
      </trkpt>
      <trkpt lat="52.16660600155592" lon="13.4924559853971">
        <ele>65.980000000000004</ele>
        <time>2019-06-23T10:00:11Z</time>
      </trkpt>
      <trkpt lat="52.167463973164558" lon="13.496811976656318">
        <ele>71.260000000000005</ele>
        <time>2019-06-23T10:00:23Z</time>
      </trkpt>
      <trkpt lat="52.168193031102419" lon="13.500889018177986">
        <ele>74.150000000000006</ele>
        <time>2019-06-23T10:00:33Z</time>
      </trkpt>
      <trkpt lat="52.168966010212898" lon="13.505480038002133">
        <ele>76.069999999999993</ele>
        <time>2019-06-23T10:00:44Z</time>
      </trkpt>
      <trkpt lat="52.169265998527408" lon="13.507840968668461">
        <ele>78.469999999999999</ele>
        <time>2019-06-23T10:00:50Z</time>
      </trkpt>
      <trkpt lat="52.169351996853948" lon="13.508419990539551">
        <ele>79.909999999999997</ele>
        <time>2019-06-23T10:00:52Z</time>
      </trkpt>
      <trkpt lat="52.169351996853948" lon="13.508699024096131">
        <ele>80.400000000000006</ele>
        <time>2019-06-23T10:00:53Z</time>
      </trkpt>
      <trkpt lat="52.169351996853948" lon="13.508957019075751">
        <ele>80.879999999999995</ele>
        <time>2019-06-23T10:00:54Z</time>
      </trkpt>
      <trkpt lat="52.169244959950447" lon="13.510180022567511">
        <ele>81.840000000000003</ele>
        <time>2019-06-23T10:00:59Z</time>
      </trkpt>
      <trkpt lat="52.169244959950447" lon="13.510715961456299">
        <ele>82.319999999999993</ele>
        <time>2019-06-23T10:01:01Z</time>
      </trkpt>
      <trkpt lat="52.169308997690678" lon="13.51127402856946">
        <ele>82.799999999999997</ele>
        <time>2019-06-23T10:01:03Z</time>
      </trkpt>
      <trkpt lat="52.169308997690678" lon="13.511552978307009">
        <ele>82.799999999999997</ele>
        <time>2019-06-23T10:01:04Z</time>
      </trkpt>
      <trkpt lat="52.169287959113717" lon="13.513912986963987">
        <ele>83.280000000000001</ele>
        <time>2019-06-23T10:01:12Z</time>
      </trkpt>
      <trkpt lat="52.169265998527408" lon="13.514579012989998">
        <ele>83.760000000000005</ele>
        <time>2019-06-23T10:01:15Z</time>
      </trkpt>
      <trkpt lat="52.169201960787177" lon="13.514771964401007">
        <ele>84.239999999999995</ele>
        <time>2019-06-23T10:01:16Z</time>
      </trkpt>
      <trkpt lat="52.169095007702708" lon="13.514964999631047">
        <ele>84.719999999999999</ele>
        <time>2019-06-23T10:01:17Z</time>
      </trkpt>
      <trkpt lat="52.167935958132148" lon="13.516959976404905">
        <ele>90.969999999999999</ele>
        <time>2019-06-23T10:01:26Z</time>
      </trkpt>
      <trkpt lat="52.166497958824039" lon="13.519428027793765">
        <ele>94.329999999999998</ele>
        <time>2019-06-23T10:01:36Z</time>
      </trkpt>
      <trkpt lat="52.165533034130931" lon="13.521487964317203">
        <ele>93.849999999999994</ele>
        <time>2019-06-23T10:01:44Z</time>
      </trkpt>
      <trkpt lat="52.16471697203815" lon="13.524191966280341">
        <ele>89.530000000000001</ele>
        <time>2019-06-23T10:01:51Z</time>
      </trkpt>
      <trkpt lat="52.163987997919321" lon="13.52655197493732">
        <ele>82.319999999999993</ele>
        <time>2019-06-23T10:01:58Z</time>
      </trkpt>
      <trkpt lat="52.163258017972112" lon="13.528354000300169">
        <ele>76.069999999999993</ele>
        <time>2019-06-23T10:02:04Z</time>
      </trkpt>
      <trkpt lat="52.163064982742071" lon="13.52863303385675">
        <ele>74.629999999999995</ele>
        <time>2019-06-23T10:02:05Z</time>
      </trkpt>
      <trkpt lat="52.161391032859683" lon="13.531165039166808">
        <ele>63.090000000000003</ele>
        <time>2019-06-23T10:02:14Z</time>
      </trkpt>
      <trkpt lat="52.160383025184274" lon="13.532646037638187">
        <ele>55.880000000000003</ele>
        <time>2019-06-23T10:02:21Z</time>
      </trkpt>
      <trkpt lat="52.160254027694464" lon="13.532881988212466">
        <ele>54.920000000000002</ele>
        <time>2019-06-23T10:02:22Z</time>
      </trkpt>
      <trkpt lat="52.160211028531194" lon="13.533095978200436">
        <ele>53.479999999999997</ele>
        <time>2019-06-23T10:02:23Z</time>
      </trkpt>
      <trkpt lat="52.160232989117503" lon="13.533353973180056">
        <ele>52.520000000000003</ele>
        <time>2019-06-23T10:02:24Z</time>
      </trkpt>
      <trkpt lat="52.160254027694464" lon="13.533590007573366">
        <ele>51.560000000000002</ele>
        <time>2019-06-23T10:02:25Z</time>
      </trkpt>
      <trkpt lat="52.160318987444043" lon="13.533869041129947">
        <ele>50.590000000000003</ele>
        <time>2019-06-23T10:02:26Z</time>
      </trkpt>
      <trkpt lat="52.160446979105473" lon="13.534169029444456">
        <ele>49.630000000000003</ele>
        <time>2019-06-23T10:02:27Z</time>
      </trkpt>
      <trkpt lat="52.161455992609262" lon="13.536400962620974">
        <ele>44.350000000000001</ele>
        <time>2019-06-23T10:02:34Z</time>
      </trkpt>
      <trkpt lat="52.163064982742071" lon="13.539963020011783">
        <ele>40.979999999999997</ele>
        <time>2019-06-23T10:02:46Z</time>
      </trkpt>
      <trkpt lat="52.164438022300601" lon="13.542967010289431">
        <ele>43.380000000000003</ele>
        <time>2019-06-23T10:02:55Z</time>
      </trkpt>
      <trkpt lat="52.16583302244544" lon="13.546336032450199">
        <ele>43.869999999999997</ele>
        <time>2019-06-23T10:03:05Z</time>
      </trkpt>
      <trkpt lat="52.16664900071919" lon="13.548845993354917">
        <ele>43.869999999999997</ele>
        <time>2019-06-23T10:03:12Z</time>
      </trkpt>
      <trkpt lat="52.167205978184938" lon="13.551250007003546">
        <ele>44.829999999999998</ele>
        <time>2019-06-23T10:03:18Z</time>
      </trkpt>
      <trkpt lat="52.167935958132148" lon="13.554704021662474">
        <ele>45.310000000000002</ele>
        <time>2019-06-23T10:03:26Z</time>
      </trkpt>
      <trkpt lat="52.168557979166508" lon="13.55798696167767">
        <ele>44.829999999999998</ele>
        <time>2019-06-23T10:03:34Z</time>
      </trkpt>
      <trkpt lat="52.168729975819588" lon="13.56026197783649">
        <ele>44.350000000000001</ele>
        <time>2019-06-23T10:03:41Z</time>
      </trkpt>
      <trkpt lat="52.168794013559818" lon="13.561226986348629">
        <ele>44.350000000000001</ele>
        <time>2019-06-23T10:03:46Z</time>
      </trkpt>
      <trkpt lat="52.168794013559818" lon="13.56133502908051">
        <ele>43.869999999999997</ele>
        <time>2019-06-23T10:03:47Z</time>
      </trkpt>
      <trkpt lat="52.168729975819588" lon="13.561527980491519">
        <ele>43.869999999999997</ele>
        <time>2019-06-23T10:03:48Z</time>
      </trkpt>
      <trkpt lat="52.168686976656318" lon="13.561527980491519">
        <ele>43.869999999999997</ele>
        <time>2019-06-23T10:03:49Z</time>
      </trkpt>
      <trkpt lat="52.168643977493048" lon="13.56154901906848">
        <ele>43.869999999999997</ele>
        <time>2019-06-23T10:03:50Z</time>
      </trkpt>
      <trkpt lat="52.168600978329778" lon="13.56154901906848">
        <ele>43.869999999999997</ele>
        <time>2019-06-23T10:03:51Z</time>
      </trkpt>
      <trkpt lat="52.168514980003238" lon="13.56154901906848">
        <ele>43.380000000000003</ele>
        <time>2019-06-23T10:03:54Z</time>
      </trkpt>
      <trkpt lat="52.168514980003238" lon="13.56154901906848">
        <ele>43.380000000000003</ele>
        <time>2019-06-23T10:03:56Z</time>
      </trkpt>
      <trkpt lat="52.168537024408579" lon="13.561741970479488">
        <ele>43.380000000000003</ele>
        <time>2019-06-23T10:03:59Z</time>
      </trkpt>
      <trkpt lat="52.168580023571849" lon="13.561784969642758">
        <ele>43.380000000000003</ele>
        <time>2019-06-23T10:04:11Z</time>
      </trkpt>
      <trkpt lat="52.168514980003238" lon="13.561870967969298">
        <ele>35.689999999999998</ele>
        <time>2019-06-23T10:28:24Z</time>
      </trkpt>
      <trkpt lat="52.168643977493048" lon="13.5618070140481">
        <ele>57.32</ele>
        <time>2019-06-23T10:28:33Z</time>
      </trkpt>
      <trkpt lat="52.168815974146128" lon="13.561527980491519">
        <ele>56.840000000000003</ele>
        <time>2019-06-23T10:28:36Z</time>
      </trkpt>
      <trkpt lat="52.168815974146128" lon="13.561527980491519">
        <ele>55.880000000000003</ele>
        <time>2019-06-23T10:28:37Z</time>
      </trkpt>
      <trkpt lat="52.168623022735119" lon="13.56154901906848">
        <ele>55.399999999999999</ele>
        <time>2019-06-23T10:28:38Z</time>
      </trkpt>
      <trkpt lat="52.168600978329778" lon="13.56154901906848">
        <ele>54.920000000000002</ele>
        <time>2019-06-23T10:28:39Z</time>
      </trkpt>
      <trkpt lat="52.168815974146128" lon="13.561527980491519">
        <ele>54.439999999999998</ele>
        <time>2019-06-23T10:28:40Z</time>
      </trkpt>
      <trkpt lat="52.168815974146128" lon="13.561484981328249">
        <ele>53</ele>
        <time>2019-06-23T10:28:41Z</time>
      </trkpt>
      <trkpt lat="52.168666021898389" lon="13.56154901906848">
        <ele>49.630000000000003</ele>
        <time>2019-06-23T10:28:49Z</time>
      </trkpt>
      <trkpt lat="52.168708015233278" lon="13.561527980491519">
        <ele>48.670000000000002</ele>
        <time>2019-06-23T10:28:52Z</time>
      </trkpt>
      <trkpt lat="52.168751014396548" lon="13.561527980491519">
        <ele>48.670000000000002</ele>
        <time>2019-06-23T10:28:53Z</time>
      </trkpt>
      <trkpt lat="52.168815974146128" lon="13.561613978818059">
        <ele>48.670000000000002</ele>
        <time>2019-06-23T10:28:54Z</time>
      </trkpt>
      <trkpt lat="52.168837012723088" lon="13.56172101572156">
        <ele>48.670000000000002</ele>
        <time>2019-06-23T10:28:55Z</time>
      </trkpt>
      <trkpt lat="52.168858973309398" lon="13.56189301237464">
        <ele>48.670000000000002</ele>
        <time>2019-06-23T10:28:56Z</time>
      </trkpt>
      <trkpt lat="52.168880011886358" lon="13.562128962948918">
        <ele>48.189999999999998</ele>
        <time>2019-06-23T10:28:57Z</time>
      </trkpt>
      <trkpt lat="52.168880011886358" lon="13.562386035919189">
        <ele>47.710000000000001</ele>
        <time>2019-06-23T10:28:58Z</time>
      </trkpt>
      <trkpt lat="52.168901972472668" lon="13.562644030898809">
        <ele>47.710000000000001</ele>
        <time>2019-06-23T10:28:59Z</time>
      </trkpt>
      <trkpt lat="52.169052008539438" lon="13.564725005999207">
        <ele>45.310000000000002</ele>
        <time>2019-06-23T10:29:07Z</time>
      </trkpt>
      <trkpt lat="52.169374041259289" lon="13.567043021321297">
        <ele>45.310000000000002</ele>
        <time>2019-06-23T10:29:15Z</time>
      </trkpt>
      <trkpt lat="52.169803027063608" lon="13.569895969703794">
        <ele>44.350000000000001</ele>
        <time>2019-06-23T10:29:23Z</time>
      </trkpt>
      <trkpt lat="52.170189013704658" lon="13.572450019419193">
        <ele>43.869999999999997</ele>
        <time>2019-06-23T10:29:29Z</time>
      </trkpt>
      <trkpt lat="52.170489002019167" lon="13.574444996193051">
        <ele>43.869999999999997</ele>
        <time>2019-06-23T10:29:36Z</time>
      </trkpt>
      <trkpt lat="52.170725036412477" lon="13.576097991317511">
        <ele>42.899999999999999</ele>
        <time>2019-06-23T10:29:44Z</time>
      </trkpt>
      <trkpt lat="52.170811034739017" lon="13.576548015698791">
        <ele>41.939999999999998</ele>
        <time>2019-06-23T10:29:47Z</time>
      </trkpt>
      <trkpt lat="52.170832995325327" lon="13.576677013188601">
        <ele>41.939999999999998</ele>
        <time>2019-06-23T10:29:48Z</time>
      </trkpt>
      <trkpt lat="52.170789996162057" lon="13.576826965436339">
        <ele>41.460000000000001</ele>
        <time>2019-06-23T10:29:49Z</time>
      </trkpt>
      <trkpt lat="52.170746996998787" lon="13.576912963762879">
        <ele>41.460000000000001</ele>
        <time>2019-06-23T10:29:50Z</time>
      </trkpt>
      <trkpt lat="52.170703997835517" lon="13.576955962926149">
        <ele>40.979999999999997</ele>
        <time>2019-06-23T10:29:51Z</time>
      </trkpt>
      <trkpt lat="52.170682959258556" lon="13.57702000066638">
        <ele>41.460000000000001</ele>
        <time>2019-06-23T10:29:52Z</time>
      </trkpt>
      <trkpt lat="52.170532001182437" lon="13.57719199731946">
        <ele>41.939999999999998</ele>
        <time>2019-06-23T10:29:56Z</time>
      </trkpt>
      <trkpt lat="52.170467963442206" lon="13.57721303589642">
        <ele>41.460000000000001</ele>
        <time>2019-06-23T10:29:57Z</time>
      </trkpt>
      <trkpt lat="52.170361010357738" lon="13.57723499648273">
        <ele>41.460000000000001</ele>
        <time>2019-06-23T10:29:58Z</time>
      </trkpt>
      <trkpt lat="52.169480994343758" lon="13.577277995646">
        <ele>40.5</ele>
        <time>2019-06-23T10:30:05Z</time>
      </trkpt>
      <trkpt lat="52.167956996709108" lon="13.57706299982965">
        <ele>39.539999999999999</ele>
        <time>2019-06-23T10:30:16Z</time>
      </trkpt>
      <trkpt lat="52.16664900071919" lon="13.576505016535521">
        <ele>38.100000000000001</ele>
        <time>2019-06-23T10:30:25Z</time>
      </trkpt>
      <trkpt lat="52.16525400057435" lon="13.575947033241391">
        <ele>38.100000000000001</ele>
        <time>2019-06-23T10:30:35Z</time>
      </trkpt>
      <trkpt lat="52.16508200392127" lon="13.575905039906502">
        <ele>38.579999999999998</ele>
        <time>2019-06-23T10:30:36Z</time>
      </trkpt>
      <trkpt lat="52.16491000726819" lon="13.575882995501161">
        <ele>38.579999999999998</ele>
        <time>2019-06-23T10:30:37Z</time>
      </trkpt>
      <trkpt lat="52.16471697203815" lon="13.575947033241391">
        <ele>38.579999999999998</ele>
        <time>2019-06-23T10:30:38Z</time>
      </trkpt>
      <trkpt lat="52.164524020627141" lon="13.576033031567931">
        <ele>39.060000000000002</ele>
        <time>2019-06-23T10:30:39Z</time>
      </trkpt>
      <trkpt lat="52.1643309853971" lon="13.576097991317511">
        <ele>39.060000000000002</ele>
        <time>2019-06-23T10:30:40Z</time>
      </trkpt>
      <trkpt lat="52.163579966872931" lon="13.57639797963202">
        <ele>39.060000000000002</ele>
        <time>2019-06-23T10:30:44Z</time>
      </trkpt>
      <trkpt lat="52.163407970219851" lon="13.576548015698791">
        <ele>39.060000000000002</ele>
        <time>2019-06-23T10:30:45Z</time>
      </trkpt>
      <trkpt lat="52.163236979395151" lon="13.576740967109799">
        <ele>38.579999999999998</ele>
        <time>2019-06-23T10:30:46Z</time>
      </trkpt>
      <trkpt lat="52.163087027147412" lon="13.576998962089419">
        <ele>38.100000000000001</ele>
        <time>2019-06-23T10:30:47Z</time>
      </trkpt>
      <trkpt lat="52.162935985252261" lon="13.577277995646">
        <ele>38.100000000000001</ele>
        <time>2019-06-23T10:30:48Z</time>
      </trkpt>
      <trkpt lat="52.162829032167792" lon="13.577620983123779">
        <ele>37.619999999999997</ele>
        <time>2019-06-23T10:30:49Z</time>
      </trkpt>
      <trkpt lat="52.162721995264292" lon="13.5779860150069">
        <ele>37.140000000000001</ele>
        <time>2019-06-23T10:30:50Z</time>
      </trkpt>
      <trkpt lat="52.162635996937752" lon="13.578350963070989">
        <ele>37.140000000000001</ele>
        <time>2019-06-23T10:30:51Z</time>
      </trkpt>
      <trkpt lat="52.162549998611212" lon="13.57873703353107">
        <ele>37.140000000000001</ele>
        <time>2019-06-23T10:30:52Z</time>
      </trkpt>
      <trkpt lat="52.161884978413582" lon="13.581698024645448">
        <ele>37.140000000000001</ele>
        <time>2019-06-23T10:31:00Z</time>
      </trkpt>
      <trkpt lat="52.160898009315133" lon="13.583778999745846">
        <ele>38.100000000000001</ele>
        <time>2019-06-23T10:31:07Z</time>
      </trkpt>
      <trkpt lat="52.159738959744573" lon="13.586140014231205">
        <ele>40.020000000000003</ele>
        <time>2019-06-23T10:31:16Z</time>
      </trkpt>
      <trkpt lat="52.159352973103523" lon="13.586805034428835">
        <ele>40.5</ele>
        <time>2019-06-23T10:31:20Z</time>
      </trkpt>
      <trkpt lat="52.159223975613713" lon="13.586934031918645">
        <ele>40.979999999999997</ele>
        <time>2019-06-23T10:31:21Z</time>
      </trkpt>
      <trkpt lat="52.159094978123903" lon="13.587040985003114">
        <ele>40.979999999999997</ele>
        <time>2019-06-23T10:31:22Z</time>
      </trkpt>
      <trkpt lat="52.158945025876164" lon="13.587126983329654">
        <ele>40.979999999999997</ele>
        <time>2019-06-23T10:31:23Z</time>
      </trkpt>
      <trkpt lat="52.158774035051465" lon="13.587148021906614">
        <ele>41.460000000000001</ele>
        <time>2019-06-23T10:31:24Z</time>
      </trkpt>
      <trkpt lat="52.158622993156314" lon="13.587191021069884">
        <ele>41.460000000000001</ele>
        <time>2019-06-23T10:31:25Z</time>
      </trkpt>
      <trkpt lat="52.156885005533695" lon="13.587449016049504">
        <ele>41.460000000000001</ele>
        <time>2019-06-23T10:31:36Z</time>
      </trkpt>
      <trkpt lat="52.155253970995545" lon="13.587620006874204">
        <ele>45.789999999999999</ele>
        <time>2019-06-23T10:31:45Z</time>
      </trkpt>
      <trkpt lat="52.153752017766237" lon="13.587749004364014">
        <ele>49.149999999999999</ele>
        <time>2019-06-23T10:31:51Z</time>
      </trkpt>
      <trkpt lat="52.151949992403388" lon="13.587835002690554">
        <ele>57.799999999999997</ele>
        <time>2019-06-23T10:32:00Z</time>
      </trkpt>
      <trkpt lat="52.151564005762339" lon="13.587835002690554">
        <ele>63.090000000000003</ele>
        <time>2019-06-23T10:32:06Z</time>
      </trkpt>
      <trkpt lat="52.151327971369028" lon="13.587856041267514">
        <ele>69.819999999999993</ele>
        <time>2019-06-23T10:32:16Z</time>
      </trkpt>
      <trkpt lat="52.151327971369028" lon="13.587856041267514">
        <ele>69.819999999999993</ele>
        <time>2019-06-23T10:32:55Z</time>
      </trkpt>
      <trkpt lat="52.151284972205758" lon="13.587856041267514">
        <ele>71.260000000000005</ele>
        <time>2019-06-23T10:32:56Z</time>
      </trkpt>
      <trkpt lat="52.150748027488589" lon="13.587727965787053">
        <ele>75.590000000000003</ele>
        <time>2019-06-23T10:33:02Z</time>
      </trkpt>
      <trkpt lat="52.150126006454229" lon="13.587598968297243">
        <ele>75.109999999999999</ele>
        <time>2019-06-23T10:33:08Z</time>
      </trkpt>
      <trkpt lat="52.14877400547266" lon="13.587298979982734">
        <ele>75.109999999999999</ele>
        <time>2019-06-23T10:33:15Z</time>
      </trkpt>
      <trkpt lat="52.146907020360231" lon="13.586997985839844">
        <ele>75.109999999999999</ele>
        <time>2019-06-23T10:33:24Z</time>
      </trkpt>
      <trkpt lat="52.145341029390693" lon="13.586805034428835">
        <ele>75.590000000000003</ele>
        <time>2019-06-23T10:33:31Z</time>
      </trkpt>
      <trkpt lat="52.143387962132692" lon="13.586611999198794">
        <ele>72.219999999999999</ele>
        <time>2019-06-23T10:33:41Z</time>
      </trkpt>
      <trkpt lat="52.141500022262335" lon="13.585860980674624">
        <ele>65.980000000000004</ele>
        <time>2019-06-23T10:33:50Z</time>
      </trkpt>
      <trkpt lat="52.140148021280766" lon="13.585109962150455">
        <ele>60.689999999999998</ele>
        <time>2019-06-23T10:33:57Z</time>
      </trkpt>
      <trkpt lat="52.138711027801037" lon="13.584379982203245">
        <ele>54.439999999999998</ele>
        <time>2019-06-23T10:34:06Z</time>
      </trkpt>
      <trkpt lat="52.138559985905886" lon="13.584336983039975">
        <ele>53.960000000000001</ele>
        <time>2019-06-23T10:34:07Z</time>
      </trkpt>
      <trkpt lat="52.138410033658147" lon="13.584316028282046">
        <ele>53.479999999999997</ele>
        <time>2019-06-23T10:34:08Z</time>
      </trkpt>
      <trkpt lat="52.136950995773077" lon="13.584745014086366">
        <ele>51.079999999999998</ele>
        <time>2019-06-23T10:34:19Z</time>
      </trkpt>
      <trkpt lat="52.135899988934398" lon="13.585216999053955">
        <ele>50.109999999999999</ele>
        <time>2019-06-23T10:34:27Z</time>
      </trkpt>
      <trkpt lat="52.13431203737855" lon="13.586011016741395">
        <ele>48.189999999999998</ele>
        <time>2019-06-23T10:34:39Z</time>
      </trkpt>
      <trkpt lat="52.133023990318179" lon="13.586740996688604">
        <ele>48.189999999999998</ele>
        <time>2019-06-23T10:34:48Z</time>
      </trkpt>
      <trkpt lat="52.131694033741951" lon="13.587641967460513">
        <ele>48.189999999999998</ele>
        <time>2019-06-23T10:34:59Z</time>
      </trkpt>
      <trkpt lat="52.130749979987741" lon="13.588371025398374">
        <ele>47.710000000000001</ele>
        <time>2019-06-23T10:35:07Z</time>
      </trkpt>
      <trkpt lat="52.130600027740002" lon="13.588414024561644">
        <ele>47.229999999999997</ele>
        <time>2019-06-23T10:35:08Z</time>
      </trkpt>
      <trkpt lat="52.130448985844851" lon="13.588457023724914">
        <ele>46.270000000000003</ele>
        <time>2019-06-23T10:35:09Z</time>
      </trkpt>
      <trkpt lat="52.129526976495981" lon="13.588821971789002">
        <ele>42.899999999999999</ele>
        <time>2019-06-23T10:35:14Z</time>
      </trkpt>
      <trkpt lat="52.129354979842901" lon="13.588993968442082">
        <ele>42.420000000000002</ele>
        <time>2019-06-23T10:35:15Z</time>
      </trkpt>
      <trkpt lat="52.128196014091372" lon="13.589958976954222">
        <ele>41.939999999999998</ele>
        <time>2019-06-23T10:35:22Z</time>
      </trkpt>
      <trkpt lat="52.127896025776863" lon="13.590152012184262">
        <ele>41.939999999999998</ele>
        <time>2019-06-23T10:35:24Z</time>
      </trkpt>
      <trkpt lat="52.127724029123783" lon="13.590173972770572">
        <ele>41.939999999999998</ele>
        <time>2019-06-23T10:35:25Z</time>
      </trkpt>
      <trkpt lat="52.127530993893743" lon="13.590173972770572">
        <ele>41.939999999999998</ele>
        <time>2019-06-23T10:35:26Z</time>
      </trkpt>
      <trkpt lat="52.127145007252693" lon="13.590173972770572">
        <ele>41.939999999999998</ele>
        <time>2019-06-23T10:35:28Z</time>
      </trkpt>
      <trkpt lat="52.126973010599613" lon="13.590281009674072">
        <ele>42.420000000000002</ele>
        <time>2019-06-23T10:35:29Z</time>
      </trkpt>
      <trkpt lat="52.126802019774914" lon="13.590387962758541">
        <ele>42.899999999999999</ele>
        <time>2019-06-23T10:35:30Z</time>
      </trkpt>
      <trkpt lat="52.126650977879763" lon="13.590559959411621">
        <ele>43.380000000000003</ele>
        <time>2019-06-23T10:35:31Z</time>
      </trkpt>
      <trkpt lat="52.126522986218333" lon="13.590775039047003">
        <ele>44.350000000000001</ele>
        <time>2019-06-23T10:35:32Z</time>
      </trkpt>
      <trkpt lat="52.126436987891793" lon="13.591010989621282">
        <ele>45.310000000000002</ele>
        <time>2019-06-23T10:35:33Z</time>
      </trkpt>
      <trkpt lat="52.126330034807324" lon="13.591267978772521">
        <ele>45.789999999999999</ele>
        <time>2019-06-23T10:35:34Z</time>
      </trkpt>
      <trkpt lat="52.126287035644054" lon="13.591590011492372">
        <ele>46.75</ele>
        <time>2019-06-23T10:35:35Z</time>
      </trkpt>
      <trkpt lat="52.126221992075443" lon="13.59186896122992">
        <ele>47.229999999999997</ele>
        <time>2019-06-23T10:35:36Z</time>
      </trkpt>
      <trkpt lat="52.126201037317514" lon="13.59240498393774">
        <ele>47.710000000000001</ele>
        <time>2019-06-23T10:35:38Z</time>
      </trkpt>
      <trkpt lat="52.126178992912173" lon="13.59266297891736">
        <ele>48.189999999999998</ele>
        <time>2019-06-23T10:35:39Z</time>
      </trkpt>
      <trkpt lat="52.126201037317514" lon="13.592899013310671">
        <ele>48.189999999999998</ele>
        <time>2019-06-23T10:35:40Z</time>
      </trkpt>
      <trkpt lat="52.126307990401983" lon="13.59401497989893">
        <ele>49.630000000000003</ele>
        <time>2019-06-23T10:35:44Z</time>
      </trkpt>
      <trkpt lat="52.126287035644054" lon="13.594314968213439">
        <ele>49.630000000000003</ele>
        <time>2019-06-23T10:35:45Z</time>
      </trkpt>
      <trkpt lat="52.126244036480784" lon="13.59463700093329">
        <ele>49.630000000000003</ele>
        <time>2019-06-23T10:35:46Z</time>
      </trkpt>
      <trkpt lat="52.126051001250744" lon="13.595560016110539">
        <ele>49.630000000000003</ele>
        <time>2019-06-23T10:35:49Z</time>
      </trkpt>
      <trkpt lat="52.126051001250744" lon="13.595860004425049">
        <ele>49.630000000000003</ele>
        <time>2019-06-23T10:35:50Z</time>
      </trkpt>
      <trkpt lat="52.126094000414014" lon="13.596182037144899">
        <ele>49.149999999999999</ele>
        <time>2019-06-23T10:35:51Z</time>
      </trkpt>
      <trkpt lat="52.126135993748903" lon="13.596482025459409">
        <ele>48.670000000000002</ele>
        <time>2019-06-23T10:35:52Z</time>
      </trkpt>
      <trkpt lat="52.126178992912173" lon="13.596783019602299">
        <ele>48.189999999999998</ele>
        <time>2019-06-23T10:35:53Z</time>
      </trkpt>
      <trkpt lat="52.126201037317514" lon="13.597083007916808">
        <ele>47.229999999999997</ele>
        <time>2019-06-23T10:35:54Z</time>
      </trkpt>
      <trkpt lat="52.126178992912173" lon="13.597362041473389">
        <ele>46.75</ele>
        <time>2019-06-23T10:35:55Z</time>
      </trkpt>
      <trkpt lat="52.126158038154244" lon="13.597640991210937">
        <ele>46.270000000000003</ele>
        <time>2019-06-23T10:35:56Z</time>
      </trkpt>
      <trkpt lat="52.126135993748903" lon="13.597898986190557">
        <ele>45.789999999999999</ele>
        <time>2019-06-23T10:35:57Z</time>
      </trkpt>
      <trkpt lat="52.126051001250744" lon="13.598929038271308">
        <ele>45.789999999999999</ele>
        <time>2019-06-23T10:36:03Z</time>
      </trkpt>
      <trkpt lat="52.126264991238713" lon="13.600022960454226">
        <ele>45.310000000000002</ele>
        <time>2019-06-23T10:36:12Z</time>
      </trkpt>
      <trkpt lat="52.126587023958564" lon="13.601610995829105">
        <ele>42.420000000000002</ele>
        <time>2019-06-23T10:36:21Z</time>
      </trkpt>
      <trkpt lat="52.126736976206303" lon="13.603562973439693">
        <ele>42.899999999999999</ele>
        <time>2019-06-23T10:36:31Z</time>
      </trkpt>
      <trkpt lat="52.126779975369573" lon="13.604186000302434">
        <ele>42.899999999999999</ele>
        <time>2019-06-23T10:36:38Z</time>
      </trkpt>
      <trkpt lat="52.126865973696113" lon="13.604786982759833">
        <ele>42.420000000000002</ele>
        <time>2019-06-23T10:36:42Z</time>
      </trkpt>
      <trkpt lat="52.126908972859383" lon="13.604980017989874">
        <ele>42.420000000000002</ele>
        <time>2019-06-23T10:36:43Z</time>
      </trkpt>
      <trkpt lat="52.126994971185923" lon="13.605172969400883">
        <ele>42.420000000000002</ele>
        <time>2019-06-23T10:36:44Z</time>
      </trkpt>
      <trkpt lat="52.127080969512463" lon="13.605343960225582">
        <ele>42.420000000000002</ele>
        <time>2019-06-23T10:36:45Z</time>
      </trkpt>
      <trkpt lat="52.127208961173892" lon="13.605495002120733">
        <ele>42.420000000000002</ele>
        <time>2019-06-23T10:36:46Z</time>
      </trkpt>
      <trkpt lat="52.127337958663702" lon="13.605665992945433">
        <ele>42.899999999999999</ele>
        <time>2019-06-23T10:36:47Z</time>
      </trkpt>
      <trkpt lat="52.128131976351142" lon="13.606524970382452">
        <ele>45.310000000000002</ele>
        <time>2019-06-23T10:36:54Z</time>
      </trkpt>
      <trkpt lat="52.128904033452272" lon="13.607297027483582">
        <ele>44.829999999999998</ele>
        <time>2019-06-23T10:37:02Z</time>
      </trkpt>
      <trkpt lat="52.130020000040531" lon="13.608369994908571">
        <ele>43.380000000000003</ele>
        <time>2019-06-23T10:37:12Z</time>
      </trkpt>
      <trkpt lat="52.130685020238161" lon="13.608778025954962">
        <ele>43.380000000000003</ele>
        <time>2019-06-23T10:37:18Z</time>
      </trkpt>
      <trkpt lat="52.130792979151011" lon="13.608778025954962">
        <ele>43.380000000000003</ele>
        <time>2019-06-23T10:37:19Z</time>
      </trkpt>
      <trkpt lat="52.13092097081244" lon="13.608755981549621">
        <ele>43.380000000000003</ele>
        <time>2019-06-23T10:37:20Z</time>
      </trkpt>
      <trkpt lat="52.13104996830225" lon="13.608712982386351">
        <ele>43.869999999999997</ele>
        <time>2019-06-23T10:37:21Z</time>
      </trkpt>
      <trkpt lat="52.13117896579206" lon="13.608692027628422">
        <ele>43.869999999999997</ele>
        <time>2019-06-23T10:37:22Z</time>
      </trkpt>
      <trkpt lat="52.131436038762331" lon="13.608626984059811">
        <ele>43.380000000000003</ele>
        <time>2019-06-23T10:37:24Z</time>
      </trkpt>
      <trkpt lat="52.131565036252141" lon="13.608626984059811">
        <ele>43.380000000000003</ele>
        <time>2019-06-23T10:37:25Z</time>
      </trkpt>
      <trkpt lat="52.131694033741951" lon="13.608626984059811">
        <ele>42.899999999999999</ele>
        <time>2019-06-23T10:37:26Z</time>
      </trkpt>
      <trkpt lat="52.13184398598969" lon="13.608649028465152">
        <ele>42.899999999999999</ele>
        <time>2019-06-23T10:37:27Z</time>
      </trkpt>
      <trkpt lat="52.1319729834795" lon="13.608692027628422">
        <ele>41.939999999999998</ele>
        <time>2019-06-23T10:37:28Z</time>
      </trkpt>
      <trkpt lat="52.133324984461069" lon="13.60914196819067">
        <ele>39.060000000000002</ele>
        <time>2019-06-23T10:37:39Z</time>
      </trkpt>
      <trkpt lat="52.133904006332159" lon="13.609293010085821">
        <ele>37.140000000000001</ele>
        <time>2019-06-23T10:37:47Z</time>
      </trkpt>
      <trkpt lat="52.134375991299748" lon="13.609336009249091">
        <ele>36.18</ele>
        <time>2019-06-23T10:37:55Z</time>
      </trkpt>
      <trkpt lat="52.135127009823918" lon="13.609507000073791">
        <ele>38.579999999999998</ele>
        <time>2019-06-23T10:38:03Z</time>
      </trkpt>
      <trkpt lat="52.135856989771128" lon="13.609786033630371">
        <ele>40.020000000000003</ele>
        <time>2019-06-23T10:38:11Z</time>
      </trkpt>
      <trkpt lat="52.135942988097668" lon="13.609829032793641">
        <ele>40.020000000000003</ele>
        <time>2019-06-23T10:38:12Z</time>
      </trkpt>
      <trkpt lat="52.136007025837898" lon="13.60989298671484">
        <ele>40.020000000000003</ele>
        <time>2019-06-23T10:38:13Z</time>
      </trkpt>
      <trkpt lat="52.136242976412177" lon="13.610130026936531">
        <ele>39.539999999999999</ele>
        <time>2019-06-23T10:38:19Z</time>
      </trkpt>
      <trkpt lat="52.136222021654248" lon="13.61021501943469">
        <ele>39.539999999999999</ele>
        <time>2019-06-23T10:38:20Z</time>
      </trkpt>
      <trkpt lat="52.136199977248907" lon="13.6103440169245">
        <ele>39.539999999999999</ele>
        <time>2019-06-23T10:38:21Z</time>
      </trkpt>
      <trkpt lat="52.136179022490978" lon="13.610493969172239">
        <ele>39.060000000000002</ele>
        <time>2019-06-23T10:38:22Z</time>
      </trkpt>
      <trkpt lat="52.136136023327708" lon="13.61064400523901">
        <ele>39.060000000000002</ele>
        <time>2019-06-23T10:38:23Z</time>
      </trkpt>
      <trkpt lat="52.136113978922367" lon="13.610794963315129">
        <ele>38.579999999999998</ele>
        <time>2019-06-23T10:38:24Z</time>
      </trkpt>
      <trkpt lat="52.136050025001168" lon="13.611996006220579">
        <ele>37.140000000000001</ele>
        <time>2019-06-23T10:38:31Z</time>
      </trkpt>
      <trkpt lat="52.135985987260938" lon="13.612168002873659">
        <ele>36.659999999999997</ele>
        <time>2019-06-23T10:38:32Z</time>
      </trkpt>
      <trkpt lat="52.135942988097668" lon="13.61231803894043">
        <ele>36.659999999999997</ele>
        <time>2019-06-23T10:38:33Z</time>
      </trkpt>
      <trkpt lat="52.135813990607858" lon="13.61261903308332">
        <ele>36.659999999999997</ele>
        <time>2019-06-23T10:38:35Z</time>
      </trkpt>
      <trkpt lat="52.135062972083688" lon="13.613970028236508">
        <ele>34.729999999999997</ele>
        <time>2019-06-23T10:38:44Z</time>
      </trkpt>
      <trkpt lat="52.134418990463018" lon="13.615343989804387">
        <ele>35.210000000000001</ele>
        <time>2019-06-23T10:38:54Z</time>
      </trkpt>
      <trkpt lat="52.134053958579898" lon="13.616115963086486">
        <ele>37.619999999999997</ele>
        <time>2019-06-23T10:38:58Z</time>
      </trkpt>
      <trkpt lat="52.133925966918468" lon="13.616265999153256">
        <ele>37.619999999999997</ele>
        <time>2019-06-23T10:38:59Z</time>
      </trkpt>
      <trkpt lat="52.133818008005619" lon="13.616417041048408">
        <ele>38.100000000000001</ele>
        <time>2019-06-23T10:39:00Z</time>
      </trkpt>
      <trkpt lat="52.13313203305006" lon="13.617275012657046">
        <ele>41.460000000000001</ele>
        <time>2019-06-23T10:39:07Z</time>
      </trkpt>
      <trkpt lat="52.13300303556025" lon="13.617575000971556">
        <ele>42.420000000000002</ele>
        <time>2019-06-23T10:39:09Z</time>
      </trkpt>
      <trkpt lat="52.13242401368916" lon="13.619206035509706">
        <ele>47.229999999999997</ele>
        <time>2019-06-23T10:39:17Z</time>
      </trkpt>
      <trkpt lat="52.131608035415411" lon="13.620987022295594">
        <ele>53</ele>
        <time>2019-06-23T10:39:27Z</time>
      </trkpt>
      <trkpt lat="52.130600027740002" lon="13.623026004061103">
        <ele>56.840000000000003</ele>
        <time>2019-06-23T10:39:38Z</time>
      </trkpt>
      <trkpt lat="52.129397979006171" lon="13.62540696747601">
        <ele>58.289999999999999</ele>
        <time>2019-06-23T10:39:51Z</time>
      </trkpt>
      <trkpt lat="52.128368010744452" lon="13.62750998698175">
        <ele>56.359999999999999</ele>
        <time>2019-06-23T10:40:00Z</time>
      </trkpt>
      <trkpt lat="52.127294959500432" lon="13.629613006487489">
        <ele>54.920000000000002</ele>
        <time>2019-06-23T10:40:10Z</time>
      </trkpt>
      <trkpt lat="52.126221992075443" lon="13.631802024319768">
        <ele>49.630000000000003</ele>
        <time>2019-06-23T10:40:20Z</time>
      </trkpt>
      <trkpt lat="52.125106025487185" lon="13.634097995236516">
        <ele>40.5</ele>
        <time>2019-06-23T10:40:27Z</time>
      </trkpt>
      <trkpt lat="52.123153964057565" lon="13.638109993189573">
        <ele>35.689999999999998</ele>
        <time>2019-06-23T10:40:40Z</time>
      </trkpt>
      <trkpt lat="52.122274031862617" lon="13.640428008511662">
        <ele>36.18</ele>
        <time>2019-06-23T10:40:47Z</time>
      </trkpt>
      <trkpt lat="52.121329978108406" lon="13.64321700297296">
        <ele>40.020000000000003</ele>
        <time>2019-06-23T10:40:55Z</time>
      </trkpt>
      <trkpt lat="52.120000021532178" lon="13.646907974034548">
        <ele>47.710000000000001</ele>
        <time>2019-06-23T10:41:06Z</time>
      </trkpt>
      <trkpt lat="52.119054961949587" lon="13.649439979344606">
        <ele>47.229999999999997</ele>
        <time>2019-06-23T10:41:14Z</time>
      </trkpt>
      <trkpt lat="52.117811003699899" lon="13.652271972969174">
        <ele>45.789999999999999</ele>
        <time>2019-06-23T10:41:23Z</time>
      </trkpt>
      <trkpt lat="52.115601031109691" lon="13.657207991927862">
        <ele>44.350000000000001</ele>
        <time>2019-06-23T10:41:37Z</time>
      </trkpt>
      <trkpt lat="52.114335028454661" lon="13.6600829847157">
        <ele>41.939999999999998</ele>
        <time>2019-06-23T10:41:46Z</time>
      </trkpt>
      <trkpt lat="52.11422698572278" lon="13.660448016598821">
        <ele>41.939999999999998</ele>
        <time>2019-06-23T10:41:47Z</time>
      </trkpt>
      <trkpt lat="52.114120032638311" lon="13.66083400323987">
        <ele>41.460000000000001</ele>
        <time>2019-06-23T10:41:48Z</time>
      </trkpt>
      <trkpt lat="52.114055994898081" lon="13.661262989044189">
        <ele>41.460000000000001</ele>
        <time>2019-06-23T10:41:49Z</time>
      </trkpt>
      <trkpt lat="52.113369014114141" lon="13.665039958432317">
        <ele>40.020000000000003</ele>
        <time>2019-06-23T10:41:58Z</time>
      </trkpt>
      <trkpt lat="52.112488998100162" lon="13.669974971562624">
        <ele>37.619999999999997</ele>
        <time>2019-06-23T10:42:11Z</time>
      </trkpt>
      <trkpt lat="52.111909976229072" lon="13.673171997070313">
        <ele>36.18</ele>
        <time>2019-06-23T10:42:21Z</time>
      </trkpt>
      <trkpt lat="52.111631026491523" lon="13.675361014902592">
        <ele>36.659999999999997</ele>
        <time>2019-06-23T10:42:27Z</time>
      </trkpt>
      <trkpt lat="52.111652987077832" lon="13.675725962966681">
        <ele>37.140000000000001</ele>
        <time>2019-06-23T10:42:28Z</time>
      </trkpt>
      <trkpt lat="52.111694980412722" lon="13.67868703790009">
        <ele>39.539999999999999</ele>
        <time>2019-06-23T10:42:36Z</time>
      </trkpt>
      <trkpt lat="52.111351992934942" lon="13.680768013000488">
        <ele>41.460000000000001</ele>
        <time>2019-06-23T10:42:43Z</time>
      </trkpt>
      <trkpt lat="52.110772971063852" lon="13.682634998112917">
        <ele>44.350000000000001</ele>
        <time>2019-06-23T10:42:52Z</time>
      </trkpt>
      <trkpt lat="52.110171988606453" lon="13.684887969866395">
        <ele>45.789999999999999</ele>
        <time>2019-06-23T10:43:03Z</time>
      </trkpt>
      <trkpt lat="52.109592966735363" lon="13.686927035450935">
        <ele>45.789999999999999</ele>
        <time>2019-06-23T10:43:15Z</time>
      </trkpt>
      <trkpt lat="52.108799032866955" lon="13.689565993845463">
        <ele>44.350000000000001</ele>
        <time>2019-06-23T10:43:29Z</time>
      </trkpt>
      <trkpt lat="52.107919016852975" lon="13.692591022700071">
        <ele>44.350000000000001</ele>
        <time>2019-06-23T10:43:45Z</time>
      </trkpt>
      <trkpt lat="52.106996001675725" lon="13.695830963551998">
        <ele>46.270000000000003</ele>
        <time>2019-06-23T10:44:02Z</time>
      </trkpt>
      <trkpt lat="52.106953002512455" lon="13.696025004610419">
        <ele>46.270000000000003</ele>
        <time>2019-06-23T10:44:03Z</time>
      </trkpt>
      <trkpt lat="52.106739012524486" lon="13.698299014940858">
        <ele>45.789999999999999</ele>
        <time>2019-06-23T10:44:14Z</time>
      </trkpt>
      <trkpt lat="52.106630969792604" lon="13.701409958302975">
        <ele>43.869999999999997</ele>
        <time>2019-06-23T10:44:29Z</time>
      </trkpt>
      <trkpt lat="52.106630969792604" lon="13.701711036264896">
        <ele>43.869999999999997</ele>
        <time>2019-06-23T10:44:31Z</time>
      </trkpt>
      <trkpt lat="52.106630969792604" lon="13.701797034591436">
        <ele>43.869999999999997</ele>
        <time>2019-06-23T10:44:32Z</time>
      </trkpt>
      <trkpt lat="52.106545977294445" lon="13.701860988512635">
        <ele>43.380000000000003</ele>
        <time>2019-06-23T10:44:33Z</time>
      </trkpt>
      <trkpt lat="52.106459978967905" lon="13.701883032917976">
        <ele>43.380000000000003</ele>
        <time>2019-06-23T10:44:34Z</time>
      </trkpt>
      <trkpt lat="52.106330981478095" lon="13.701925026252866">
        <ele>43.380000000000003</ele>
        <time>2019-06-23T10:44:35Z</time>
      </trkpt>
      <trkpt lat="52.106073992326856" lon="13.702054023742676">
        <ele>42.899999999999999</ele>
        <time>2019-06-23T10:44:37Z</time>
      </trkpt>
      <trkpt lat="52.105944994837046" lon="13.702160976827145">
        <ele>42.899999999999999</ele>
        <time>2019-06-23T10:44:38Z</time>
      </trkpt>
      <trkpt lat="52.105837035924196" lon="13.702289974316955">
        <ele>42.899999999999999</ele>
        <time>2019-06-23T10:44:39Z</time>
      </trkpt>
      <trkpt lat="52.104764990508556" lon="13.703469978645444">
        <ele>42.899999999999999</ele>
        <time>2019-06-23T10:44:49Z</time>
      </trkpt>
      <trkpt lat="52.103348029777408" lon="13.705079974606633">
        <ele>42.899999999999999</ele>
        <time>2019-06-23T10:45:03Z</time>
      </trkpt>
      <trkpt lat="52.101888991892338" lon="13.706582011654973">
        <ele>42.420000000000002</ele>
        <time>2019-06-23T10:45:16Z</time>
      </trkpt>
      <trkpt lat="52.100794985890388" lon="13.707353984937072">
        <ele>41.939999999999998</ele>
        <time>2019-06-23T10:45:21Z</time>
      </trkpt>
      <trkpt lat="52.098691966384649" lon="13.708856021985412">
        <ele>42.899999999999999</ele>
        <time>2019-06-23T10:45:29Z</time>
      </trkpt>
      <trkpt lat="52.09751196205616" lon="13.709779037162662">
        <ele>45.789999999999999</ele>
        <time>2019-06-23T10:45:35Z</time>
      </trkpt>
      <trkpt lat="52.096096007153392" lon="13.71143102645874">
        <ele>47.229999999999997</ele>
        <time>2019-06-23T10:45:44Z</time>
      </trkpt>
      <trkpt lat="52.094957996159792" lon="13.713404964655638">
        <ele>44.829999999999998</ele>
        <time>2019-06-23T10:45:53Z</time>
      </trkpt>
      <trkpt lat="52.093607001006603" lon="13.715830016881227">
        <ele>38.100000000000001</ele>
        <time>2019-06-23T10:46:05Z</time>
      </trkpt>
      <trkpt lat="52.092769984155893" lon="13.716753032058477">
        <ele>35.689999999999998</ele>
        <time>2019-06-23T10:46:12Z</time>
      </trkpt>
      <trkpt lat="52.090817000716925" lon="13.718425976112485">
        <ele>40.5</ele>
        <time>2019-06-23T10:46:27Z</time>
      </trkpt>
      <trkpt lat="52.090494967997074" lon="13.718726970255375">
        <ele>41.460000000000001</ele>
        <time>2019-06-23T10:46:30Z</time>
      </trkpt>
      <trkpt lat="52.090408969670534" lon="13.718834007158875">
        <ele>41.939999999999998</ele>
        <time>2019-06-23T10:46:31Z</time>
      </trkpt>
      <trkpt lat="52.090323977172375" lon="13.718963004648685">
        <ele>41.939999999999998</ele>
        <time>2019-06-23T10:46:32Z</time>
      </trkpt>
      <trkpt lat="52.089765993878245" lon="13.719734977930784">
        <ele>41.939999999999998</ele>
        <time>2019-06-23T10:46:40Z</time>
      </trkpt>
      <trkpt lat="52.089722994714975" lon="13.719863975420594">
        <ele>41.939999999999998</ele>
        <time>2019-06-23T10:46:41Z</time>
      </trkpt>
      <trkpt lat="52.089679995551705" lon="13.720014011487365">
        <ele>41.939999999999998</ele>
        <time>2019-06-23T10:46:42Z</time>
      </trkpt>
      <trkpt lat="52.089572958648205" lon="13.720315005630255">
        <ele>41.939999999999998</ele>
        <time>2019-06-23T10:46:44Z</time>
      </trkpt>
      <trkpt lat="52.089314963668585" lon="13.721086978912354">
        <ele>41.460000000000001</ele>
        <time>2019-06-23T10:46:49Z</time>
      </trkpt>
      <trkpt lat="52.089271964505315" lon="13.721280014142394">
        <ele>41.460000000000001</ele>
        <time>2019-06-23T10:46:50Z</time>
      </trkpt>
      <trkpt lat="52.089251009747386" lon="13.721472965553403">
        <ele>41.939999999999998</ele>
        <time>2019-06-23T10:46:51Z</time>
      </trkpt>
      <trkpt lat="52.089228965342045" lon="13.721687961369753">
        <ele>42.420000000000002</ele>
        <time>2019-06-23T10:46:52Z</time>
      </trkpt>
      <trkpt lat="52.089228965342045" lon="13.721903041005135">
        <ele>42.420000000000002</ele>
        <time>2019-06-23T10:46:53Z</time>
      </trkpt>
      <trkpt lat="52.089122012257576" lon="13.722738968208432">
        <ele>43.380000000000003</ele>
        <time>2019-06-23T10:46:57Z</time>
      </trkpt>
      <trkpt lat="52.089079013094306" lon="13.722932003438473">
        <ele>42.899999999999999</ele>
        <time>2019-06-23T10:46:58Z</time>
      </trkpt>
      <trkpt lat="52.088627982884645" lon="13.725121021270752">
        <ele>42.420000000000002</ele>
        <time>2019-06-23T10:47:08Z</time>
      </trkpt>
      <trkpt lat="52.088048961013556" lon="13.727008961141109">
        <ele>42.899999999999999</ele>
        <time>2019-06-23T10:47:17Z</time>
      </trkpt>
      <trkpt lat="52.087212027981877" lon="13.728811992332339">
        <ele>43.869999999999997</ele>
        <time>2019-06-23T10:47:25Z</time>
      </trkpt>
      <trkpt lat="52.086418010294437" lon="13.730420982465148">
        <ele>42.899999999999999</ele>
        <time>2019-06-23T10:47:31Z</time>
      </trkpt>
      <trkpt lat="52.086247019469738" lon="13.730614017695189">
        <ele>42.420000000000002</ele>
        <time>2019-06-23T10:47:32Z</time>
      </trkpt>
      <trkpt lat="52.086075022816658" lon="13.730764975771308">
        <ele>42.420000000000002</ele>
        <time>2019-06-23T10:47:33Z</time>
      </trkpt>
      <trkpt lat="52.085860027000308" lon="13.730849968269467">
        <ele>41.939999999999998</ele>
        <time>2019-06-23T10:47:34Z</time>
      </trkpt>
      <trkpt lat="52.085646037012339" lon="13.730935966596007">
        <ele>41.939999999999998</ele>
        <time>2019-06-23T10:47:35Z</time>
      </trkpt>
      <trkpt lat="52.085410002619028" lon="13.730935966596007">
        <ele>41.939999999999998</ele>
        <time>2019-06-23T10:47:36Z</time>
      </trkpt>
      <trkpt lat="52.085173968225718" lon="13.730935966596007">
        <ele>41.939999999999998</ele>
        <time>2019-06-23T10:47:37Z</time>
      </trkpt>
      <trkpt lat="52.083177985623479" lon="13.730892967432737">
        <ele>43.869999999999997</ele>
        <time>2019-06-23T10:47:46Z</time>
      </trkpt>
      <trkpt lat="52.082963995635509" lon="13.730806969106197">
        <ele>43.869999999999997</ele>
        <time>2019-06-23T10:47:47Z</time>
      </trkpt>
      <trkpt lat="52.08277003839612" lon="13.730700016021729">
        <ele>44.350000000000001</ele>
        <time>2019-06-23T10:47:48Z</time>
      </trkpt>
      <trkpt lat="52.082555964589119" lon="13.730529025197029">
        <ele>44.350000000000001</ele>
        <time>2019-06-23T10:47:49Z</time>
      </trkpt>
      <trkpt lat="52.08143999800086" lon="13.729520011693239">
        <ele>45.789999999999999</ele>
        <time>2019-06-23T10:47:55Z</time>
      </trkpt>
      <trkpt lat="52.080324031412601" lon="13.72874803841114">
        <ele>47.229999999999997</ele>
        <time>2019-06-23T10:48:03Z</time>
      </trkpt>
      <trkpt lat="52.079144027084112" lon="13.72834000736475">
        <ele>47.710000000000001</ele>
        <time>2019-06-23T10:48:12Z</time>
      </trkpt>
      <trkpt lat="52.078136019408703" lon="13.727931976318359">
        <ele>47.710000000000001</ele>
        <time>2019-06-23T10:48:20Z</time>
      </trkpt>
      <trkpt lat="52.076655020937324" lon="13.7274169921875">
        <ele>45.789999999999999</ele>
        <time>2019-06-23T10:48:30Z</time>
      </trkpt>
      <trkpt lat="52.075710967183113" lon="13.72692396864295">
        <ele>46.75</ele>
        <time>2019-06-23T10:48:39Z</time>
      </trkpt>
      <trkpt lat="52.074852995574474" lon="13.726430023089051">
        <ele>46.75</ele>
        <time>2019-06-23T10:48:48Z</time>
      </trkpt>
      <trkpt lat="52.073843982070684" lon="13.726130034774542">
        <ele>47.229999999999997</ele>
        <time>2019-06-23T10:48:58Z</time>
      </trkpt>
      <trkpt lat="52.072857012972236" lon="13.725550007075071">
        <ele>47.710000000000001</ele>
        <time>2019-06-23T10:49:08Z</time>
      </trkpt>
      <trkpt lat="52.071697963401675" lon="13.724219966679811">
        <ele>47.229999999999997</ele>
        <time>2019-06-23T10:49:20Z</time>
      </trkpt>
      <trkpt lat="52.070088973268867" lon="13.722418025135994">
        <ele>48.189999999999998</ele>
        <time>2019-06-23T10:49:35Z</time>
      </trkpt>
      <trkpt lat="52.069165958091617" lon="13.721472965553403">
        <ele>48.189999999999998</ele>
        <time>2019-06-23T10:49:43Z</time>
      </trkpt>
      <trkpt lat="52.068973006680608" lon="13.721409011632204">
        <ele>48.189999999999998</ele>
        <time>2019-06-23T10:49:44Z</time>
      </trkpt>
      <trkpt lat="52.068759016692638" lon="13.721387973055243">
        <ele>48.189999999999998</ele>
        <time>2019-06-23T10:49:45Z</time>
      </trkpt>
      <trkpt lat="52.068544020876288" lon="13.721409011632204">
        <ele>48.189999999999998</ele>
        <time>2019-06-23T10:49:46Z</time>
      </trkpt>
      <trkpt lat="52.068307986482978" lon="13.721429966390133">
        <ele>48.189999999999998</ele>
        <time>2019-06-23T10:49:47Z</time>
      </trkpt>
      <trkpt lat="52.06693503074348" lon="13.721687961369753">
        <ele>47.710000000000001</ele>
        <time>2019-06-23T10:49:53Z</time>
      </trkpt>
      <trkpt lat="52.066741995513439" lon="13.721816958859563">
        <ele>47.710000000000001</ele>
        <time>2019-06-23T10:49:54Z</time>
      </trkpt>
      <trkpt lat="52.06654803827405" lon="13.721945034340024">
        <ele>47.710000000000001</ele>
        <time>2019-06-23T10:49:55Z</time>
      </trkpt>
      <trkpt lat="52.06579701974988" lon="13.722418025135994">
        <ele>47.710000000000001</ele>
        <time>2019-06-23T10:49:59Z</time>
      </trkpt>
      <trkpt lat="52.065603984519839" lon="13.722481979057193">
        <ele>47.229999999999997</ele>
        <time>2019-06-23T10:50:00Z</time>
      </trkpt>
      <trkpt lat="52.06541103310883" lon="13.722481979057193">
        <ele>46.75</ele>
        <time>2019-06-23T10:50:01Z</time>
      </trkpt>
      <trkpt lat="52.065196959301829" lon="13.722481979057193">
        <ele>46.270000000000003</ele>
        <time>2019-06-23T10:50:02Z</time>
      </trkpt>
      <trkpt lat="52.064961008727551" lon="13.722418025135994">
        <ele>45.789999999999999</ele>
        <time>2019-06-23T10:50:03Z</time>
      </trkpt>
      <trkpt lat="52.063415972515941" lon="13.722332026809454">
        <ele>41.460000000000001</ele>
        <time>2019-06-23T10:50:10Z</time>
      </trkpt>
      <trkpt lat="52.063223021104932" lon="13.722395980730653">
        <ele>40.5</ele>
        <time>2019-06-23T10:50:11Z</time>
      </trkpt>
      <trkpt lat="52.061634985730052" lon="13.722610976547003">
        <ele>38.579999999999998</ele>
        <time>2019-06-23T10:50:18Z</time>
      </trkpt>
      <trkpt lat="52.059939997270703" lon="13.722460018470883">
        <ele>42.420000000000002</ele>
        <time>2019-06-23T10:50:26Z</time>
      </trkpt>
      <trkpt lat="52.059703040868044" lon="13.722481979057193">
        <ele>42.420000000000002</ele>
        <time>2019-06-23T10:50:27Z</time>
      </trkpt>
      <trkpt lat="52.059230972081423" lon="13.722589015960693">
        <ele>42.420000000000002</ele>
        <time>2019-06-23T10:50:29Z</time>
      </trkpt>
      <trkpt lat="52.059016982093453" lon="13.722546016797423">
        <ele>42.420000000000002</ele>
        <time>2019-06-23T10:50:30Z</time>
      </trkpt>
      <trkpt lat="52.058609034866095" lon="13.722460018470883">
        <ele>42.420000000000002</ele>
        <time>2019-06-23T10:50:32Z</time>
      </trkpt>
      <trkpt lat="52.058458998799324" lon="13.722375025972724">
        <ele>42.420000000000002</ele>
        <time>2019-06-23T10:50:33Z</time>
      </trkpt>
      <trkpt lat="52.058308962732553" lon="13.722266983240843">
        <ele>41.939999999999998</ele>
        <time>2019-06-23T10:50:34Z</time>
      </trkpt>
      <trkpt lat="52.056956961750984" lon="13.721452010795474">
        <ele>43.380000000000003</ele>
        <time>2019-06-23T10:50:44Z</time>
      </trkpt>
      <trkpt lat="52.056721011176705" lon="13.721323013305664">
        <ele>43.869999999999997</ele>
        <time>2019-06-23T10:50:46Z</time>
      </trkpt>
      <trkpt lat="52.056635012850165" lon="13.721172977238894">
        <ele>43.869999999999997</ele>
        <time>2019-06-23T10:50:47Z</time>
      </trkpt>
      <trkpt lat="52.056570975109935" lon="13.720980025827885">
        <ele>44.350000000000001</ele>
        <time>2019-06-23T10:50:48Z</time>
      </trkpt>
      <trkpt lat="52.056570975109935" lon="13.720765030011535">
        <ele>44.350000000000001</ele>
        <time>2019-06-23T10:50:49Z</time>
      </trkpt>
      <trkpt lat="52.056549014523625" lon="13.720551040023565">
        <ele>44.829999999999998</ele>
        <time>2019-06-23T10:50:50Z</time>
      </trkpt>
      <trkpt lat="52.056549014523625" lon="13.720335960388184">
        <ele>44.829999999999998</ele>
        <time>2019-06-23T10:50:51Z</time>
      </trkpt>
      <trkpt lat="52.056527975946665" lon="13.717740001156926">
        <ele>44.350000000000001</ele>
        <time>2019-06-23T10:51:03Z</time>
      </trkpt>
      <trkpt lat="52.056506015360355" lon="13.717354014515877">
        <ele>44.350000000000001</ele>
        <time>2019-06-23T10:51:05Z</time>
      </trkpt>
      <trkpt lat="52.056463016197085" lon="13.717202972620726">
        <ele>44.350000000000001</ele>
        <time>2019-06-23T10:51:06Z</time>
      </trkpt>
      <trkpt lat="52.056398978456855" lon="13.717031981796026">
        <ele>44.350000000000001</ele>
        <time>2019-06-23T10:51:07Z</time>
      </trkpt>
      <trkpt lat="52.056355979293585" lon="13.716859985142946">
        <ele>44.350000000000001</ele>
        <time>2019-06-23T10:51:08Z</time>
      </trkpt>
      <trkpt lat="52.056292025372386" lon="13.716710032895207">
        <ele>44.350000000000001</ele>
        <time>2019-06-23T10:51:09Z</time>
      </trkpt>
      <trkpt lat="52.056226981803775" lon="13.716559996828437">
        <ele>44.350000000000001</ele>
        <time>2019-06-23T10:51:10Z</time>
      </trkpt>
      <trkpt lat="52.055175974965096" lon="13.714736010879278">
        <ele>43.380000000000003</ele>
        <time>2019-06-23T10:51:22Z</time>
      </trkpt>
      <trkpt lat="52.054789988324046" lon="13.714135028421879">
        <ele>42.899999999999999</ele>
        <time>2019-06-23T10:51:27Z</time>
      </trkpt>
      <trkpt lat="52.054725028574467" lon="13.714027991518378">
        <ele>42.899999999999999</ele>
        <time>2019-06-23T10:51:28Z</time>
      </trkpt>
      <trkpt lat="52.054617991670966" lon="13.713941993191838">
        <ele>42.899999999999999</ele>
        <time>2019-06-23T10:51:29Z</time>
      </trkpt>
      <trkpt lat="52.054511038586497" lon="13.713898994028568">
        <ele>42.899999999999999</ele>
        <time>2019-06-23T10:51:30Z</time>
      </trkpt>
      <trkpt lat="52.054382041096687" lon="13.713834034278989">
        <ele>42.899999999999999</ele>
        <time>2019-06-23T10:51:31Z</time>
      </trkpt>
      <trkpt lat="52.054275004193187" lon="13.713769996538758">
        <ele>43.380000000000003</ele>
        <time>2019-06-23T10:51:32Z</time>
      </trkpt>
      <trkpt lat="52.054017009213567" lon="13.713662959635258">
        <ele>43.380000000000003</ele>
        <time>2019-06-23T10:51:34Z</time>
      </trkpt>
      <trkpt lat="52.053909972310066" lon="13.713576961308718">
        <ele>43.869999999999997</ele>
        <time>2019-06-23T10:51:35Z</time>
      </trkpt>
      <trkpt lat="52.053803019225597" lon="13.713470008224249">
        <ele>43.869999999999997</ele>
        <time>2019-06-23T10:51:36Z</time>
      </trkpt>
      <trkpt lat="52.053202036768198" lon="13.71286902576685">
        <ele>43.869999999999997</ele>
        <time>2019-06-23T10:51:42Z</time>
      </trkpt>
      <trkpt lat="52.053094999864697" lon="13.712846981361508">
        <ele>43.869999999999997</ele>
        <time>2019-06-23T10:51:43Z</time>
      </trkpt>
      <trkpt lat="52.053009001538157" lon="13.712846981361508">
        <ele>43.869999999999997</ele>
        <time>2019-06-23T10:51:44Z</time>
      </trkpt>
      <trkpt lat="52.052900958806276" lon="13.71282602660358">
        <ele>44.350000000000001</ele>
        <time>2019-06-23T10:51:45Z</time>
      </trkpt>
      <trkpt lat="52.052815966308117" lon="13.712803982198238">
        <ele>44.350000000000001</ele>
        <time>2019-06-23T10:51:46Z</time>
      </trkpt>
      <trkpt lat="52.052729967981577" lon="13.71278302744031">
        <ele>44.350000000000001</ele>
        <time>2019-06-23T10:51:47Z</time>
      </trkpt>
      <trkpt lat="52.052643969655037" lon="13.712761988863349">
        <ele>44.829999999999998</ele>
        <time>2019-06-23T10:51:48Z</time>
      </trkpt>
      <trkpt lat="52.051657000556588" lon="13.712503993883729">
        <ele>45.310000000000002</ele>
        <time>2019-06-23T10:51:57Z</time>
      </trkpt>
      <trkpt lat="52.050283960998058" lon="13.71216100640595">
        <ele>47.229999999999997</ele>
        <time>2019-06-23T10:52:09Z</time>
      </trkpt>
      <trkpt lat="52.04903899691999" lon="13.71190301142633">
        <ele>47.710000000000001</ele>
        <time>2019-06-23T10:52:18Z</time>
      </trkpt>
      <trkpt lat="52.04811598174274" lon="13.71145298704505">
        <ele>47.710000000000001</ele>
        <time>2019-06-23T10:52:24Z</time>
      </trkpt>
      <trkpt lat="52.045949008315802" lon="13.71014398522675">
        <ele>48.189999999999998</ele>
        <time>2019-06-23T10:52:36Z</time>
      </trkpt>
      <trkpt lat="52.044017985463142" lon="13.70900597423315">
        <ele>49.630000000000003</ele>
        <time>2019-06-23T10:52:47Z</time>
      </trkpt>
      <trkpt lat="52.042516032233834" lon="13.708319999277592">
        <ele>49.149999999999999</ele>
        <time>2019-06-23T10:52:56Z</time>
      </trkpt>
      <trkpt lat="52.041914965957403" lon="13.708105003461242">
        <ele>49.630000000000003</ele>
        <time>2019-06-23T10:53:01Z</time>
      </trkpt>
      <trkpt lat="52.041785968467593" lon="13.708062004297972">
        <ele>49.630000000000003</ele>
        <time>2019-06-23T10:53:02Z</time>
      </trkpt>
      <trkpt lat="52.041699970141053" lon="13.707954967394471">
        <ele>49.630000000000003</ele>
        <time>2019-06-23T10:53:03Z</time>
      </trkpt>
      <trkpt lat="52.041593017056584" lon="13.707868969067931">
        <ele>49.630000000000003</ele>
        <time>2019-06-23T10:53:04Z</time>
      </trkpt>
      <trkpt lat="52.041485980153084" lon="13.707762015983462">
        <ele>49.630000000000003</ele>
        <time>2019-06-23T10:53:05Z</time>
      </trkpt>
      <trkpt lat="52.041227985173464" lon="13.707419028505683">
        <ele>49.630000000000003</ele>
        <time>2019-06-23T10:53:08Z</time>
      </trkpt>
      <trkpt lat="52.041164031252265" lon="13.707247031852603">
        <ele>50.109999999999999</ele>
        <time>2019-06-23T10:53:09Z</time>
      </trkpt>
      <trkpt lat="52.041078032925725" lon="13.706881999969482">
        <ele>49.630000000000003</ele>
        <time>2019-06-23T10:53:11Z</time>
      </trkpt>
      <trkpt lat="52.041013995185494" lon="13.706731963902712">
        <ele>49.149999999999999</ele>
        <time>2019-06-23T10:53:12Z</time>
      </trkpt>
      <trkpt lat="52.040927996858954" lon="13.706582011654973">
        <ele>49.149999999999999</ele>
        <time>2019-06-23T10:53:13Z</time>
      </trkpt>
      <trkpt lat="52.040519965812564" lon="13.705916991457343">
        <ele>48.189999999999998</ele>
        <time>2019-06-23T10:53:20Z</time>
      </trkpt>
      <trkpt lat="52.040476966649294" lon="13.705830993130803">
        <ele>48.189999999999998</ele>
        <time>2019-06-23T10:53:21Z</time>
      </trkpt>
      <trkpt lat="52.040433967486024" lon="13.705723034217954">
        <ele>48.189999999999998</ele>
        <time>2019-06-23T10:53:22Z</time>
      </trkpt>
      <trkpt lat="52.040391974151134" lon="13.705572998151183">
        <ele>48.670000000000002</ele>
        <time>2019-06-23T10:53:23Z</time>
      </trkpt>
      <trkpt lat="52.040391974151134" lon="13.705422962084413">
        <ele>48.670000000000002</ele>
        <time>2019-06-23T10:53:24Z</time>
      </trkpt>
      <trkpt lat="52.040176978334785" lon="13.704156959429383">
        <ele>49.149999999999999</ele>
        <time>2019-06-23T10:53:33Z</time>
      </trkpt>
      <trkpt lat="52.040070025250316" lon="13.703535022214055">
        <ele>49.149999999999999</ele>
        <time>2019-06-23T10:53:40Z</time>
      </trkpt>
      <trkpt lat="52.040004981681705" lon="13.703126991167665">
        <ele>49.149999999999999</ele>
        <time>2019-06-23T10:53:44Z</time>
      </trkpt>
      <trkpt lat="52.039961982518435" lon="13.702977038919926">
        <ele>49.630000000000003</ele>
        <time>2019-06-23T10:53:45Z</time>
      </trkpt>
      <trkpt lat="52.039898028597236" lon="13.702848041430116">
        <ele>49.630000000000003</ele>
        <time>2019-06-23T10:53:46Z</time>
      </trkpt>
      <trkpt lat="52.039833990857005" lon="13.702675960958004">
        <ele>50.109999999999999</ele>
        <time>2019-06-23T10:53:47Z</time>
      </trkpt>
      <trkpt lat="52.039747992530465" lon="13.702526008710265">
        <ele>50.590000000000003</ele>
        <time>2019-06-23T10:53:48Z</time>
      </trkpt>
      <trkpt lat="52.039683032780886" lon="13.702375972643495">
        <ele>50.590000000000003</ele>
        <time>2019-06-23T10:53:49Z</time>
      </trkpt>
      <trkpt lat="52.039598040282726" lon="13.702203975990415">
        <ele>50.590000000000003</ele>
        <time>2019-06-23T10:53:50Z</time>
      </trkpt>
      <trkpt lat="52.038675025105476" lon="13.701238967478275">
        <ele>49.149999999999999</ele>
        <time>2019-06-23T10:53:57Z</time>
      </trkpt>
      <trkpt lat="52.037452021613717" lon="13.700037002563477">
        <ele>46.270000000000003</ele>
        <time>2019-06-23T10:54:06Z</time>
      </trkpt>
      <trkpt lat="52.035885024815798" lon="13.698471011593938">
        <ele>38.579999999999998</ele>
        <time>2019-06-23T10:54:17Z</time>
      </trkpt>
      <trkpt lat="52.034854972735047" lon="13.697504997253418">
        <ele>34.729999999999997</ele>
        <time>2019-06-23T10:54:24Z</time>
      </trkpt>
      <trkpt lat="52.034705020487309" lon="13.697461998090148">
        <ele>34.729999999999997</ele>
        <time>2019-06-23T10:54:25Z</time>
      </trkpt>
      <trkpt lat="52.033396018669009" lon="13.697011973708868">
        <ele>34.25</ele>
        <time>2019-06-23T10:54:32Z</time>
      </trkpt>
      <trkpt lat="52.032237974926829" lon="13.696518028154969">
        <ele>32.810000000000002</ele>
        <time>2019-06-23T10:54:40Z</time>
      </trkpt>
      <trkpt lat="52.030993010848761" lon="13.696109997108579">
        <ele>36.18</ele>
        <time>2019-06-23T10:54:51Z</time>
      </trkpt>
      <trkpt lat="52.029942004010081" lon="13.695810008794069">
        <ele>41.460000000000001</ele>
        <time>2019-06-23T10:55:00Z</time>
      </trkpt>
      <trkpt lat="52.0298339612782" lon="13.695830963551998">
        <ele>41.939999999999998</ele>
        <time>2019-06-23T10:55:01Z</time>
      </trkpt>
      <trkpt lat="52.029705969616771" lon="13.695873962715268">
        <ele>41.460000000000001</ele>
        <time>2019-06-23T10:55:02Z</time>
      </trkpt>
      <trkpt lat="52.029018988832831" lon="13.696025004610419">
        <ele>42.899999999999999</ele>
        <time>2019-06-23T10:55:08Z</time>
      </trkpt>
      <trkpt lat="52.028912035748363" lon="13.696025004610419">
        <ele>42.899999999999999</ele>
        <time>2019-06-23T10:55:09Z</time>
      </trkpt>
      <trkpt lat="52.028826037421823" lon="13.695916961878538">
        <ele>43.380000000000003</ele>
        <time>2019-06-23T10:55:10Z</time>
      </trkpt>
      <trkpt lat="52.028740039095283" lon="13.695810008794069">
        <ele>43.380000000000003</ele>
        <time>2019-06-23T10:55:11Z</time>
      </trkpt>
      <trkpt lat="52.028654040768743" lon="13.695702971890569">
        <ele>43.869999999999997</ele>
        <time>2019-06-23T10:55:12Z</time>
      </trkpt>
      <trkpt lat="52.028567958623171" lon="13.69555301964283">
        <ele>43.869999999999997</ele>
        <time>2019-06-23T10:55:13Z</time>
      </trkpt>
      <trkpt lat="52.028310969471931" lon="13.694929992780089">
        <ele>45.310000000000002</ele>
        <time>2019-06-23T10:55:17Z</time>
      </trkpt>
      <trkpt lat="52.028310969471931" lon="13.69467300362885">
        <ele>45.789999999999999</ele>
        <time>2019-06-23T10:55:18Z</time>
      </trkpt>
      <trkpt lat="52.028267970308661" lon="13.694479968398809">
        <ele>46.270000000000003</ele>
        <time>2019-06-23T10:55:19Z</time>
      </trkpt>
      <trkpt lat="52.027924982830882" lon="13.692420031875372">
        <ele>48.189999999999998</ele>
        <time>2019-06-23T10:55:31Z</time>
      </trkpt>
      <trkpt lat="52.027817023918033" lon="13.691969001665711">
        <ele>48.189999999999998</ele>
        <time>2019-06-23T10:55:34Z</time>
      </trkpt>
      <trkpt lat="52.027774024754763" lon="13.691797005012631">
        <ele>48.189999999999998</ele>
        <time>2019-06-23T10:55:35Z</time>
      </trkpt>
      <trkpt lat="52.027580989524722" lon="13.691088985651731">
        <ele>48.670000000000002</ele>
        <time>2019-06-23T10:55:41Z</time>
      </trkpt>
      <trkpt lat="52.027345038950443" lon="13.689779983833432">
        <ele>48.189999999999998</ele>
        <time>2019-06-23T10:55:46Z</time>
      </trkpt>
      <trkpt lat="52.026981012895703" lon="13.687656009569764">
        <ele>46.270000000000003</ele>
        <time>2019-06-23T10:55:53Z</time>
      </trkpt>
      <trkpt lat="52.026466028764844" lon="13.684372985735536">
        <ele>45.789999999999999</ele>
        <time>2019-06-23T10:56:06Z</time>
      </trkpt>
      <trkpt lat="52.026271987706423" lon="13.682806994765997">
        <ele>48.670000000000002</ele>
        <time>2019-06-23T10:56:12Z</time>
      </trkpt>
      <trkpt lat="52.026251032948494" lon="13.682656036689878">
        <ele>49.149999999999999</ele>
        <time>2019-06-23T10:56:14Z</time>
      </trkpt>
      <trkpt lat="52.025778964161873" lon="13.681175960227847">
        <ele>53</ele>
        <time>2019-06-23T10:56:20Z</time>
      </trkpt>
      <trkpt lat="52.025757003575563" lon="13.681046962738037">
        <ele>53</ele>
        <time>2019-06-23T10:56:21Z</time>
      </trkpt>
      <trkpt lat="52.025457015261054" lon="13.6788160353899">
        <ele>51.560000000000002</ele>
        <time>2019-06-23T10:56:28Z</time>
      </trkpt>
      <trkpt lat="52.025091983377934" lon="13.6768629681319">
        <ele>48.670000000000002</ele>
        <time>2019-06-23T10:56:34Z</time>
      </trkpt>
      <trkpt lat="52.024963991716504" lon="13.676584018394351">
        <ele>48.189999999999998</ele>
        <time>2019-06-23T10:56:35Z</time>
      </trkpt>
      <trkpt lat="52.023891024291515" lon="13.673987975344062">
        <ele>47.710000000000001</ele>
        <time>2019-06-23T10:56:44Z</time>
      </trkpt>
      <trkpt lat="52.023224998265505" lon="13.671991992741823">
        <ele>49.630000000000003</ele>
        <time>2019-06-23T10:56:52Z</time>
      </trkpt>
      <trkpt lat="52.022688975557685" lon="13.669653022661805">
        <ele>48.670000000000002</ele>
        <time>2019-06-23T10:57:01Z</time>
      </trkpt>
      <trkpt lat="52.022625021636486" lon="13.669481026008725">
        <ele>48.670000000000002</ele>
        <time>2019-06-23T10:57:02Z</time>
      </trkpt>
      <trkpt lat="52.022496024146676" lon="13.669353034347296">
        <ele>48.189999999999998</ele>
        <time>2019-06-23T10:57:03Z</time>
      </trkpt>
      <trkpt lat="52.022367026656866" lon="13.669224036857486">
        <ele>48.189999999999998</ele>
        <time>2019-06-23T10:57:04Z</time>
      </trkpt>
      <trkpt lat="52.022173991426826" lon="13.669116999953985">
        <ele>48.189999999999998</ele>
        <time>2019-06-23T10:57:05Z</time>
      </trkpt>
      <trkpt lat="52.022001994773746" lon="13.669009041041136">
        <ele>48.189999999999998</ele>
        <time>2019-06-23T10:57:06Z</time>
      </trkpt>
      <trkpt lat="52.020328966900706" lon="13.667893996462226">
        <ele>46.270000000000003</ele>
        <time>2019-06-23T10:57:17Z</time>
      </trkpt>
      <trkpt lat="52.019964018836617" lon="13.667399967089295">
        <ele>45.310000000000002</ele>
        <time>2019-06-23T10:57:21Z</time>
      </trkpt>
      <trkpt lat="52.019878020510077" lon="13.667270969599485">
        <ele>44.829999999999998</ele>
        <time>2019-06-23T10:57:22Z</time>
      </trkpt>
      <trkpt lat="52.019770983606577" lon="13.667142977938056">
        <ele>45.310000000000002</ele>
        <time>2019-06-23T10:57:23Z</time>
      </trkpt>
      <trkpt lat="52.019727984443307" lon="13.666949020698667">
        <ele>45.310000000000002</ele>
        <time>2019-06-23T10:57:24Z</time>
      </trkpt>
      <trkpt lat="52.019684985280037" lon="13.666712986305356">
        <ele>45.789999999999999</ele>
        <time>2019-06-23T10:57:25Z</time>
      </trkpt>
      <trkpt lat="52.019621031358838" lon="13.666434036567807">
        <ele>46.270000000000003</ele>
        <time>2019-06-23T10:57:26Z</time>
      </trkpt>
      <trkpt lat="52.019598986953497" lon="13.666113009676337">
        <ele>46.270000000000003</ele>
        <time>2019-06-23T10:57:27Z</time>
      </trkpt>
      <trkpt lat="52.019341997802258" lon="13.663515960797668">
        <ele>45.310000000000002</ele>
        <time>2019-06-23T10:57:35Z</time>
      </trkpt>
      <trkpt lat="52.019041003659368" lon="13.660534014925361">
        <ele>45.789999999999999</ele>
        <time>2019-06-23T10:57:45Z</time>
      </trkpt>
      <trkpt lat="52.018976965919137" lon="13.66038297303021">
        <ele>45.789999999999999</ele>
        <time>2019-06-23T10:57:46Z</time>
      </trkpt>
      <trkpt lat="52.018890967592597" lon="13.660190021619201">
        <ele>45.789999999999999</ele>
        <time>2019-06-23T10:57:47Z</time>
      </trkpt>
      <trkpt lat="52.018804969266057" lon="13.65999698638916">
        <ele>45.789999999999999</ele>
        <time>2019-06-23T10:57:48Z</time>
      </trkpt>
      <trkpt lat="52.018289985135198" lon="13.65920296870172">
        <ele>45.789999999999999</ele>
        <time>2019-06-23T10:57:54Z</time>
      </trkpt>
      <trkpt lat="52.017475012689829" lon="13.658452033996582">
        <ele>47.229999999999997</ele>
        <time>2019-06-23T10:58:04Z</time>
      </trkpt>
      <trkpt lat="52.017389014363289" lon="13.658430995419621">
        <ele>47.229999999999997</ele>
        <time>2019-06-23T10:58:05Z</time>
      </trkpt>
      <trkpt lat="52.017303016036749" lon="13.658409034833312">
        <ele>47.229999999999997</ele>
        <time>2019-06-23T10:58:06Z</time>
      </trkpt>
      <trkpt lat="52.017195979133248" lon="13.658409034833312">
        <ele>47.710000000000001</ele>
        <time>2019-06-23T10:58:07Z</time>
      </trkpt>
      <trkpt lat="52.017089026048779" lon="13.658387996256351">
        <ele>47.710000000000001</ele>
        <time>2019-06-23T10:58:08Z</time>
      </trkpt>
      <trkpt lat="52.016100967302918" lon="13.658387996256351">
        <ele>49.149999999999999</ele>
        <time>2019-06-23T10:58:17Z</time>
      </trkpt>
      <trkpt lat="52.01599401421845" lon="13.658430995419621">
        <ele>49.630000000000003</ele>
        <time>2019-06-23T10:58:18Z</time>
      </trkpt>
      <trkpt lat="52.015222040936351" lon="13.658644985407591">
        <ele>50.590000000000003</ele>
        <time>2019-06-23T10:58:26Z</time>
      </trkpt>
      <trkpt lat="52.014428023248911" lon="13.658796027302742">
        <ele>50.590000000000003</ele>
        <time>2019-06-23T10:58:34Z</time>
      </trkpt>
      <trkpt lat="52.014385024085641" lon="13.658796027302742">
        <ele>50.590000000000003</ele>
        <time>2019-06-23T10:58:35Z</time>
      </trkpt>
      <trkpt lat="52.014342024922371" lon="13.658816982060671">
        <ele>50.590000000000003</ele>
        <time>2019-06-23T10:58:36Z</time>
      </trkpt>
      <trkpt lat="52.01432098634541" lon="13.658816982060671">
        <ele>50.590000000000003</ele>
        <time>2019-06-23T10:58:37Z</time>
      </trkpt>
      <trkpt lat="52.014299025759101" lon="13.658796027302742">
        <ele>51.079999999999998</ele>
        <time>2019-06-23T10:58:38Z</time>
      </trkpt>
      <trkpt lat="52.014299025759101" lon="13.658710028976202">
        <ele>51.079999999999998</ele>
        <time>2019-06-23T10:58:39Z</time>
      </trkpt>
      <trkpt lat="52.014299025759101" lon="13.658581031486392">
        <ele>51.560000000000002</ele>
        <time>2019-06-23T10:58:40Z</time>
      </trkpt>
      <trkpt lat="52.014299025759101" lon="13.658409034833312">
        <ele>51.560000000000002</ele>
        <time>2019-06-23T10:58:41Z</time>
      </trkpt>
      <trkpt lat="52.01432098634541" lon="13.658215999603271">
        <ele>52.039999999999999</ele>
        <time>2019-06-23T10:58:42Z</time>
      </trkpt>
      <trkpt lat="52.0143629796803" lon="13.656584965065122">
        <ele>52.039999999999999</ele>
        <time>2019-06-23T10:58:48Z</time>
      </trkpt>
      <trkpt lat="52.01477101072669" lon="13.654052959755063">
        <ele>52.520000000000003</ele>
        <time>2019-06-23T10:58:57Z</time>
      </trkpt>
      <trkpt lat="52.01524299569428" lon="13.651628997176886">
        <ele>53.479999999999997</ele>
        <time>2019-06-23T10:59:05Z</time>
      </trkpt>
      <trkpt lat="52.01578002423048" lon="13.648881996050477">
        <ele>53.479999999999997</ele>
        <time>2019-06-23T10:59:14Z</time>
      </trkpt>
      <trkpt lat="52.01603701338172" lon="13.647552039474249">
        <ele>53.960000000000001</ele>
        <time>2019-06-23T10:59:21Z</time>
      </trkpt>
      <trkpt lat="52.016380000859499" lon="13.645984958857298">
        <ele>53.960000000000001</ele>
        <time>2019-06-23T10:59:31Z</time>
      </trkpt>
      <trkpt lat="52.016444960609078" lon="13.645835006609559">
        <ele>53.960000000000001</ele>
        <time>2019-06-23T10:59:32Z</time>
      </trkpt>
      <trkpt lat="52.016508998349309" lon="13.645706009119749">
        <ele>53.960000000000001</ele>
        <time>2019-06-23T10:59:33Z</time>
      </trkpt>
      <trkpt lat="52.016573958098888" lon="13.645555973052979">
        <ele>53.960000000000001</ele>
        <time>2019-06-23T10:59:34Z</time>
      </trkpt>
      <trkpt lat="52.01687403023243" lon="13.644911991432309">
        <ele>54.439999999999998</ele>
        <time>2019-06-23T10:59:39Z</time>
      </trkpt>
      <trkpt lat="52.0169170293957" lon="13.64474100060761">
        <ele>54.439999999999998</ele>
        <time>2019-06-23T10:59:40Z</time>
      </trkpt>
      <trkpt lat="52.016960028558969" lon="13.64456900395453">
        <ele>54.439999999999998</ele>
        <time>2019-06-23T10:59:41Z</time>
      </trkpt>
      <trkpt lat="52.017518011853099" lon="13.641714965924621">
        <ele>56.359999999999999</ele>
        <time>2019-06-23T10:59:57Z</time>
      </trkpt>
      <trkpt lat="52.017689002677798" lon="13.640042021870613">
        <ele>56.840000000000003</ele>
        <time>2019-06-23T11:00:06Z</time>
      </trkpt>
      <trkpt lat="52.017968036234379" lon="13.638624977320433">
        <ele>57.799999999999997</ele>
        <time>2019-06-23T11:00:12Z</time>
      </trkpt>
      <trkpt lat="52.018612017855048" lon="13.636115016415715">
        <ele>57.799999999999997</ele>
        <time>2019-06-23T11:00:22Z</time>
      </trkpt>
      <trkpt lat="52.018955005332828" lon="13.634849013760686">
        <ele>56.359999999999999</ele>
        <time>2019-06-23T11:00:29Z</time>
      </trkpt>
      <trkpt lat="52.019170001149178" lon="13.632959984242916">
        <ele>58.289999999999999</ele>
        <time>2019-06-23T11:00:38Z</time>
      </trkpt>
      <trkpt lat="52.019384996965528" lon="13.630879009142518">
        <ele>59.729999999999997</ele>
        <time>2019-06-23T11:00:48Z</time>
      </trkpt>
      <trkpt lat="52.019641986116767" lon="13.628519000485539">
        <ele>60.210000000000001</ele>
        <time>2019-06-23T11:00:59Z</time>
      </trkpt>
      <trkpt lat="52.019835021346807" lon="13.626566017046571">
        <ele>55.399999999999999</ele>
        <time>2019-06-23T11:01:09Z</time>
      </trkpt>
      <trkpt lat="52.019856981933117" lon="13.626394020393491">
        <ele>54.920000000000002</ele>
        <time>2019-06-23T11:01:10Z</time>
      </trkpt>
      <trkpt lat="52.019921019673347" lon="13.626223029568791">
        <ele>54.439999999999998</ele>
        <time>2019-06-23T11:01:11Z</time>
      </trkpt>
      <trkpt lat="52.019964018836617" lon="13.626051032915711">
        <ele>53.479999999999997</ele>
        <time>2019-06-23T11:01:12Z</time>
      </trkpt>
      <trkpt lat="52.020586039870977" lon="13.624548995867372">
        <ele>51.560000000000002</ele>
        <time>2019-06-23T11:01:20Z</time>
      </trkpt>
      <trkpt lat="52.021444011479616" lon="13.622210025787354">
        <ele>51.560000000000002</ele>
        <time>2019-06-23T11:01:31Z</time>
      </trkpt>
      <trkpt lat="52.021895041689277" lon="13.620664989575744">
        <ele>52.520000000000003</ele>
        <time>2019-06-23T11:01:38Z</time>
      </trkpt>
      <trkpt lat="52.021938040852547" lon="13.620429039001465">
        <ele>53</ele>
        <time>2019-06-23T11:01:39Z</time>
      </trkpt>
      <trkpt lat="52.022216990590096" lon="13.618347980082035">
        <ele>53</ele>
        <time>2019-06-23T11:01:47Z</time>
      </trkpt>
      <trkpt lat="52.022302988916636" lon="13.615901973098516">
        <ele>51.560000000000002</ele>
        <time>2019-06-23T11:01:57Z</time>
      </trkpt>
      <trkpt lat="52.022281028330326" lon="13.614185024052858">
        <ele>49.149999999999999</ele>
        <time>2019-06-23T11:02:04Z</time>
      </trkpt>
      <trkpt lat="52.022345988079906" lon="13.613991988822818">
        <ele>48.670000000000002</ele>
        <time>2019-06-23T11:02:05Z</time>
      </trkpt>
      <trkpt lat="52.022453024983406" lon="13.613776993006468">
        <ele>48.189999999999998</ele>
        <time>2019-06-23T11:02:06Z</time>
      </trkpt>
      <trkpt lat="52.022559978067875" lon="13.613540958613157">
        <ele>48.189999999999998</ele>
        <time>2019-06-23T11:02:07Z</time>
      </trkpt>
      <trkpt lat="52.022668020799756" lon="13.613326968625188">
        <ele>47.229999999999997</ele>
        <time>2019-06-23T11:02:08Z</time>
      </trkpt>
      <trkpt lat="52.023333040997386" lon="13.611953007057309">
        <ele>45.789999999999999</ele>
        <time>2019-06-23T11:02:15Z</time>
      </trkpt>
      <trkpt lat="52.023976016789675" lon="13.609872031956911">
        <ele>43.869999999999997</ele>
        <time>2019-06-23T11:02:25Z</time>
      </trkpt>
      <trkpt lat="52.024297965690494" lon="13.60931396484375">
        <ele>44.350000000000001</ele>
        <time>2019-06-23T11:02:27Z</time>
      </trkpt>
      <trkpt lat="52.024748995900154" lon="13.607532978057861">
        <ele>44.829999999999998</ele>
        <time>2019-06-23T11:02:34Z</time>
      </trkpt>
      <trkpt lat="52.025306979194283" lon="13.604057002812624">
        <ele>45.789999999999999</ele>
        <time>2019-06-23T11:02:47Z</time>
      </trkpt>
      <trkpt lat="52.025649966672063" lon="13.601824985817075">
        <ele>46.75</ele>
        <time>2019-06-23T11:02:55Z</time>
      </trkpt>
      <trkpt lat="52.025649966672063" lon="13.600000999867916">
        <ele>46.75</ele>
        <time>2019-06-23T11:03:01Z</time>
      </trkpt>
      <trkpt lat="52.025629011914134" lon="13.598972037434578">
        <ele>46.270000000000003</ele>
        <time>2019-06-23T11:03:05Z</time>
      </trkpt>
      <trkpt lat="52.025821963325143" lon="13.596440032124519">
        <ele>43.380000000000003</ele>
        <time>2019-06-23T11:03:14Z</time>
      </trkpt>
      <trkpt lat="52.025843001902103" lon="13.59425101429224">
        <ele>40.020000000000003</ele>
        <time>2019-06-23T11:03:21Z</time>
      </trkpt>
      <trkpt lat="52.025907961651683" lon="13.59328499995172">
        <ele>37.619999999999997</ele>
        <time>2019-06-23T11:03:25Z</time>
      </trkpt>
      <trkpt lat="52.026229994371533" lon="13.592147994786501">
        <ele>35.689999999999998</ele>
        <time>2019-06-23T11:03:30Z</time>
      </trkpt>
      <trkpt lat="52.026380030438304" lon="13.591247024014592">
        <ele>34.25</ele>
        <time>2019-06-23T11:03:34Z</time>
      </trkpt>
      <trkpt lat="52.026357986032963" lon="13.589915977790952">
        <ele>31.850000000000001</ele>
        <time>2019-06-23T11:03:42Z</time>
      </trkpt>
      <trkpt lat="52.026423029601574" lon="13.589529991149902">
        <ele>32.329999999999998</ele>
        <time>2019-06-23T11:03:44Z</time>
      </trkpt>
      <trkpt lat="52.026294032111764" lon="13.589400993660092">
        <ele>32.810000000000002</ele>
        <time>2019-06-23T11:03:45Z</time>
      </trkpt>
      <trkpt lat="52.026294032111764" lon="13.589380038902164">
        <ele>32.810000000000002</ele>
        <time>2019-06-23T11:03:46Z</time>
      </trkpt>
      <trkpt lat="52.026229994371533" lon="13.589164959266782">
        <ele>32.329999999999998</ele>
        <time>2019-06-23T11:03:47Z</time>
      </trkpt>
      <trkpt lat="52.026143996044993" lon="13.588886009529233">
        <ele>32.810000000000002</ele>
        <time>2019-06-23T11:03:48Z</time>
      </trkpt>
      <trkpt lat="52.025778964161873" lon="13.587706005200744">
        <ele>34.729999999999997</ele>
        <time>2019-06-23T11:03:54Z</time>
      </trkpt>
      <trkpt lat="52.025586012750864" lon="13.586997985839844">
        <ele>36.659999999999997</ele>
        <time>2019-06-23T11:03:58Z</time>
      </trkpt>
      <trkpt lat="52.025586012750864" lon="13.586805034428835">
        <ele>37.140000000000001</ele>
        <time>2019-06-23T11:03:59Z</time>
      </trkpt>
      <trkpt lat="52.025606967508793" lon="13.586590038612485">
        <ele>38.100000000000001</ele>
        <time>2019-06-23T11:04:00Z</time>
      </trkpt>
      <trkpt lat="52.025649966672063" lon="13.586397003382444">
        <ele>38.579999999999998</ele>
        <time>2019-06-23T11:04:01Z</time>
      </trkpt>
      <trkpt lat="52.025715010240674" lon="13.586183013394475">
        <ele>39.060000000000002</ele>
        <time>2019-06-23T11:04:02Z</time>
      </trkpt>
      <trkpt lat="52.025778964161873" lon="13.585989978164434">
        <ele>39.539999999999999</ele>
        <time>2019-06-23T11:04:03Z</time>
      </trkpt>
      <trkpt lat="52.026251032948494" lon="13.584422981366515">
        <ele>44.829999999999998</ele>
        <time>2019-06-23T11:04:13Z</time>
      </trkpt>
      <trkpt lat="52.026658980175853" lon="13.583050025627017">
        <ele>48.189999999999998</ele>
        <time>2019-06-23T11:04:23Z</time>
      </trkpt>
      <trkpt lat="52.026958968490362" lon="13.581547988578677">
        <ele>53</ele>
        <time>2019-06-23T11:04:35Z</time>
      </trkpt>
      <trkpt lat="52.027130965143442" lon="13.580667972564697">
        <ele>53.960000000000001</ele>
        <time>2019-06-23T11:04:44Z</time>
      </trkpt>
      <trkpt lat="52.027238002046943" lon="13.580066990107298">
        <ele>55.880000000000003</ele>
        <time>2019-06-23T11:04:55Z</time>
      </trkpt>
      <trkpt lat="52.027324000373483" lon="13.579659964889288">
        <ele>56.359999999999999</ele>
        <time>2019-06-23T11:05:04Z</time>
      </trkpt>
      <trkpt lat="52.027324000373483" lon="13.579638004302979">
        <ele>56.359999999999999</ele>
        <time>2019-06-23T11:05:05Z</time>
      </trkpt>
      <trkpt lat="52.027324000373483" lon="13.579616965726018">
        <ele>56.359999999999999</ele>
        <time>2019-06-23T11:05:06Z</time>
      </trkpt>
      <trkpt lat="52.027302039787173" lon="13.579788040369749">
        <ele>56.359999999999999</ele>
        <time>2019-06-23T11:05:14Z</time>
      </trkpt>
      <trkpt lat="52.027259040623903" lon="13.579960037022829">
        <ele>55.399999999999999</ele>
        <time>2019-06-23T11:05:20Z</time>
      </trkpt>
      <trkpt lat="52.027259040623903" lon="13.579960037022829">
        <ele>54.920000000000002</ele>
        <time>2019-06-23T11:05:21Z</time>
      </trkpt>
      <trkpt lat="52.027259040623903" lon="13.579960037022829">
        <ele>54.920000000000002</ele>
        <time>2019-06-23T11:05:36Z</time>
      </trkpt>
      <trkpt lat="52.027345038950443" lon="13.580046035349369">
        <ele>65.980000000000004</ele>
        <time>2019-06-23T12:24:37Z</time>
      </trkpt>
      <trkpt lat="52.027281001210213" lon="13.580046035349369">
        <ele>64.049999999999997</ele>
        <time>2019-06-23T12:24:43Z</time>
      </trkpt>
      <trkpt lat="52.027259040623903" lon="13.580003036186099">
        <ele>60.689999999999998</ele>
        <time>2019-06-23T12:24:46Z</time>
      </trkpt>
      <trkpt lat="52.027259040623903" lon="13.579980991780758">
        <ele>60.210000000000001</ele>
        <time>2019-06-23T12:24:47Z</time>
      </trkpt>
      <trkpt lat="52.027281001210213" lon="13.579874038696289">
        <ele>58.770000000000003</ele>
        <time>2019-06-23T12:24:48Z</time>
      </trkpt>
      <trkpt lat="52.027302039787173" lon="13.579788040369749">
        <ele>58.289999999999999</ele>
        <time>2019-06-23T12:24:49Z</time>
      </trkpt>
      <trkpt lat="52.027431037276983" lon="13.579144980758429">
        <ele>56.359999999999999</ele>
        <time>2019-06-23T12:24:58Z</time>
      </trkpt>
      <trkpt lat="52.027666987851262" lon="13.5779860150069">
        <ele>53.960000000000001</ele>
        <time>2019-06-23T12:25:10Z</time>
      </trkpt>
      <trkpt lat="52.028052974492311" lon="13.576162029057741">
        <ele>55.880000000000003</ele>
        <time>2019-06-23T12:25:25Z</time>
      </trkpt>
      <trkpt lat="52.028439966961741" lon="13.574767028912902">
        <ele>54.920000000000002</ele>
        <time>2019-06-23T12:25:33Z</time>
      </trkpt>
      <trkpt lat="52.028611041605473" lon="13.574080970138311">
        <ele>54.439999999999998</ele>
        <time>2019-06-23T12:25:36Z</time>
      </trkpt>
      <trkpt lat="52.028676001355052" lon="13.573373034596443">
        <ele>53.479999999999997</ele>
        <time>2019-06-23T12:25:39Z</time>
      </trkpt>
      <trkpt lat="52.028761999681592" lon="13.572364021092653">
        <ele>53.479999999999997</ele>
        <time>2019-06-23T12:25:43Z</time>
      </trkpt>
      <trkpt lat="52.028783038258553" lon="13.572107031941414">
        <ele>53.479999999999997</ele>
        <time>2019-06-23T12:25:44Z</time>
      </trkpt>
      <trkpt lat="52.028869036585093" lon="13.570798030123115">
        <ele>53.960000000000001</ele>
        <time>2019-06-23T12:25:49Z</time>
      </trkpt>
      <trkpt lat="52.028889991343021" lon="13.570561995729804">
        <ele>53.960000000000001</ele>
        <time>2019-06-23T12:25:50Z</time>
      </trkpt>
      <trkpt lat="52.029018988832831" lon="13.568586967885494">
        <ele>55.880000000000003</ele>
        <time>2019-06-23T12:25:58Z</time>
      </trkpt>
      <trkpt lat="52.029018988832831" lon="13.568266024813056">
        <ele>55.880000000000003</ele>
        <time>2019-06-23T12:25:59Z</time>
      </trkpt>
      <trkpt lat="52.029040027409792" lon="13.567965030670166">
        <ele>55.880000000000003</ele>
        <time>2019-06-23T12:26:00Z</time>
      </trkpt>
      <trkpt lat="52.029427019879222" lon="13.565368987619877">
        <ele>53.960000000000001</ele>
        <time>2019-06-23T12:26:08Z</time>
      </trkpt>
      <trkpt lat="52.029727008193731" lon="13.563330005854368">
        <ele>52.520000000000003</ele>
        <time>2019-06-23T12:26:14Z</time>
      </trkpt>
      <trkpt lat="52.029748968780041" lon="13.563007973134518">
        <ele>52.520000000000003</ele>
        <time>2019-06-23T12:26:15Z</time>
      </trkpt>
      <trkpt lat="52.029727008193731" lon="13.562644030898809">
        <ele>52.520000000000003</ele>
        <time>2019-06-23T12:26:16Z</time>
      </trkpt>
      <trkpt lat="52.029684009030461" lon="13.562300037592649">
        <ele>52.520000000000003</ele>
        <time>2019-06-23T12:26:17Z</time>
      </trkpt>
      <trkpt lat="52.029619971290231" lon="13.56193601153791">
        <ele>52.520000000000003</ele>
        <time>2019-06-23T12:26:18Z</time>
      </trkpt>
      <trkpt lat="52.029318977147341" lon="13.55961799621582">
        <ele>50.590000000000003</ele>
        <time>2019-06-23T12:26:25Z</time>
      </trkpt>
      <trkpt lat="52.029341021552682" lon="13.55929596349597">
        <ele>50.109999999999999</ele>
        <time>2019-06-23T12:26:26Z</time>
      </trkpt>
      <trkpt lat="52.029361976310611" lon="13.558932021260262">
        <ele>49.630000000000003</ele>
        <time>2019-06-23T12:26:27Z</time>
      </trkpt>
      <trkpt lat="52.029470019042492" lon="13.556850040331483">
        <ele>48.670000000000002</ele>
        <time>2019-06-23T12:26:34Z</time>
      </trkpt>
      <trkpt lat="52.029404975473881" lon="13.556614005938172">
        <ele>49.149999999999999</ele>
        <time>2019-06-23T12:26:35Z</time>
      </trkpt>
      <trkpt lat="52.029318977147341" lon="13.556377971544862">
        <ele>49.149999999999999</ele>
        <time>2019-06-23T12:26:36Z</time>
      </trkpt>
      <trkpt lat="52.029212024062872" lon="13.556142020970583">
        <ele>49.149999999999999</ele>
        <time>2019-06-23T12:26:37Z</time>
      </trkpt>
      <trkpt lat="52.029061987996101" lon="13.555948985740542">
        <ele>49.630000000000003</ele>
        <time>2019-06-23T12:26:38Z</time>
      </trkpt>
      <trkpt lat="52.028912035748363" lon="13.555776989087462">
        <ele>49.149999999999999</ele>
        <time>2019-06-23T12:26:39Z</time>
      </trkpt>
      <trkpt lat="52.028719000518322" lon="13.555647991597652">
        <ele>49.149999999999999</ele>
        <time>2019-06-23T12:26:40Z</time>
      </trkpt>
      <trkpt lat="52.028504004701972" lon="13.555541038513184">
        <ele>49.149999999999999</ele>
        <time>2019-06-23T12:26:41Z</time>
      </trkpt>
      <trkpt lat="52.028289008885622" lon="13.555455040186644">
        <ele>48.670000000000002</ele>
        <time>2019-06-23T12:26:43Z</time>
      </trkpt>
      <trkpt lat="52.026551021263003" lon="13.554811980575323">
        <ele>47.710000000000001</ele>
        <time>2019-06-23T12:26:51Z</time>
      </trkpt>
      <trkpt lat="52.025543013587594" lon="13.553996002301574">
        <ele>49.149999999999999</ele>
        <time>2019-06-23T12:26:57Z</time>
      </trkpt>
      <trkpt lat="52.025071028620005" lon="13.553610015660524">
        <ele>51.079999999999998</ele>
        <time>2019-06-23T12:27:03Z</time>
      </trkpt>
      <trkpt lat="52.025028029456735" lon="13.553567016497254">
        <ele>51.560000000000002</ele>
        <time>2019-06-23T12:27:04Z</time>
      </trkpt>
      <trkpt lat="52.025005985051394" lon="13.553502978757024">
        <ele>51.560000000000002</ele>
        <time>2019-06-23T12:27:05Z</time>
      </trkpt>
      <trkpt lat="52.025005985051394" lon="13.553438019007444">
        <ele>52.520000000000003</ele>
        <time>2019-06-23T12:27:07Z</time>
      </trkpt>
      <trkpt lat="52.025028029456735" lon="13.553330982103944">
        <ele>52.520000000000003</ele>
        <time>2019-06-23T12:27:08Z</time>
      </trkpt>
      <trkpt lat="52.025048984214664" lon="13.553201984614134">
        <ele>53</ele>
        <time>2019-06-23T12:27:09Z</time>
      </trkpt>
      <trkpt lat="52.025371016934514" lon="13.551829028874636">
        <ele>57.32</ele>
        <time>2019-06-23T12:27:18Z</time>
      </trkpt>
      <trkpt lat="52.025392977520823" lon="13.551700031384826">
        <ele>57.32</ele>
        <time>2019-06-23T12:27:19Z</time>
      </trkpt>
      <trkpt lat="52.025414016097784" lon="13.551592994481325">
        <ele>57.32</ele>
        <time>2019-06-23T12:27:20Z</time>
      </trkpt>
      <trkpt lat="52.025392977520823" lon="13.551442958414555">
        <ele>57.32</ele>
        <time>2019-06-23T12:27:21Z</time>
      </trkpt>
      <trkpt lat="52.024834994226694" lon="13.549898006021976">
        <ele>56.359999999999999</ele>
        <time>2019-06-23T12:27:30Z</time>
      </trkpt>
      <trkpt lat="52.024019015952945" lon="13.547859024256468">
        <ele>57.799999999999997</ele>
        <time>2019-06-23T12:27:40Z</time>
      </trkpt>
      <trkpt lat="52.023160960525274" lon="13.546121036633849">
        <ele>58.289999999999999</ele>
        <time>2019-06-23T12:27:46Z</time>
      </trkpt>
      <trkpt lat="52.023031963035464" lon="13.545820964500308">
        <ele>58.289999999999999</ele>
        <time>2019-06-23T12:27:47Z</time>
      </trkpt>
      <trkpt lat="52.022903971374035" lon="13.545499015599489">
        <ele>57.799999999999997</ele>
        <time>2019-06-23T12:27:49Z</time>
      </trkpt>
      <trkpt lat="52.022367026656866" lon="13.543953979387879">
        <ele>56.840000000000003</ele>
        <time>2019-06-23T12:27:55Z</time>
      </trkpt>
      <trkpt lat="52.022367026656866" lon="13.543632030487061">
        <ele>56.840000000000003</ele>
        <time>2019-06-23T12:27:56Z</time>
      </trkpt>
      <trkpt lat="52.022453024983406" lon="13.543461039662361">
        <ele>56.359999999999999</ele>
        <time>2019-06-23T12:27:57Z</time>
      </trkpt>
      <trkpt lat="52.022539023309946" lon="13.54326699860394">
        <ele>55.880000000000003</ele>
        <time>2019-06-23T12:27:59Z</time>
      </trkpt>
      <trkpt lat="52.023997977375984" lon="13.541529010981321">
        <ele>61.649999999999999</ele>
        <time>2019-06-23T12:28:10Z</time>
      </trkpt>
      <trkpt lat="52.024083975702524" lon="13.541335975751281">
        <ele>62.130000000000003</ele>
        <time>2019-06-23T12:28:11Z</time>
      </trkpt>
      <trkpt lat="52.024126974865794" lon="13.541143024340272">
        <ele>63.090000000000003</ele>
        <time>2019-06-23T12:28:12Z</time>
      </trkpt>
      <trkpt lat="52.024105014279485" lon="13.540949989110231">
        <ele>63.57</ele>
        <time>2019-06-23T12:28:13Z</time>
      </trkpt>
      <trkpt lat="52.024083975702524" lon="13.540777992457151">
        <ele>64.530000000000001</ele>
        <time>2019-06-23T12:28:14Z</time>
      </trkpt>
      <trkpt lat="52.024019015952945" lon="13.540585041046143">
        <ele>65.5</ele>
        <time>2019-06-23T12:28:15Z</time>
      </trkpt>
      <trkpt lat="52.023934023454785" lon="13.540455959737301">
        <ele>65.980000000000004</ele>
        <time>2019-06-23T12:28:16Z</time>
      </trkpt>
      <trkpt lat="52.023868979886174" lon="13.540370967239141">
        <ele>66.459999999999994</ele>
        <time>2019-06-23T12:28:17Z</time>
      </trkpt>
      <trkpt lat="52.023805025964975" lon="13.540327968075871">
        <ele>66.459999999999994</ele>
        <time>2019-06-23T12:28:18Z</time>
      </trkpt>
      <trkpt lat="52.023719027638435" lon="13.540306007489562">
        <ele>65.980000000000004</ele>
        <time>2019-06-23T12:28:19Z</time>
      </trkpt>
      <trkpt lat="52.023611990734935" lon="13.540306007489562">
        <ele>65.980000000000004</ele>
        <time>2019-06-23T12:28:20Z</time>
      </trkpt>
      <trkpt lat="52.022903971374035" lon="13.540671039372683">
        <ele>64.049999999999997</ele>
        <time>2019-06-23T12:28:26Z</time>
      </trkpt>
      <trkpt lat="52.022839011624455" lon="13.540691994130611">
        <ele>64.049999999999997</ele>
        <time>2019-06-23T12:28:27Z</time>
      </trkpt>
      <trkpt lat="52.022817973047495" lon="13.540671039372683">
        <ele>64.049999999999997</ele>
        <time>2019-06-23T12:28:28Z</time>
      </trkpt>
      <trkpt lat="52.022753013297915" lon="13.540542041882873">
        <ele>63.57</ele>
        <time>2019-06-23T12:28:29Z</time>
      </trkpt>
      <trkpt lat="52.022753013297915" lon="13.540349006652832">
        <ele>63.57</ele>
        <time>2019-06-23T12:28:31Z</time>
      </trkpt>
      <trkpt lat="52.022817973047495" lon="13.540284968912601">
        <ele>63.090000000000003</ele>
        <time>2019-06-23T12:28:32Z</time>
      </trkpt>
      <trkpt lat="52.023504031822085" lon="13.539491035044193">
        <ele>63.090000000000003</ele>
        <time>2019-06-23T12:28:36Z</time>
      </trkpt>
      <trkpt lat="52.025200026109815" lon="13.537474013864994">
        <ele>63.090000000000003</ele>
        <time>2019-06-23T12:28:45Z</time>
      </trkpt>
      <trkpt lat="52.028375007212162" lon="13.533739959821105">
        <ele>65.5</ele>
        <time>2019-06-23T12:28:59Z</time>
      </trkpt>
      <trkpt lat="52.0298339612782" lon="13.531701983883977">
        <ele>65.980000000000004</ele>
        <time>2019-06-23T12:29:07Z</time>
      </trkpt>
      <trkpt lat="52.03150799497962" lon="13.528868984431028">
        <ele>65.5</ele>
        <time>2019-06-23T12:29:16Z</time>
      </trkpt>
      <trkpt lat="52.033482016995549" lon="13.52554296143353">
        <ele>65.010000000000005</ele>
        <time>2019-06-23T12:29:27Z</time>
      </trkpt>
      <trkpt lat="52.036035982891917" lon="13.521252013742924">
        <ele>66.939999999999998</ele>
        <time>2019-06-23T12:29:42Z</time>
      </trkpt>
      <trkpt lat="52.036937037482858" lon="13.519728016108274">
        <ele>66.939999999999998</ele>
        <time>2019-06-23T12:29:48Z</time>
      </trkpt>
      <trkpt lat="52.037924006581306" lon="13.517925990745425">
        <ele>65.5</ele>
        <time>2019-06-23T12:29:58Z</time>
      </trkpt>
      <trkpt lat="52.038847021758556" lon="13.515994967892766">
        <ele>64.049999999999997</ele>
        <time>2019-06-23T12:30:05Z</time>
      </trkpt>
      <trkpt lat="52.039405005052686" lon="13.514642966911197">
        <ele>61.649999999999999</ele>
        <time>2019-06-23T12:30:10Z</time>
      </trkpt>
      <trkpt lat="52.039919989183545" lon="13.513441001996398">
        <ele>60.689999999999998</ele>
        <time>2019-06-23T12:30:19Z</time>
      </trkpt>
      <trkpt lat="52.040519965812564" lon="13.512024963274598">
        <ele>60.689999999999998</ele>
        <time>2019-06-23T12:30:30Z</time>
      </trkpt>
      <trkpt lat="52.041078032925725" lon="13.5106520075351">
        <ele>61.170000000000002</ele>
        <time>2019-06-23T12:30:42Z</time>
      </trkpt>
      <trkpt lat="52.041657976806164" lon="13.509257007390261">
        <ele>61.170000000000002</ele>
        <time>2019-06-23T12:30:56Z</time>
      </trkpt>
      <trkpt lat="52.042215038090944" lon="13.507926966995001">
        <ele>61.170000000000002</ele>
        <time>2019-06-23T12:31:08Z</time>
      </trkpt>
      <trkpt lat="52.042816020548344" lon="13.506510006263852">
        <ele>61.649999999999999</ele>
        <time>2019-06-23T12:31:21Z</time>
      </trkpt>
      <trkpt lat="52.043524039909244" lon="13.505244003608823">
        <ele>61.170000000000002</ele>
        <time>2019-06-23T12:31:33Z</time>
      </trkpt>
      <trkpt lat="52.044640006497502" lon="13.503549015149474">
        <ele>60.210000000000001</ele>
        <time>2019-06-23T12:31:50Z</time>
      </trkpt>
      <trkpt lat="52.045369986444712" lon="13.502541007474065">
        <ele>60.210000000000001</ele>
        <time>2019-06-23T12:32:02Z</time>
      </trkpt>
      <trkpt lat="52.045455984771252" lon="13.502369010820985">
        <ele>60.210000000000001</ele>
        <time>2019-06-23T12:32:10Z</time>
      </trkpt>
      <trkpt lat="52.045520022511482" lon="13.502326011657715">
        <ele>60.210000000000001</ele>
        <time>2019-06-23T12:32:12Z</time>
      </trkpt>
      <trkpt lat="52.045606020838022" lon="13.502240013331175">
        <ele>60.210000000000001</ele>
        <time>2019-06-23T12:32:13Z</time>
      </trkpt>
      <trkpt lat="52.045712973922491" lon="13.502218974754214">
        <ele>60.210000000000001</ele>
        <time>2019-06-23T12:32:15Z</time>
      </trkpt>
      <trkpt lat="52.045777011662722" lon="13.502261973917484">
        <ele>60.210000000000001</ele>
        <time>2019-06-23T12:32:16Z</time>
      </trkpt>
      <trkpt lat="52.046721987426281" lon="13.502754997462034">
        <ele>59.729999999999997</ele>
        <time>2019-06-23T12:32:28Z</time>
      </trkpt>
      <trkpt lat="52.0478589925915" lon="13.503421023488045">
        <ele>57.799999999999997</ele>
        <time>2019-06-23T12:32:41Z</time>
      </trkpt>
      <trkpt lat="52.048630965873599" lon="13.503827964887023">
        <ele>57.32</ele>
        <time>2019-06-23T12:32:52Z</time>
      </trkpt>
      <trkpt lat="52.048802962526679" lon="13.503913963213563">
        <ele>58.770000000000003</ele>
        <time>2019-06-23T12:33:03Z</time>
      </trkpt>
      <trkpt lat="52.04906003549695" lon="13.504021000117064">
        <ele>60.210000000000001</ele>
        <time>2019-06-23T12:33:11Z</time>
      </trkpt>
      <trkpt lat="52.04970401711762" lon="13.504343032836914">
        <ele>62.609999999999999</ele>
        <time>2019-06-23T12:33:19Z</time>
      </trkpt>
      <trkpt lat="52.050476996228099" lon="13.504664981737733">
        <ele>64.530000000000001</ele>
        <time>2019-06-23T12:33:27Z</time>
      </trkpt>
      <trkpt lat="52.051699999719858" lon="13.505136966705322">
        <ele>63.57</ele>
        <time>2019-06-23T12:33:38Z</time>
      </trkpt>
      <trkpt lat="52.052944041788578" lon="13.505523037165403">
        <ele>61.170000000000002</ele>
        <time>2019-06-23T12:33:49Z</time>
      </trkpt>
      <trkpt lat="52.053073039278388" lon="13.505544997751713">
        <ele>60.689999999999998</ele>
        <time>2019-06-23T12:33:50Z</time>
      </trkpt>
      <trkpt lat="52.054146006703377" lon="13.505995022132993">
        <ele>59.25</ele>
        <time>2019-06-23T12:33:58Z</time>
      </trkpt>
      <trkpt lat="52.055175974965096" lon="13.506468012928963">
        <ele>58.289999999999999</ele>
        <time>2019-06-23T12:34:06Z</time>
      </trkpt>
      <trkpt lat="52.056635012850165" lon="13.507090033963323">
        <ele>56.840000000000003</ele>
        <time>2019-06-23T12:34:17Z</time>
      </trkpt>
      <trkpt lat="52.058609034866095" lon="13.507948005571961">
        <ele>54.920000000000002</ele>
        <time>2019-06-23T12:34:29Z</time>
      </trkpt>
      <trkpt lat="52.059789039194584" lon="13.508462989702821">
        <ele>53.960000000000001</ele>
        <time>2019-06-23T12:34:39Z</time>
      </trkpt>
      <trkpt lat="52.059832038357854" lon="13.508485034108162">
        <ele>53.479999999999997</ele>
        <time>2019-06-23T12:34:40Z</time>
      </trkpt>
      <trkpt lat="52.059853998944163" lon="13.508419990539551">
        <ele>53.479999999999997</ele>
        <time>2019-06-23T12:34:42Z</time>
      </trkpt>
      <trkpt lat="52.059875037521124" lon="13.508356036618352">
        <ele>53.479999999999997</ele>
        <time>2019-06-23T12:34:43Z</time>
      </trkpt>
      <trkpt lat="52.059939997270703" lon="13.508141040802002">
        <ele>53.479999999999997</ele>
        <time>2019-06-23T12:34:45Z</time>
      </trkpt>
      <trkpt lat="52.060347022488713" lon="13.506746040657163">
        <ele>53</ele>
        <time>2019-06-23T12:34:51Z</time>
      </trkpt>
      <trkpt lat="52.061163000762463" lon="13.503935001790524">
        <ele>52.039999999999999</ele>
        <time>2019-06-23T12:35:04Z</time>
      </trkpt>
      <trkpt lat="52.061505988240242" lon="13.501854026690125">
        <ele>52.520000000000003</ele>
        <time>2019-06-23T12:35:12Z</time>
      </trkpt>
      <trkpt lat="52.061977973207831" lon="13.498678039759398">
        <ele>52.520000000000003</ele>
        <time>2019-06-23T12:35:25Z</time>
      </trkpt>
      <trkpt lat="52.062234962359071" lon="13.496833015233278">
        <ele>52.039999999999999</ele>
        <time>2019-06-23T12:35:31Z</time>
      </trkpt>
      <trkpt lat="52.062579039484262" lon="13.494579959660769">
        <ele>52.039999999999999</ele>
        <time>2019-06-23T12:35:36Z</time>
      </trkpt>
      <trkpt lat="52.063008025288582" lon="13.491704966872931">
        <ele>52.039999999999999</ele>
        <time>2019-06-23T12:35:43Z</time>
      </trkpt>
      <trkpt lat="52.063974039629102" lon="13.487648963928223">
        <ele>51.079999999999998</ele>
        <time>2019-06-23T12:35:53Z</time>
      </trkpt>
      <trkpt lat="52.06459597684443" lon="13.484472976997495">
        <ele>51.079999999999998</ele>
        <time>2019-06-23T12:36:01Z</time>
      </trkpt>
      <trkpt lat="52.064981963485479" lon="13.481726981699467">
        <ele>52.520000000000003</ele>
        <time>2019-06-23T12:36:07Z</time>
      </trkpt>
      <trkpt lat="52.06536803394556" lon="13.478400958701968">
        <ele>52.039999999999999</ele>
        <time>2019-06-23T12:36:16Z</time>
      </trkpt>
      <trkpt lat="52.06579701974988" lon="13.474580990150571">
        <ele>50.109999999999999</ele>
        <time>2019-06-23T12:36:24Z</time>
      </trkpt>
      <trkpt lat="52.066398002207279" lon="13.470504032447934">
        <ele>48.670000000000002</ele>
        <time>2019-06-23T12:36:34Z</time>
      </trkpt>
      <trkpt lat="52.066505961120129" lon="13.470140006393194">
        <ele>48.670000000000002</ele>
        <time>2019-06-23T12:36:35Z</time>
      </trkpt>
      <trkpt lat="52.06663403660059" lon="13.469796013087034">
        <ele>48.670000000000002</ele>
        <time>2019-06-23T12:36:36Z</time>
      </trkpt>
      <trkpt lat="52.066784994676709" lon="13.469453025609255">
        <ele>48.670000000000002</ele>
        <time>2019-06-23T12:36:37Z</time>
      </trkpt>
      <trkpt lat="52.066955985501409" lon="13.469130992889404">
        <ele>48.670000000000002</ele>
        <time>2019-06-23T12:36:38Z</time>
      </trkpt>
      <trkpt lat="52.067170981317759" lon="13.468851959332824">
        <ele>48.670000000000002</ele>
        <time>2019-06-23T12:36:39Z</time>
      </trkpt>
      <trkpt lat="52.067407015711069" lon="13.468594970181584">
        <ele>48.670000000000002</ele>
        <time>2019-06-23T12:36:40Z</time>
      </trkpt>
      <trkpt lat="52.067642966285348" lon="13.468336975201964">
        <ele>48.670000000000002</ele>
        <time>2019-06-23T12:36:41Z</time>
      </trkpt>
      <trkpt lat="52.069316999986768" lon="13.466598987579346">
        <ele>48.670000000000002</ele>
        <time>2019-06-23T12:36:49Z</time>
      </trkpt>
      <trkpt lat="52.070560958236456" lon="13.465075995773077">
        <ele>48.670000000000002</ele>
        <time>2019-06-23T12:36:56Z</time>
      </trkpt>
      <trkpt lat="52.072448981925845" lon="13.462436031550169">
        <ele>49.630000000000003</ele>
        <time>2019-06-23T12:37:05Z</time>
      </trkpt>
      <trkpt lat="52.074166014790535" lon="13.45999002456665">
        <ele>50.109999999999999</ele>
        <time>2019-06-23T12:37:13Z</time>
      </trkpt>
      <trkpt lat="52.076870016753674" lon="13.456213977187872">
        <ele>50.109999999999999</ele>
        <time>2019-06-23T12:37:26Z</time>
      </trkpt>
      <trkpt lat="52.079101027920842" lon="13.453080989420414">
        <ele>49.630000000000003</ele>
        <time>2019-06-23T12:37:36Z</time>
      </trkpt>
      <trkpt lat="52.08182598464191" lon="13.449004031717777">
        <ele>50.109999999999999</ele>
        <time>2019-06-23T12:37:50Z</time>
      </trkpt>
      <trkpt lat="52.082920996472239" lon="13.446472026407719">
        <ele>51.079999999999998</ele>
        <time>2019-06-23T12:37:57Z</time>
      </trkpt>
      <trkpt lat="52.083993963897228" lon="13.443874977529049">
        <ele>51.079999999999998</ele>
        <time>2019-06-23T12:38:06Z</time>
      </trkpt>
      <trkpt lat="52.084208037704229" lon="13.44314600341022">
        <ele>50.590000000000003</ele>
        <time>2019-06-23T12:38:08Z</time>
      </trkpt>
      <trkpt lat="52.084294036030769" lon="13.442717017605901">
        <ele>50.590000000000003</ele>
        <time>2019-06-23T12:38:09Z</time>
      </trkpt>
      <trkpt lat="52.084357989951968" lon="13.442288031801581">
        <ele>50.590000000000003</ele>
        <time>2019-06-23T12:38:10Z</time>
      </trkpt>
      <trkpt lat="52.084551025182009" lon="13.439132999628782">
        <ele>50.590000000000003</ele>
        <time>2019-06-23T12:38:17Z</time>
      </trkpt>
      <trkpt lat="52.084272997453809" lon="13.435207000002265">
        <ele>50.590000000000003</ele>
        <time>2019-06-23T12:38:26Z</time>
      </trkpt>
      <trkpt lat="52.083649970591068" lon="13.431408992037177">
        <ele>50.109999999999999</ele>
        <time>2019-06-23T12:38:35Z</time>
      </trkpt>
      <trkpt lat="52.083586016669869" lon="13.428532993420959">
        <ele>49.630000000000003</ele>
        <time>2019-06-23T12:38:41Z</time>
      </trkpt>
      <trkpt lat="52.083672014996409" lon="13.424563994631171">
        <ele>49.149999999999999</ele>
        <time>2019-06-23T12:38:50Z</time>
      </trkpt>
      <trkpt lat="52.083972003310919" lon="13.420636989176273">
        <ele>48.670000000000002</ele>
        <time>2019-06-23T12:39:00Z</time>
      </trkpt>
      <trkpt lat="52.083972003310919" lon="13.417204013094306">
        <ele>49.149999999999999</ele>
        <time>2019-06-23T12:39:08Z</time>
      </trkpt>
      <trkpt lat="52.083758013322949" lon="13.416001964360476">
        <ele>49.149999999999999</ele>
        <time>2019-06-23T12:39:11Z</time>
      </trkpt>
      <trkpt lat="52.083715014159679" lon="13.415551017969847">
        <ele>49.149999999999999</ele>
        <time>2019-06-23T12:39:12Z</time>
      </trkpt>
      <trkpt lat="52.083692969754338" lon="13.415122032165527">
        <ele>49.149999999999999</ele>
        <time>2019-06-23T12:39:13Z</time>
      </trkpt>
      <trkpt lat="52.083864966407418" lon="13.413234008476138">
        <ele>49.149999999999999</ele>
        <time>2019-06-23T12:39:18Z</time>
      </trkpt>
      <trkpt lat="52.083972003310919" lon="13.41093803755939">
        <ele>50.590000000000003</ele>
        <time>2019-06-23T12:39:29Z</time>
      </trkpt>
      <trkpt lat="52.083864966407418" lon="13.408792018890381">
        <ele>50.109999999999999</ele>
        <time>2019-06-23T12:39:39Z</time>
      </trkpt>
      <trkpt lat="52.083649970591068" lon="13.405874026939273">
        <ele>50.109999999999999</ele>
        <time>2019-06-23T12:39:52Z</time>
      </trkpt>
      <trkpt lat="52.083349982276559" lon="13.403663970530033">
        <ele>50.109999999999999</ele>
        <time>2019-06-23T12:40:02Z</time>
      </trkpt>
      <trkpt lat="52.083263983950019" lon="13.402784038335085">
        <ele>50.109999999999999</ele>
        <time>2019-06-23T12:40:06Z</time>
      </trkpt>
      <trkpt lat="52.083263983950019" lon="13.402591003105044">
        <ele>50.109999999999999</ele>
        <time>2019-06-23T12:40:07Z</time>
      </trkpt>
      <trkpt lat="52.083328021690249" lon="13.402397967875004">
        <ele>50.109999999999999</ele>
        <time>2019-06-23T12:40:08Z</time>
      </trkpt>
      <trkpt lat="52.083414020016789" lon="13.402182972058654">
        <ele>50.590000000000003</ele>
        <time>2019-06-23T12:40:09Z</time>
      </trkpt>
      <trkpt lat="52.083520973101258" lon="13.402033019810915">
        <ele>51.079999999999998</ele>
        <time>2019-06-23T12:40:10Z</time>
      </trkpt>
      <trkpt lat="52.083629015833139" lon="13.401882983744144">
        <ele>51.560000000000002</ele>
        <time>2019-06-23T12:40:11Z</time>
      </trkpt>
      <trkpt lat="52.083735968917608" lon="13.401733031496406">
        <ele>51.560000000000002</ele>
        <time>2019-06-23T12:40:12Z</time>
      </trkpt>
      <trkpt lat="52.083886004984379" lon="13.401604034006596">
        <ele>51.560000000000002</ele>
        <time>2019-06-23T12:40:13Z</time>
      </trkpt>
      <trkpt lat="52.084915973246098" lon="13.400616981089115">
        <ele>52.039999999999999</ele>
        <time>2019-06-23T12:40:19Z</time>
      </trkpt>
      <trkpt lat="52.085410002619028" lon="13.400037037208676">
        <ele>52.039999999999999</ele>
        <time>2019-06-23T12:40:22Z</time>
      </trkpt>
      <trkpt lat="52.085560038685799" lon="13.399758003652096">
        <ele>52.039999999999999</ele>
        <time>2019-06-23T12:40:23Z</time>
      </trkpt>
      <trkpt lat="52.086375011131167" lon="13.397849025204778">
        <ele>50.590000000000003</ele>
        <time>2019-06-23T12:40:28Z</time>
      </trkpt>
      <trkpt lat="52.088435031473637" lon="13.39299900457263">
        <ele>41.460000000000001</ele>
        <time>2019-06-23T12:40:41Z</time>
      </trkpt>
      <trkpt lat="52.090194979682565" lon="13.388878963887691">
        <ele>40.5</ele>
        <time>2019-06-23T12:40:52Z</time>
      </trkpt>
      <trkpt lat="52.092491034418344" lon="13.383965995162725">
        <ele>38.100000000000001</ele>
        <time>2019-06-23T12:41:06Z</time>
      </trkpt>
      <trkpt lat="52.095129992812872" lon="13.378172004595399">
        <ele>38.100000000000001</ele>
        <time>2019-06-23T12:41:22Z</time>
      </trkpt>
      <trkpt lat="52.096182005479932" lon="13.375962032005191">
        <ele>37.140000000000001</ele>
        <time>2019-06-23T12:41:29Z</time>
      </trkpt>
      <trkpt lat="52.096481993794441" lon="13.37542500346899">
        <ele>37.619999999999997</ele>
        <time>2019-06-23T12:41:31Z</time>
      </trkpt>
      <trkpt lat="52.096632029861212" lon="13.375211013481021">
        <ele>38.579999999999998</ele>
        <time>2019-06-23T12:41:32Z</time>
      </trkpt>
      <trkpt lat="52.096847025677562" lon="13.375125015154481">
        <ele>38.579999999999998</ele>
        <time>2019-06-23T12:41:33Z</time>
      </trkpt>
      <trkpt lat="52.097082976251841" lon="13.37501797825098">
        <ele>38.579999999999998</ele>
        <time>2019-06-23T12:41:34Z</time>
      </trkpt>
      <trkpt lat="52.097319010645151" lon="13.374911025166512">
        <ele>38.579999999999998</ele>
        <time>2019-06-23T12:41:36Z</time>
      </trkpt>
      <trkpt lat="52.09884200245142" lon="13.374524032697082">
        <ele>40.5</ele>
        <time>2019-06-23T12:41:42Z</time>
      </trkpt>
      <trkpt lat="52.09955002181232" lon="13.374287998303771">
        <ele>41.939999999999998</ele>
        <time>2019-06-23T12:41:48Z</time>
      </trkpt>
      <trkpt lat="52.100086966529489" lon="13.374117007479072">
        <ele>44.350000000000001</ele>
        <time>2019-06-23T12:41:55Z</time>
      </trkpt>
      <trkpt lat="52.101094974204898" lon="13.373837973922491">
        <ele>45.789999999999999</ele>
        <time>2019-06-23T12:42:01Z</time>
      </trkpt>
      <trkpt lat="52.102297022938728" lon="13.373516025021672">
        <ele>47.710000000000001</ele>
        <time>2019-06-23T12:42:09Z</time>
      </trkpt>
      <trkpt lat="52.103970972821116" lon="13.373087039217353">
        <ele>51.079999999999998</ele>
        <time>2019-06-23T12:42:21Z</time>
      </trkpt>
      <trkpt lat="52.105601001530886" lon="13.372614970430732">
        <ele>52.520000000000003</ele>
        <time>2019-06-23T12:42:28Z</time>
      </trkpt>
      <trkpt lat="52.107919016852975" lon="13.372035026550293">
        <ele>54.439999999999998</ele>
        <time>2019-06-23T12:42:39Z</time>
      </trkpt>
      <trkpt lat="52.110494021326303" lon="13.371348967775702">
        <ele>58.289999999999999</ele>
        <time>2019-06-23T12:42:50Z</time>
      </trkpt>
      <trkpt lat="52.113991035148501" lon="13.370383037254214">
        <ele>56.840000000000003</ele>
        <time>2019-06-23T12:43:03Z</time>
      </trkpt>
      <trkpt lat="52.117703966796398" lon="13.369352985173464">
        <ele>56.359999999999999</ele>
        <time>2019-06-23T12:43:16Z</time>
      </trkpt>
      <trkpt lat="52.121437015011907" lon="13.368301978334785">
        <ele>55.880000000000003</ele>
        <time>2019-06-23T12:43:29Z</time>
      </trkpt>
      <trkpt lat="52.123990980908275" lon="13.367593036964536">
        <ele>55.399999999999999</ele>
        <time>2019-06-23T12:43:38Z</time>
      </trkpt>
      <trkpt lat="52.126673022285104" lon="13.366906978189945">
        <ele>54.920000000000002</ele>
        <time>2019-06-23T12:43:49Z</time>
      </trkpt>
      <trkpt lat="52.128174975514412" lon="13.367014015093446">
        <ele>54.439999999999998</ele>
        <time>2019-06-23T12:43:56Z</time>
      </trkpt>
      <trkpt lat="52.129397979006171" lon="13.367100013419986">
        <ele>53.960000000000001</ele>
        <time>2019-06-23T12:44:02Z</time>
      </trkpt>
      <trkpt lat="52.13120000436902" lon="13.367378963157535">
        <ele>52.039999999999999</ele>
        <time>2019-06-23T12:44:10Z</time>
      </trkpt>
      <trkpt lat="52.132272971794009" lon="13.367786994203925">
        <ele>51.079999999999998</ele>
        <time>2019-06-23T12:44:16Z</time>
      </trkpt>
      <trkpt lat="52.132401969283819" lon="13.367743995040655">
        <ele>51.079999999999998</ele>
        <time>2019-06-23T12:44:17Z</time>
      </trkpt>
      <trkpt lat="52.13255200535059" lon="13.367722034454346">
        <ele>51.079999999999998</ele>
        <time>2019-06-23T12:44:18Z</time>
      </trkpt>
      <trkpt lat="52.133624972775578" lon="13.367421962320805">
        <ele>49.149999999999999</ele>
        <time>2019-06-23T12:44:27Z</time>
      </trkpt>
      <trkpt lat="52.134976973757148" lon="13.367143012583256">
        <ele>47.710000000000001</ele>
        <time>2019-06-23T12:44:38Z</time>
      </trkpt>
      <trkpt lat="52.135942988097668" lon="13.367077969014645">
        <ele>48.189999999999998</ele>
        <time>2019-06-23T12:44:46Z</time>
      </trkpt>
      <trkpt lat="52.136070979759097" lon="13.367077969014645">
        <ele>48.189999999999998</ele>
        <time>2019-06-23T12:44:47Z</time>
      </trkpt>
      <trkpt lat="52.136156978085637" lon="13.366928016766906">
        <ele>48.189999999999998</ele>
        <time>2019-06-23T12:44:48Z</time>
      </trkpt>
      <trkpt lat="52.136264014989138" lon="13.366800025105476">
        <ele>48.189999999999998</ele>
        <time>2019-06-23T12:44:49Z</time>
      </trkpt>
      <trkpt lat="52.136350013315678" lon="13.366671027615666">
        <ele>48.189999999999998</ele>
        <time>2019-06-23T12:44:50Z</time>
      </trkpt>
      <trkpt lat="52.137293983250856" lon="13.365811966359615">
        <ele>48.189999999999998</ele>
        <time>2019-06-23T12:44:59Z</time>
      </trkpt>
      <trkpt lat="52.137616015970707" lon="13.365662014111876">
        <ele>47.710000000000001</ele>
        <time>2019-06-23T12:45:02Z</time>
      </trkpt>
      <trkpt lat="52.137723974883556" lon="13.365640975534916">
        <ele>47.710000000000001</ele>
        <time>2019-06-23T12:45:03Z</time>
      </trkpt>
      <trkpt lat="52.139183012768626" lon="13.365362025797367">
        <ele>48.670000000000002</ele>
        <time>2019-06-23T12:45:14Z</time>
      </trkpt>
      <trkpt lat="52.140169981867075" lon="13.365104030817747">
        <ele>51.079999999999998</ele>
        <time>2019-06-23T12:45:23Z</time>
      </trkpt>
      <trkpt lat="52.141263987869024" lon="13.364953994750977">
        <ele>50.590000000000003</ele>
        <time>2019-06-23T12:45:31Z</time>
      </trkpt>
      <trkpt lat="52.142015006393194" lon="13.364588962867856">
        <ele>49.149999999999999</ele>
        <time>2019-06-23T12:45:39Z</time>
      </trkpt>
      <trkpt lat="52.142101004719734" lon="13.364545963704586">
        <ele>49.149999999999999</ele>
        <time>2019-06-23T12:45:40Z</time>
      </trkpt>
      <trkpt lat="52.142187003046274" lon="13.364460971206427">
        <ele>48.670000000000002</ele>
        <time>2019-06-23T12:45:42Z</time>
      </trkpt>
      <trkpt lat="52.143173972144723" lon="13.363538039848208">
        <ele>45.789999999999999</ele>
        <time>2019-06-23T12:45:51Z</time>
      </trkpt>
      <trkpt lat="52.144118025898933" lon="13.362292991951108">
        <ele>44.350000000000001</ele>
        <time>2019-06-23T12:46:02Z</time>
      </trkpt>
      <trkpt lat="52.145018996670842" lon="13.36109203286469">
        <ele>45.310000000000002</ele>
        <time>2019-06-23T12:46:12Z</time>
      </trkpt>
      <trkpt lat="52.146199000999331" lon="13.35954699665308">
        <ele>43.869999999999997</ele>
        <time>2019-06-23T12:46:23Z</time>
      </trkpt>
      <trkpt lat="52.147165015339851" lon="13.358431030064821">
        <ele>44.829999999999998</ele>
        <time>2019-06-23T12:46:30Z</time>
      </trkpt>
      <trkpt lat="52.148345019668341" lon="13.357314979657531">
        <ele>42.899999999999999</ele>
        <time>2019-06-23T12:46:35Z</time>
      </trkpt>
      <trkpt lat="52.150791026651859" lon="13.355277003720403">
        <ele>42.420000000000002</ele>
        <time>2019-06-23T12:46:45Z</time>
      </trkpt>
      <trkpt lat="52.153902975842357" lon="13.352616000920534">
        <ele>42.420000000000002</ele>
        <time>2019-06-23T12:46:58Z</time>
      </trkpt>
      <trkpt lat="52.154632033780217" lon="13.351929020136595">
        <ele>41.939999999999998</ele>
        <time>2019-06-23T12:47:03Z</time>
      </trkpt>
      <trkpt lat="52.154953982681036" lon="13.351564994081855">
        <ele>40.979999999999997</ele>
        <time>2019-06-23T12:47:05Z</time>
      </trkpt>
      <trkpt lat="52.155190017074347" lon="13.351007010787725">
        <ele>40.979999999999997</ele>
        <time>2019-06-23T12:47:06Z</time>
      </trkpt>
      <trkpt lat="52.155491011217237" lon="13.349933959543705">
        <ele>40.5</ele>
        <time>2019-06-23T12:47:10Z</time>
      </trkpt>
      <trkpt lat="52.155576003715396" lon="13.349718963727355">
        <ele>40.5</ele>
        <time>2019-06-23T12:47:11Z</time>
      </trkpt>
      <trkpt lat="52.155662002041936" lon="13.349483013153076">
        <ele>40.020000000000003</ele>
        <time>2019-06-23T12:47:12Z</time>
      </trkpt>
      <trkpt lat="52.155769038945436" lon="13.349269023165107">
        <ele>40.020000000000003</ele>
        <time>2019-06-23T12:47:13Z</time>
      </trkpt>
      <trkpt lat="52.155876997858286" lon="13.349074982106686">
        <ele>40.020000000000003</ele>
        <time>2019-06-23T12:47:14Z</time>
      </trkpt>
      <trkpt lat="52.156734969466925" lon="13.347359038889408">
        <ele>39.539999999999999</ele>
        <time>2019-06-23T12:47:24Z</time>
      </trkpt>
      <trkpt lat="52.157743982970715" lon="13.345405971631408">
        <ele>40.5</ele>
        <time>2019-06-23T12:47:36Z</time>
      </trkpt>
      <trkpt lat="52.158129969611764" lon="13.344612037763">
        <ele>40.5</ele>
        <time>2019-06-23T12:47:41Z</time>
      </trkpt>
      <trkpt lat="52.158151008188725" lon="13.344419002532959">
        <ele>40.020000000000003</ele>
        <time>2019-06-23T12:47:42Z</time>
      </trkpt>
      <trkpt lat="52.158151008188725" lon="13.344182968139648">
        <ele>40.020000000000003</ele>
        <time>2019-06-23T12:47:43Z</time>
      </trkpt>
      <trkpt lat="52.158151008188725" lon="13.34268101491034">
        <ele>39.539999999999999</ele>
        <time>2019-06-23T12:47:50Z</time>
      </trkpt>
      <trkpt lat="52.158086970448494" lon="13.3424879796803">
        <ele>39.539999999999999</ele>
        <time>2019-06-23T12:47:51Z</time>
      </trkpt>
      <trkpt lat="52.158023016527295" lon="13.342295028269291">
        <ele>39.539999999999999</ele>
        <time>2019-06-23T12:47:52Z</time>
      </trkpt>
      <trkpt lat="52.157980017364025" lon="13.342123031616211">
        <ele>39.539999999999999</ele>
        <time>2019-06-23T12:47:53Z</time>
      </trkpt>
      <trkpt lat="52.157894019037485" lon="13.341952040791512">
        <ele>39.539999999999999</ele>
        <time>2019-06-23T12:47:54Z</time>
      </trkpt>
      <trkpt lat="52.157808020710945" lon="13.3417799603194">
        <ele>39.539999999999999</ele>
        <time>2019-06-23T12:47:55Z</time>
      </trkpt>
      <trkpt lat="52.157422034069896" lon="13.34100698120892">
        <ele>39.539999999999999</ele>
        <time>2019-06-23T12:48:01Z</time>
      </trkpt>
      <trkpt lat="52.157379034906626" lon="13.340900028124452">
        <ele>39.539999999999999</ele>
        <time>2019-06-23T12:48:02Z</time>
      </trkpt>
      <trkpt lat="52.157442988827825" lon="13.340771030634642">
        <ele>40.020000000000003</ele>
        <time>2019-06-23T12:48:04Z</time>
      </trkpt>
      <trkpt lat="52.158023016527295" lon="13.339634025469422">
        <ele>40.020000000000003</ele>
        <time>2019-06-23T12:48:10Z</time>
      </trkpt>
      <trkpt lat="52.158665992319584" lon="13.338411021977663">
        <ele>40.5</ele>
        <time>2019-06-23T12:48:19Z</time>
      </trkpt>
      <trkpt lat="52.158731035888195" lon="13.338239025324583">
        <ele>40.5</ele>
        <time>2019-06-23T12:48:20Z</time>
      </trkpt>
      <trkpt lat="52.158794989809394" lon="13.337853038683534">
        <ele>40.979999999999997</ele>
        <time>2019-06-23T12:48:22Z</time>
      </trkpt>
      <trkpt lat="52.158859027549624" lon="13.337445007637143">
        <ele>40.979999999999997</ele>
        <time>2019-06-23T12:48:24Z</time>
      </trkpt>
      <trkpt lat="52.158880988135934" lon="13.337016021832824">
        <ele>41.460000000000001</ele>
        <time>2019-06-23T12:48:26Z</time>
      </trkpt>
      <trkpt lat="52.159266974776983" lon="13.334699012339115">
        <ele>44.350000000000001</ele>
        <time>2019-06-23T12:48:35Z</time>
      </trkpt>
      <trkpt lat="52.159868041053414" lon="13.332403041422367">
        <ele>43.380000000000003</ele>
        <time>2019-06-23T12:48:45Z</time>
      </trkpt>
      <trkpt lat="52.160790972411633" lon="13.329334007576108">
        <ele>37.619999999999997</ele>
        <time>2019-06-23T12:48:58Z</time>
      </trkpt>
      <trkpt lat="52.160898009315133" lon="13.329140972346067">
        <ele>37.619999999999997</ele>
        <time>2019-06-23T12:49:00Z</time>
      </trkpt>
      <trkpt lat="52.162056975066662" lon="13.327960968017578">
        <ele>38.100000000000001</ele>
        <time>2019-06-23T12:49:09Z</time>
      </trkpt>
      <trkpt lat="52.163622966036201" lon="13.326737964525819">
        <ele>39.539999999999999</ele>
        <time>2019-06-23T12:49:21Z</time>
      </trkpt>
      <trkpt lat="52.16488896869123" lon="13.32592299208045">
        <ele>38.579999999999998</ele>
        <time>2019-06-23T12:49:32Z</time>
      </trkpt>
      <trkpt lat="52.166154971346259" lon="13.32557899877429">
        <ele>39.060000000000002</ele>
        <time>2019-06-23T12:49:40Z</time>
      </trkpt>
      <trkpt lat="52.167463973164558" lon="13.32529996521771">
        <ele>39.060000000000002</ele>
        <time>2019-06-23T12:49:46Z</time>
      </trkpt>
      <trkpt lat="52.169823981821537" lon="13.324335040524602">
        <ele>39.539999999999999</ele>
        <time>2019-06-23T12:49:56Z</time>
      </trkpt>
      <trkpt lat="52.171604968607426" lon="13.323518978431821">
        <ele>40.020000000000003</ele>
        <time>2019-06-23T12:50:03Z</time>
      </trkpt>
      <trkpt lat="52.173236003145576" lon="13.322318019345403">
        <ele>40.020000000000003</ele>
        <time>2019-06-23T12:50:10Z</time>
      </trkpt>
      <trkpt lat="52.176003959029913" lon="13.320129001513124">
        <ele>37.140000000000001</ele>
        <time>2019-06-23T12:50:22Z</time>
      </trkpt>
      <trkpt lat="52.177848983556032" lon="13.319077994674444">
        <ele>35.689999999999998</ele>
        <time>2019-06-23T12:50:30Z</time>
      </trkpt>
      <trkpt lat="52.178986994549632" lon="13.318563010543585">
        <ele>35.689999999999998</ele>
        <time>2019-06-23T12:50:36Z</time>
      </trkpt>
      <trkpt lat="52.179480018094182" lon="13.318326976150274">
        <ele>36.18</ele>
        <time>2019-06-23T12:50:39Z</time>
      </trkpt>
      <trkpt lat="52.179652014747262" lon="13.318240977823734">
        <ele>36.659999999999997</ele>
        <time>2019-06-23T12:50:41Z</time>
      </trkpt>
      <trkpt lat="52.179930964484811" lon="13.317661033943295">
        <ele>37.140000000000001</ele>
        <time>2019-06-23T12:50:43Z</time>
      </trkpt>
      <trkpt lat="52.180380988866091" lon="13.316094959154725">
        <ele>37.619999999999997</ele>
        <time>2019-06-23T12:50:46Z</time>
      </trkpt>
      <trkpt lat="52.180532030761242" lon="13.315751971676946">
        <ele>37.619999999999997</ele>
        <time>2019-06-23T12:50:47Z</time>
      </trkpt>
      <trkpt lat="52.180660022422671" lon="13.315407978370786">
        <ele>37.619999999999997</ele>
        <time>2019-06-23T12:50:49Z</time>
      </trkpt>
      <trkpt lat="52.18098197132349" lon="13.314786041155457">
        <ele>37.140000000000001</ele>
        <time>2019-06-23T12:50:50Z</time>
      </trkpt>
      <trkpt lat="52.18115396797657" lon="13.314507007598877">
        <ele>37.140000000000001</ele>
        <time>2019-06-23T12:50:51Z</time>
      </trkpt>
      <trkpt lat="52.181712035089731" lon="13.313778033480048">
        <ele>36.659999999999997</ele>
        <time>2019-06-23T12:50:55Z</time>
      </trkpt>
      <trkpt lat="52.18190498650074" lon="13.313541999086738">
        <ele>36.659999999999997</ele>
        <time>2019-06-23T12:50:56Z</time>
      </trkpt>
      <trkpt lat="52.18314902856946" lon="13.31098803319037">
        <ele>37.140000000000001</ele>
        <time>2019-06-23T12:51:04Z</time>
      </trkpt>
      <trkpt lat="52.184008006006479" lon="13.30910000950098">
        <ele>36.659999999999997</ele>
        <time>2019-06-23T12:51:11Z</time>
      </trkpt>
      <trkpt lat="52.184951975941658" lon="13.307082988321781">
        <ele>37.619999999999997</ele>
        <time>2019-06-23T12:51:22Z</time>
      </trkpt>
      <trkpt lat="52.185639040544629" lon="13.305581035092473">
        <ele>37.140000000000001</ele>
        <time>2019-06-23T12:51:29Z</time>
      </trkpt>
      <trkpt lat="52.185917990282178" lon="13.304873015731573">
        <ele>37.140000000000001</ele>
        <time>2019-06-23T12:51:31Z</time>
      </trkpt>
      <trkpt lat="52.186025027185678" lon="13.304444029927254">
        <ele>37.140000000000001</ele>
        <time>2019-06-23T12:51:32Z</time>
      </trkpt>
      <trkpt lat="52.186540011316538" lon="13.301397040486336">
        <ele>37.619999999999997</ele>
        <time>2019-06-23T12:51:38Z</time>
      </trkpt>
      <trkpt lat="52.186646964401007" lon="13.298799991607666">
        <ele>37.619999999999997</ele>
        <time>2019-06-23T12:51:44Z</time>
      </trkpt>
      <trkpt lat="52.186689963564277" lon="13.296482982113957">
        <ele>38.579999999999998</ele>
        <time>2019-06-23T12:51:50Z</time>
      </trkpt>
      <trkpt lat="52.186711002141237" lon="13.294872986152768">
        <ele>39.539999999999999</ele>
        <time>2019-06-23T12:51:57Z</time>
      </trkpt>
      <trkpt lat="52.186818961054087" lon="13.29146197065711">
        <ele>40.979999999999997</ele>
        <time>2019-06-23T12:52:14Z</time>
      </trkpt>
      <trkpt lat="52.186861960217357" lon="13.290645992383361">
        <ele>41.460000000000001</ele>
        <time>2019-06-23T12:52:19Z</time>
      </trkpt>
      <trkpt lat="52.187097994610667" lon="13.288522018119693">
        <ele>41.460000000000001</ele>
        <time>2019-06-23T12:52:29Z</time>
      </trkpt>
      <trkpt lat="52.187291029840708" lon="13.287491966038942">
        <ele>41.460000000000001</ele>
        <time>2019-06-23T12:52:34Z</time>
      </trkpt>
      <trkpt lat="52.187334029003978" lon="13.287319969385862">
        <ele>41.460000000000001</ele>
        <time>2019-06-23T12:52:36Z</time>
      </trkpt>
      <trkpt lat="52.188299037516117" lon="13.285432029515505">
        <ele>43.869999999999997</ele>
        <time>2019-06-23T12:52:45Z</time>
      </trkpt>
      <trkpt lat="52.189201014116406" lon="13.283544005826116">
        <ele>44.350000000000001</ele>
        <time>2019-06-23T12:52:52Z</time>
      </trkpt>
      <trkpt lat="52.190509010106325" lon="13.280668007209897">
        <ele>41.939999999999998</ele>
        <time>2019-06-23T12:53:01Z</time>
      </trkpt>
      <trkpt lat="52.193471007049084" lon="13.274337993934751">
        <ele>40.979999999999997</ele>
        <time>2019-06-23T12:53:21Z</time>
      </trkpt>
      <trkpt lat="52.194908000528812" lon="13.271226966753602">
        <ele>41.939999999999998</ele>
        <time>2019-06-23T12:53:30Z</time>
      </trkpt>
      <trkpt lat="52.195894969627261" lon="13.269059993326664">
        <ele>43.869999999999997</ele>
        <time>2019-06-23T12:53:39Z</time>
      </trkpt>
      <trkpt lat="52.197698000818491" lon="13.265197025611997">
        <ele>39.539999999999999</ele>
        <time>2019-06-23T12:53:53Z</time>
      </trkpt>
      <trkpt lat="52.197826998308301" lon="13.264854038134217">
        <ele>39.060000000000002</ele>
        <time>2019-06-23T12:53:54Z</time>
      </trkpt>
      <trkpt lat="52.19795498996973" lon="13.264446007087827">
        <ele>38.579999999999998</ele>
        <time>2019-06-23T12:53:55Z</time>
      </trkpt>
      <trkpt lat="52.1985989715904" lon="13.261786010116339">
        <ele>37.619999999999997</ele>
        <time>2019-06-23T12:54:02Z</time>
      </trkpt>
      <trkpt lat="52.19926399178803" lon="13.258825019001961">
        <ele>41.939999999999998</ele>
        <time>2019-06-23T12:54:12Z</time>
      </trkpt>
      <trkpt lat="52.199907973408699" lon="13.255669986829162">
        <ele>43.380000000000003</ele>
        <time>2019-06-23T12:54:22Z</time>
      </trkpt>
      <trkpt lat="52.200787989422679" lon="13.253352977335453">
        <ele>42.420000000000002</ele>
        <time>2019-06-23T12:54:29Z</time>
      </trkpt>
      <trkpt lat="52.200981024652719" lon="13.252688040956855">
        <ele>41.460000000000001</ele>
        <time>2019-06-23T12:54:32Z</time>
      </trkpt>
      <trkpt lat="52.201024023815989" lon="13.252536999061704">
        <ele>40.979999999999997</ele>
        <time>2019-06-23T12:54:33Z</time>
      </trkpt>
      <trkpt lat="52.200958980247378" lon="13.252257965505123">
        <ele>40.979999999999997</ele>
        <time>2019-06-23T12:54:34Z</time>
      </trkpt>
      <trkpt lat="52.200915981084108" lon="13.252151012420654">
        <ele>40.5</ele>
        <time>2019-06-23T12:54:36Z</time>
      </trkpt>
      <trkpt lat="52.200336959213018" lon="13.250842010602355">
        <ele>41.460000000000001</ele>
        <time>2019-06-23T12:54:41Z</time>
      </trkpt>
      <trkpt lat="52.199329035356641" lon="13.249253975227475">
        <ele>44.350000000000001</ele>
        <time>2019-06-23T12:54:49Z</time>
      </trkpt>
      <trkpt lat="52.197633041068912" lon="13.247044002637267">
        <ele>42.420000000000002</ele>
        <time>2019-06-23T12:55:00Z</time>
      </trkpt>
      <trkpt lat="52.196625033393502" lon="13.245971035212278">
        <ele>41.460000000000001</ele>
        <time>2019-06-23T12:55:07Z</time>
      </trkpt>
      <trkpt lat="52.195422984659672" lon="13.24457704089582">
        <ele>40.5</ele>
        <time>2019-06-23T12:55:18Z</time>
      </trkpt>
      <trkpt lat="52.194414976984262" lon="13.24382602237165">
        <ele>40.020000000000003</ele>
        <time>2019-06-23T12:55:27Z</time>
      </trkpt>
      <trkpt lat="52.193921031430364" lon="13.243460990488529">
        <ele>40.020000000000003</ele>
        <time>2019-06-23T12:55:33Z</time>
      </trkpt>
      <trkpt lat="52.193856993690133" lon="13.243374992161989">
        <ele>40.020000000000003</ele>
        <time>2019-06-23T12:55:34Z</time>
      </trkpt>
      <trkpt lat="52.193835033103824" lon="13.243288993835449">
        <ele>39.539999999999999</ele>
        <time>2019-06-23T12:55:36Z</time>
      </trkpt>
      <trkpt lat="52.193813994526863" lon="13.243159996345639">
        <ele>39.539999999999999</ele>
        <time>2019-06-23T12:55:37Z</time>
      </trkpt>
      <trkpt lat="52.193385008722544" lon="13.2414869684726">
        <ele>39.060000000000002</ele>
        <time>2019-06-23T12:55:44Z</time>
      </trkpt>
      <trkpt lat="52.192698027938604" lon="13.239705981686711">
        <ele>38.100000000000001</ele>
        <time>2019-06-23T12:55:52Z</time>
      </trkpt>
      <trkpt lat="52.191947009414434" lon="13.237301968038082">
        <ele>37.140000000000001</ele>
        <time>2019-06-23T12:55:59Z</time>
      </trkpt>
      <trkpt lat="52.191475024446845" lon="13.236207962036133">
        <ele>36.659999999999997</ele>
        <time>2019-06-23T12:56:05Z</time>
      </trkpt>
      <trkpt lat="52.191389026120305" lon="13.236015010625124">
        <ele>36.659999999999997</ele>
        <time>2019-06-23T12:56:06Z</time>
      </trkpt>
      <trkpt lat="52.191346026957035" lon="13.235843013972044">
        <ele>37.140000000000001</ele>
        <time>2019-06-23T12:56:08Z</time>
      </trkpt>
      <trkpt lat="52.191581977531314" lon="13.235005997121334">
        <ele>37.140000000000001</ele>
        <time>2019-06-23T12:56:11Z</time>
      </trkpt>
      <trkpt lat="52.191968970000744" lon="13.233289970085025">
        <ele>37.619999999999997</ele>
        <time>2019-06-23T12:56:15Z</time>
      </trkpt>
      <trkpt lat="52.192676989361644" lon="13.230371978133917">
        <ele>38.100000000000001</ele>
        <time>2019-06-23T12:56:22Z</time>
      </trkpt>
      <trkpt lat="52.193276965990663" lon="13.227904010564089">
        <ele>38.100000000000001</ele>
        <time>2019-06-23T12:56:29Z</time>
      </trkpt>
      <trkpt lat="52.193577960133553" lon="13.22650901041925">
        <ele>39.060000000000002</ele>
        <time>2019-06-23T12:56:33Z</time>
      </trkpt>
      <trkpt lat="52.193641997873783" lon="13.226143978536129">
        <ele>40.020000000000003</ele>
        <time>2019-06-23T12:56:34Z</time>
      </trkpt>
      <trkpt lat="52.193727996200323" lon="13.22500697337091">
        <ele>42.899999999999999</ele>
        <time>2019-06-23T12:56:37Z</time>
      </trkpt>
      <trkpt lat="52.193770995363593" lon="13.224342036992311">
        <ele>43.869999999999997</ele>
        <time>2019-06-23T12:56:38Z</time>
      </trkpt>
      <trkpt lat="52.193835033103824" lon="13.224020004272461">
        <ele>44.829999999999998</ele>
        <time>2019-06-23T12:56:39Z</time>
      </trkpt>
      <trkpt lat="52.193921031430364" lon="13.22369797155261">
        <ele>45.789999999999999</ele>
        <time>2019-06-23T12:56:40Z</time>
      </trkpt>
      <trkpt lat="52.194028990343213" lon="13.223419021815062">
        <ele>46.270000000000003</ele>
        <time>2019-06-23T12:56:42Z</time>
      </trkpt>
      <trkpt lat="52.194179026409984" lon="13.223139988258481">
        <ele>46.270000000000003</ele>
        <time>2019-06-23T12:56:43Z</time>
      </trkpt>
      <trkpt lat="52.194328978657722" lon="13.222882999107242">
        <ele>46.270000000000003</ele>
        <time>2019-06-23T12:56:44Z</time>
      </trkpt>
      <trkpt lat="52.194500975310802" lon="13.222668003290892">
        <ele>46.270000000000003</ele>
        <time>2019-06-23T12:56:45Z</time>
      </trkpt>
      <trkpt lat="52.194908000528812" lon="13.222345970571041">
        <ele>45.789999999999999</ele>
        <time>2019-06-23T12:56:46Z</time>
      </trkpt>
      <trkpt lat="52.195101035758853" lon="13.222217978909612">
        <ele>45.310000000000002</ele>
        <time>2019-06-23T12:56:48Z</time>
      </trkpt>
      <trkpt lat="52.195680979639292" lon="13.221873985603452">
        <ele>43.869999999999997</ele>
        <time>2019-06-23T12:56:51Z</time>
      </trkpt>
      <trkpt lat="52.196754030883312" lon="13.220587028190494">
        <ele>42.899999999999999</ele>
        <time>2019-06-23T12:56:58Z</time>
      </trkpt>
      <trkpt lat="52.197783999145031" lon="13.218484008684754">
        <ele>43.380000000000003</ele>
        <time>2019-06-23T12:57:05Z</time>
      </trkpt>
      <trkpt lat="52.19842697493732" lon="13.216961016878486">
        <ele>44.350000000000001</ele>
        <time>2019-06-23T12:57:11Z</time>
      </trkpt>
      <trkpt lat="52.198492018505931" lon="13.216660022735596">
        <ele>44.350000000000001</ele>
        <time>2019-06-23T12:57:12Z</time>
      </trkpt>
      <trkpt lat="52.19846997410059" lon="13.216294990852475">
        <ele>44.350000000000001</ele>
        <time>2019-06-23T12:57:13Z</time>
      </trkpt>
      <trkpt lat="52.19838397577405" lon="13.213914027437568">
        <ele>46.270000000000003</ele>
        <time>2019-06-23T12:57:19Z</time>
      </trkpt>
      <trkpt lat="52.19825598411262" lon="13.211960960179567">
        <ele>45.789999999999999</ele>
        <time>2019-06-23T12:57:26Z</time>
      </trkpt>
      <trkpt lat="52.198148025199771" lon="13.211124027147889">
        <ele>44.350000000000001</ele>
        <time>2019-06-23T12:57:28Z</time>
      </trkpt>
      <trkpt lat="52.198148025199771" lon="13.210887992754579">
        <ele>42.899999999999999</ele>
        <time>2019-06-23T12:57:30Z</time>
      </trkpt>
      <trkpt lat="52.198234023526311" lon="13.210502006113529">
        <ele>42.420000000000002</ele>
        <time>2019-06-23T12:57:31Z</time>
      </trkpt>
      <trkpt lat="52.198320021852851" lon="13.210394969210029">
        <ele>41.939999999999998</ele>
        <time>2019-06-23T12:57:32Z</time>
      </trkpt>
      <trkpt lat="52.198406020179391" lon="13.210287010297179">
        <ele>41.460000000000001</ele>
        <time>2019-06-23T12:57:34Z</time>
      </trkpt>
      <trkpt lat="52.19952198676765" lon="13.20960103534162">
        <ele>40.020000000000003</ele>
        <time>2019-06-23T12:57:42Z</time>
      </trkpt>
      <trkpt lat="52.200529994443059" lon="13.209085967391729">
        <ele>39.060000000000002</ele>
        <time>2019-06-23T12:57:51Z</time>
      </trkpt>
      <trkpt lat="52.20063703134656" lon="13.209042968228459">
        <ele>38.579999999999998</ele>
        <time>2019-06-23T12:57:52Z</time>
      </trkpt>
      <trkpt lat="52.200744990259409" lon="13.209042968228459">
        <ele>38.579999999999998</ele>
        <time>2019-06-23T12:57:54Z</time>
      </trkpt>
      <trkpt lat="52.202075030654669" lon="13.209621990099549">
        <ele>38.100000000000001</ele>
        <time>2019-06-23T12:58:03Z</time>
      </trkpt>
      <trkpt lat="52.203576983883977" lon="13.210436962544918">
        <ele>38.100000000000001</ele>
        <time>2019-06-23T12:58:12Z</time>
      </trkpt>
      <trkpt lat="52.203770019114017" lon="13.210479961708188">
        <ele>38.100000000000001</ele>
        <time>2019-06-23T12:58:13Z</time>
      </trkpt>
      <trkpt lat="52.204005969688296" lon="13.210459006950259">
        <ele>37.619999999999997</ele>
        <time>2019-06-23T12:58:14Z</time>
      </trkpt>
      <trkpt lat="52.204650035127997" lon="13.210479961708188">
        <ele>36.659999999999997</ele>
        <time>2019-06-23T12:58:17Z</time>
      </trkpt>
      <trkpt lat="52.204865030944347" lon="13.210545005276799">
        <ele>36.18</ele>
        <time>2019-06-23T12:58:18Z</time>
      </trkpt>
      <trkpt lat="52.205057982355356" lon="13.210608959197998">
        <ele>36.18</ele>
        <time>2019-06-23T12:58:19Z</time>
      </trkpt>
      <trkpt lat="52.205271972343326" lon="13.210588004440069">
        <ele>35.689999999999998</ele>
        <time>2019-06-23T12:58:20Z</time>
      </trkpt>
      <trkpt lat="52.205486968159676" lon="13.210545005276799">
        <ele>35.689999999999998</ele>
        <time>2019-06-23T12:58:21Z</time>
      </trkpt>
      <trkpt lat="52.205700958147645" lon="13.210502006113529">
        <ele>35.689999999999998</ele>
        <time>2019-06-23T12:58:22Z</time>
      </trkpt>
      <trkpt lat="52.205937998369336" lon="13.210459006950259">
        <ele>35.210000000000001</ele>
        <time>2019-06-23T12:58:23Z</time>
      </trkpt>
      <trkpt lat="52.206174032762647" lon="13.210394969210029">
        <ele>34.25</ele>
        <time>2019-06-23T12:58:25Z</time>
      </trkpt>
      <trkpt lat="52.207889975979924" lon="13.210265971720219">
        <ele>32.810000000000002</ele>
        <time>2019-06-23T12:58:33Z</time>
      </trkpt>
      <trkpt lat="52.208040012046695" lon="13.210244011133909">
        <ele>32.329999999999998</ele>
        <time>2019-06-23T12:58:34Z</time>
      </trkpt>
      <trkpt lat="52.208318961784244" lon="13.210093975067139">
        <ele>32.329999999999998</ele>
        <time>2019-06-23T12:58:35Z</time>
      </trkpt>
      <trkpt lat="52.208447959274054" lon="13.209964977577329">
        <ele>31.850000000000001</ele>
        <time>2019-06-23T12:58:36Z</time>
      </trkpt>
      <trkpt lat="52.208663038909435" lon="13.20972902700305">
        <ele>31.850000000000001</ele>
        <time>2019-06-23T12:58:38Z</time>
      </trkpt>
      <trkpt lat="52.208812991157174" lon="13.20968602783978">
        <ele>32.810000000000002</ele>
        <time>2019-06-23T12:58:40Z</time>
      </trkpt>
      <trkpt lat="52.209929041564465" lon="13.21011601947248">
        <ele>33.289999999999999</ele>
        <time>2019-06-23T12:58:48Z</time>
      </trkpt>
      <trkpt lat="52.210143031552434" lon="13.210244011133909">
        <ele>33.289999999999999</ele>
        <time>2019-06-23T12:58:50Z</time>
      </trkpt>
      <trkpt lat="52.210250990465283" lon="13.210330009460449">
        <ele>33.289999999999999</ele>
        <time>2019-06-23T12:58:51Z</time>
      </trkpt>
      <trkpt lat="52.211323035880923" lon="13.211339022964239">
        <ele>34.729999999999997</ele>
        <time>2019-06-23T12:59:01Z</time>
      </trkpt>
      <trkpt lat="52.211516993120313" lon="13.211467014625669">
        <ele>35.689999999999998</ele>
        <time>2019-06-23T12:59:03Z</time>
      </trkpt>
      <trkpt lat="52.211624030023813" lon="13.211488975211978">
        <ele>35.689999999999998</ele>
        <time>2019-06-23T12:59:04Z</time>
      </trkpt>
      <trkpt lat="52.211730983108282" lon="13.211510013788939">
        <ele>36.659999999999997</ele>
        <time>2019-06-23T12:59:05Z</time>
      </trkpt>
      <trkpt lat="52.211838020011783" lon="13.211531974375248">
        <ele>36.659999999999997</ele>
        <time>2019-06-23T12:59:06Z</time>
      </trkpt>
      <trkpt lat="52.211945978924632" lon="13.211488975211978">
        <ele>36.659999999999997</ele>
        <time>2019-06-23T12:59:07Z</time>
      </trkpt>
      <trkpt lat="52.212053015828133" lon="13.211445976048708">
        <ele>36.659999999999997</ele>
        <time>2019-06-23T12:59:08Z</time>
      </trkpt>
      <trkpt lat="52.212910987436771" lon="13.211187981069088">
        <ele>37.140000000000001</ele>
        <time>2019-06-23T12:59:15Z</time>
      </trkpt>
      <trkpt lat="52.213039984926581" lon="13.211167026311159">
        <ele>37.140000000000001</ele>
        <time>2019-06-23T12:59:16Z</time>
      </trkpt>
      <trkpt lat="52.213147021830082" lon="13.211187981069088">
        <ele>37.140000000000001</ele>
        <time>2019-06-23T12:59:17Z</time>
      </trkpt>
      <trkpt lat="52.213276019319892" lon="13.211273979395628">
        <ele>37.140000000000001</ele>
        <time>2019-06-23T12:59:18Z</time>
      </trkpt>
      <trkpt lat="52.213382972404361" lon="13.211339022964239">
        <ele>37.140000000000001</ele>
        <time>2019-06-23T12:59:19Z</time>
      </trkpt>
      <trkpt lat="52.213491015136242" lon="13.211425021290779">
        <ele>37.140000000000001</ele>
        <time>2019-06-23T12:59:20Z</time>
      </trkpt>
      <trkpt lat="52.213576007634401" lon="13.211510013788939">
        <ele>37.140000000000001</ele>
        <time>2019-06-23T12:59:21Z</time>
      </trkpt>
      <trkpt lat="52.214219989255071" lon="13.212304031476378">
        <ele>38.100000000000001</ele>
        <time>2019-06-23T12:59:30Z</time>
      </trkpt>
      <trkpt lat="52.214219989255071" lon="13.212304031476378">
        <ele>37.619999999999997</ele>
        <time>2019-06-23T12:59:48Z</time>
      </trkpt>
      <trkpt lat="52.214370025321841" lon="13.212496982887387">
        <ele>38.579999999999998</ele>
        <time>2019-06-23T13:00:04Z</time>
      </trkpt>
      <trkpt lat="52.214413024485111" lon="13.212496982887387">
        <ele>38.579999999999998</ele>
        <time>2019-06-23T13:00:05Z</time>
      </trkpt>
      <trkpt lat="52.214434985071421" lon="13.212453983724117">
        <ele>38.579999999999998</ele>
        <time>2019-06-23T13:00:06Z</time>
      </trkpt>
      <trkpt lat="52.214842010289431" lon="13.211917961016297">
        <ele>38.100000000000001</ele>
        <time>2019-06-23T13:00:11Z</time>
      </trkpt>
      <trkpt lat="52.214928008615971" lon="13.211854007095098">
        <ele>37.619999999999997</ele>
        <time>2019-06-23T13:00:13Z</time>
      </trkpt>
      <trkpt lat="52.216023020446301" lon="13.211038028821349">
        <ele>36.659999999999997</ele>
        <time>2019-06-23T13:00:25Z</time>
      </trkpt>
      <trkpt lat="52.21615101210773" lon="13.21082403883338">
        <ele>36.659999999999997</ele>
        <time>2019-06-23T13:00:26Z</time>
      </trkpt>
      <trkpt lat="52.216515960171819" lon="13.21011601947248">
        <ele>36.659999999999997</ele>
        <time>2019-06-23T13:00:33Z</time>
      </trkpt>
      <trkpt lat="52.216794993728399" lon="13.208592021837831">
        <ele>38.100000000000001</ele>
        <time>2019-06-23T13:00:41Z</time>
      </trkpt>
      <trkpt lat="52.217009989544749" lon="13.206660998985171">
        <ele>37.619999999999997</ele>
        <time>2019-06-23T13:00:51Z</time>
      </trkpt>
      <trkpt lat="52.217137981206179" lon="13.204537024721503">
        <ele>38.579999999999998</ele>
        <time>2019-06-23T13:01:01Z</time>
      </trkpt>
      <trkpt lat="52.217137981206179" lon="13.203399013727903">
        <ele>38.100000000000001</ele>
        <time>2019-06-23T13:01:07Z</time>
      </trkpt>
      <trkpt lat="52.21724602393806" lon="13.202819991856813">
        <ele>38.100000000000001</ele>
        <time>2019-06-23T13:01:09Z</time>
      </trkpt>
      <trkpt lat="52.2173320222646" lon="13.202434005215764">
        <ele>38.100000000000001</ele>
        <time>2019-06-23T13:01:12Z</time>
      </trkpt>
      <trkpt lat="52.21728902310133" lon="13.202305007725954">
        <ele>38.100000000000001</ele>
        <time>2019-06-23T13:01:14Z</time>
      </trkpt>
      <trkpt lat="52.21724602393806" lon="13.202176010236144">
        <ele>38.100000000000001</ele>
        <time>2019-06-23T13:01:15Z</time>
      </trkpt>
      <trkpt lat="52.21720302477479" lon="13.202048018574715">
        <ele>38.100000000000001</ele>
        <time>2019-06-23T13:01:16Z</time>
      </trkpt>
      <trkpt lat="52.217052988708019" lon="13.201682986691594">
        <ele>38.100000000000001</ele>
        <time>2019-06-23T13:01:18Z</time>
      </trkpt>
      <trkpt lat="52.21570098772645" lon="13.199387015774846">
        <ele>38.579999999999998</ele>
        <time>2019-06-23T13:01:29Z</time>
      </trkpt>
      <trkpt lat="52.214413024485111" lon="13.197154998779297">
        <ele>38.579999999999998</ele>
        <time>2019-06-23T13:01:41Z</time>
      </trkpt>
      <trkpt lat="52.212933031842113" lon="13.194579994305968">
        <ele>40.020000000000003</ele>
        <time>2019-06-23T13:01:54Z</time>
      </trkpt>
      <trkpt lat="52.212718036025763" lon="13.194237006828189">
        <ele>40.5</ele>
        <time>2019-06-23T13:01:57Z</time>
      </trkpt>
      <trkpt lat="52.212482001632452" lon="13.19393701851368">
        <ele>40.5</ele>
        <time>2019-06-23T13:01:58Z</time>
      </trkpt>
      <trkpt lat="52.212310004979372" lon="13.193828975781798">
        <ele>40.5</ele>
        <time>2019-06-23T13:01:59Z</time>
      </trkpt>
      <trkpt lat="52.211065962910652" lon="13.19288500584662">
        <ele>40.5</ele>
        <time>2019-06-23T13:02:05Z</time>
      </trkpt>
      <trkpt lat="52.209198977798223" lon="13.191362014040351">
        <ele>38.100000000000001</ele>
        <time>2019-06-23T13:02:13Z</time>
      </trkpt>
      <trkpt lat="52.207118002697825" lon="13.189172996208072">
        <ele>38.100000000000001</ele>
        <time>2019-06-23T13:02:22Z</time>
      </trkpt>
      <trkpt lat="52.204693034291267" lon="13.185525024309754">
        <ele>39.539999999999999</ele>
        <time>2019-06-23T13:02:35Z</time>
      </trkpt>
      <trkpt lat="52.203942015767097" lon="13.184559009969234">
        <ele>39.539999999999999</ele>
        <time>2019-06-23T13:02:39Z</time>
      </trkpt>
      <trkpt lat="52.203705981373787" lon="13.184280982241035">
        <ele>39.539999999999999</ele>
        <time>2019-06-23T13:02:40Z</time>
      </trkpt>
      <trkpt lat="52.202118029817939" lon="13.182907020673156">
        <ele>38.579999999999998</ele>
        <time>2019-06-23T13:02:47Z</time>
      </trkpt>
      <trkpt lat="52.201924994587898" lon="13.182756984606385">
        <ele>38.100000000000001</ele>
        <time>2019-06-23T13:02:48Z</time>
      </trkpt>
      <trkpt lat="52.201731959357858" lon="13.182650031521916">
        <ele>38.100000000000001</ele>
        <time>2019-06-23T13:02:49Z</time>
      </trkpt>
      <trkpt lat="52.201496008783579" lon="13.182650031521916">
        <ele>38.100000000000001</ele>
        <time>2019-06-23T13:02:50Z</time>
      </trkpt>
      <trkpt lat="52.201259974390268" lon="13.182650031521916">
        <ele>38.579999999999998</ele>
        <time>2019-06-23T13:02:51Z</time>
      </trkpt>
      <trkpt lat="52.201001979410648" lon="13.182670986279845">
        <ele>38.579999999999998</ele>
        <time>2019-06-23T13:02:52Z</time>
      </trkpt>
      <trkpt lat="52.199243037030101" lon="13.182627987116575">
        <ele>38.100000000000001</ele>
        <time>2019-06-23T13:02:59Z</time>
      </trkpt>
      <trkpt lat="52.199028041213751" lon="13.182499995455146">
        <ele>38.100000000000001</ele>
        <time>2019-06-23T13:03:00Z</time>
      </trkpt>
      <trkpt lat="52.19881396740675" lon="13.182349037379026">
        <ele>37.619999999999997</ele>
        <time>2019-06-23T13:03:01Z</time>
      </trkpt>
      <trkpt lat="52.19862001016736" lon="13.182199001312256">
        <ele>37.619999999999997</ele>
        <time>2019-06-23T13:03:02Z</time>
      </trkpt>
      <trkpt lat="52.19846997410059" lon="13.181919967755675">
        <ele>37.619999999999997</ele>
        <time>2019-06-23T13:03:03Z</time>
      </trkpt>
      <trkpt lat="52.198320021852851" lon="13.181641018018126">
        <ele>37.140000000000001</ele>
        <time>2019-06-23T13:03:04Z</time>
      </trkpt>
      <trkpt lat="52.19821298494935" lon="13.181318985298276">
        <ele>37.140000000000001</ele>
        <time>2019-06-23T13:03:05Z</time>
      </trkpt>
      <trkpt lat="52.19808398745954" lon="13.180975997820497">
        <ele>37.140000000000001</ele>
        <time>2019-06-23T13:03:06Z</time>
      </trkpt>
      <trkpt lat="52.197997989133" lon="13.180610965937376">
        <ele>37.140000000000001</ele>
        <time>2019-06-23T13:03:07Z</time>
      </trkpt>
      <trkpt lat="52.197977034375072" lon="13.180224979296327">
        <ele>37.140000000000001</ele>
        <time>2019-06-23T13:03:08Z</time>
      </trkpt>
      <trkpt lat="52.19795498996973" lon="13.179881991818547">
        <ele>36.659999999999997</ele>
        <time>2019-06-23T13:03:09Z</time>
      </trkpt>
      <trkpt lat="52.19791199080646" lon="13.179602958261967">
        <ele>36.659999999999997</ele>
        <time>2019-06-23T13:03:10Z</time>
      </trkpt>
      <trkpt lat="52.19786899164319" lon="13.179324008524418">
        <ele>36.18</ele>
        <time>2019-06-23T13:03:11Z</time>
      </trkpt>
      <trkpt lat="52.197783999145031" lon="13.179087974131107">
        <ele>36.18</ele>
        <time>2019-06-23T13:03:12Z</time>
      </trkpt>
      <trkpt lat="52.197655001655221" lon="13.178872978314757">
        <ele>35.689999999999998</ele>
        <time>2019-06-23T13:03:13Z</time>
      </trkpt>
      <trkpt lat="52.19750496558845" lon="13.178615989163518">
        <ele>35.689999999999998</ele>
        <time>2019-06-23T13:03:14Z</time>
      </trkpt>
      <trkpt lat="52.19737596809864" lon="13.178357994183898">
        <ele>35.689999999999998</ele>
        <time>2019-06-23T13:03:15Z</time>
      </trkpt>
      <trkpt lat="52.197011020034552" lon="13.177649974822998">
        <ele>35.210000000000001</ele>
        <time>2019-06-23T13:03:18Z</time>
      </trkpt>
      <trkpt lat="52.196903983131051" lon="13.177414024248719">
        <ele>35.210000000000001</ele>
        <time>2019-06-23T13:03:19Z</time>
      </trkpt>
      <trkpt lat="52.196046011522412" lon="13.17526800557971">
        <ele>34.25</ele>
        <time>2019-06-23T13:03:26Z</time>
      </trkpt>
      <trkpt lat="52.195122996345162" lon="13.172800960019231">
        <ele>33.289999999999999</ele>
        <time>2019-06-23T13:03:34Z</time>
      </trkpt>
      <trkpt lat="52.193835033103824" lon="13.170076003298163">
        <ele>33.289999999999999</ele>
        <time>2019-06-23T13:03:44Z</time>
      </trkpt>
      <trkpt lat="52.193084014579654" lon="13.168724002316594">
        <ele>33.770000000000003</ele>
        <time>2019-06-23T13:03:49Z</time>
      </trkpt>
      <trkpt lat="52.192870024591684" lon="13.168509006500244">
        <ele>33.770000000000003</ele>
        <time>2019-06-23T13:03:50Z</time>
      </trkpt>
      <trkpt lat="52.192655028775334" lon="13.168358970433474">
        <ele>33.289999999999999</ele>
        <time>2019-06-23T13:03:51Z</time>
      </trkpt>
      <trkpt lat="52.192418994382024" lon="13.168229972943664">
        <ele>33.289999999999999</ele>
        <time>2019-06-23T13:03:52Z</time>
      </trkpt>
      <trkpt lat="52.192182959988713" lon="13.168143974617124">
        <ele>32.810000000000002</ele>
        <time>2019-06-23T13:03:53Z</time>
      </trkpt>
      <trkpt lat="52.191947009414434" lon="13.168037021532655">
        <ele>32.810000000000002</ele>
        <time>2019-06-23T13:03:54Z</time>
      </trkpt>
      <trkpt lat="52.191710975021124" lon="13.167823031544685">
        <ele>32.810000000000002</ele>
        <time>2019-06-23T13:03:56Z</time>
      </trkpt>
      <trkpt lat="52.191518023610115" lon="13.167565036565065">
        <ele>33.289999999999999</ele>
        <time>2019-06-23T13:03:57Z</time>
      </trkpt>
      <trkpt lat="52.191346026957035" lon="13.167286003008485">
        <ele>33.770000000000003</ele>
        <time>2019-06-23T13:03:58Z</time>
      </trkpt>
      <trkpt lat="52.190787959843874" lon="13.165912963449955">
        <ele>33.289999999999999</ele>
        <time>2019-06-23T13:04:04Z</time>
      </trkpt>
      <trkpt lat="52.190358974039555" lon="13.164990032091737">
        <ele>33.770000000000003</ele>
        <time>2019-06-23T13:04:10Z</time>
      </trkpt>
      <trkpt lat="52.190358974039555" lon="13.164839996024966">
        <ele>33.770000000000003</ele>
        <time>2019-06-23T13:04:11Z</time>
      </trkpt>
      <trkpt lat="52.190444972366095" lon="13.163724029436707">
        <ele>33.289999999999999</ele>
        <time>2019-06-23T13:04:16Z</time>
      </trkpt>
      <trkpt lat="52.190509010106325" lon="13.163552032783628">
        <ele>33.770000000000003</ele>
        <time>2019-06-23T13:04:17Z</time>
      </trkpt>
      <trkpt lat="52.190573969855905" lon="13.163380958139896">
        <ele>33.770000000000003</ele>
        <time>2019-06-23T13:04:18Z</time>
      </trkpt>
      <trkpt lat="52.191475024446845" lon="13.161192024126649">
        <ele>35.689999999999998</ele>
        <time>2019-06-23T13:04:29Z</time>
      </trkpt>
      <trkpt lat="52.191990008577704" lon="13.15971203148365">
        <ele>36.659999999999997</ele>
        <time>2019-06-23T13:04:35Z</time>
      </trkpt>
      <trkpt lat="52.192053962498903" lon="13.15943299792707">
        <ele>36.659999999999997</ele>
        <time>2019-06-23T13:04:36Z</time>
      </trkpt>
      <trkpt lat="52.192332996055484" lon="13.15728697925806">
        <ele>37.140000000000001</ele>
        <time>2019-06-23T13:04:43Z</time>
      </trkpt>
      <trkpt lat="52.192312041297555" lon="13.1569429859519">
        <ele>37.140000000000001</ele>
        <time>2019-06-23T13:04:44Z</time>
      </trkpt>
      <trkpt lat="52.192289996892214" lon="13.156578959897161">
        <ele>37.140000000000001</ele>
        <time>2019-06-23T13:04:45Z</time>
      </trkpt>
      <trkpt lat="52.192225959151983" lon="13.155399039387703">
        <ele>37.619999999999997</ele>
        <time>2019-06-23T13:04:48Z</time>
      </trkpt>
      <trkpt lat="52.192248003557324" lon="13.154991008341312">
        <ele>37.619999999999997</ele>
        <time>2019-06-23T13:04:49Z</time>
      </trkpt>
      <trkpt lat="52.192312041297555" lon="13.154582977294922">
        <ele>38.100000000000001</ele>
        <time>2019-06-23T13:04:50Z</time>
      </trkpt>
      <trkpt lat="52.192804981023073" lon="13.152265967801213">
        <ele>37.619999999999997</ele>
        <time>2019-06-23T13:04:56Z</time>
      </trkpt>
      <trkpt lat="52.192956022918224" lon="13.151921974495053">
        <ele>37.619999999999997</ele>
        <time>2019-06-23T13:04:57Z</time>
      </trkpt>
      <trkpt lat="52.193105975165963" lon="13.151601031422615">
        <ele>37.619999999999997</ele>
        <time>2019-06-23T13:04:58Z</time>
      </trkpt>
      <trkpt lat="52.194050028920174" lon="13.149733962491155">
        <ele>37.140000000000001</ele>
        <time>2019-06-23T13:05:05Z</time>
      </trkpt>
      <trkpt lat="52.194093028083444" lon="13.149475967511535">
        <ele>37.140000000000001</ele>
        <time>2019-06-23T13:05:06Z</time>
      </trkpt>
      <trkpt lat="52.194156982004642" lon="13.149240016937256">
        <ele>37.140000000000001</ele>
        <time>2019-06-23T13:05:07Z</time>
      </trkpt>
      <trkpt lat="52.194199981167912" lon="13.149046981707215">
        <ele>37.140000000000001</ele>
        <time>2019-06-23T13:05:08Z</time>
      </trkpt>
      <trkpt lat="52.194199981167912" lon="13.148831985890865">
        <ele>37.140000000000001</ele>
        <time>2019-06-23T13:05:09Z</time>
      </trkpt>
      <trkpt lat="52.194222025573254" lon="13.148660995066166">
        <ele>37.140000000000001</ele>
        <time>2019-06-23T13:05:10Z</time>
      </trkpt>
      <trkpt lat="52.194199981167912" lon="13.148488998413086">
        <ele>37.140000000000001</ele>
        <time>2019-06-23T13:05:11Z</time>
      </trkpt>
      <trkpt lat="52.194179026409984" lon="13.148317001760006">
        <ele>36.659999999999997</ele>
        <time>2019-06-23T13:05:12Z</time>
      </trkpt>
      <trkpt lat="52.194156982004642" lon="13.148146010935307">
        <ele>36.659999999999997</ele>
        <time>2019-06-23T13:05:13Z</time>
      </trkpt>
      <trkpt lat="52.194136027246714" lon="13.147995974868536">
        <ele>36.659999999999997</ele>
        <time>2019-06-23T13:05:14Z</time>
      </trkpt>
      <trkpt lat="52.193792033940554" lon="13.145614005625248">
        <ele>36.659999999999997</ele>
        <time>2019-06-23T13:05:27Z</time>
      </trkpt>
      <trkpt lat="52.193641997873783" lon="13.144434001296759">
        <ele>36.18</ele>
        <time>2019-06-23T13:05:31Z</time>
      </trkpt>
      <trkpt lat="52.193514006212354" lon="13.14318903721869">
        <ele>36.18</ele>
        <time>2019-06-23T13:05:34Z</time>
      </trkpt>
      <trkpt lat="52.193428007885814" lon="13.142781006172299">
        <ele>36.18</ele>
        <time>2019-06-23T13:05:35Z</time>
      </trkpt>
      <trkpt lat="52.193319965153933" lon="13.14235202036798">
        <ele>36.659999999999997</ele>
        <time>2019-06-23T13:05:36Z</time>
      </trkpt>
      <trkpt lat="52.193105975165963" lon="13.14153696410358">
        <ele>36.659999999999997</ele>
        <time>2019-06-23T13:05:38Z</time>
      </trkpt>
      <trkpt lat="52.193041015416384" lon="13.14110797829926">
        <ele>36.659999999999997</ele>
        <time>2019-06-23T13:05:39Z</time>
      </trkpt>
      <trkpt lat="52.193019976839423" lon="13.140678992494941">
        <ele>36.659999999999997</ele>
        <time>2019-06-23T13:05:40Z</time>
      </trkpt>
      <trkpt lat="52.192976977676153" lon="13.139798976480961">
        <ele>36.18</ele>
        <time>2019-06-23T13:05:42Z</time>
      </trkpt>
      <trkpt lat="52.192913023754954" lon="13.139348030090332">
        <ele>35.689999999999998</ele>
        <time>2019-06-23T13:05:43Z</time>
      </trkpt>
      <trkpt lat="52.192847980186343" lon="13.138939999043941">
        <ele>35.689999999999998</ele>
        <time>2019-06-23T13:05:44Z</time>
      </trkpt>
      <trkpt lat="52.192526031285524" lon="13.137374008074403">
        <ele>34.729999999999997</ele>
        <time>2019-06-23T13:05:49Z</time>
      </trkpt>
      <trkpt lat="52.192268958315253" lon="13.136516036465764">
        <ele>33.289999999999999</ele>
        <time>2019-06-23T13:05:55Z</time>
      </trkpt>
      <trkpt lat="52.192033007740974" lon="13.135656975209713">
        <ele>31.370000000000001</ele>
        <time>2019-06-23T13:05:59Z</time>
      </trkpt>
      <trkpt lat="52.191947009414434" lon="13.135313987731934">
        <ele>30.41</ele>
        <time>2019-06-23T13:06:00Z</time>
      </trkpt>
      <trkpt lat="52.191861011087894" lon="13.134906040504575">
        <ele>29.93</ele>
        <time>2019-06-23T13:06:01Z</time>
      </trkpt>
      <trkpt lat="52.191496985033154" lon="13.132675029337406">
        <ele>26.079999999999998</ele>
        <time>2019-06-23T13:06:06Z</time>
      </trkpt>
      <trkpt lat="52.191453985869884" lon="13.132374035194516">
        <ele>25.600000000000001</ele>
        <time>2019-06-23T13:06:07Z</time>
      </trkpt>
      <trkpt lat="52.191432025283575" lon="13.132116962224245">
        <ele>25.120000000000001</ele>
        <time>2019-06-23T13:06:08Z</time>
      </trkpt>
      <trkpt lat="52.191410986706614" lon="13.131901966407895">
        <ele>24.640000000000001</ele>
        <time>2019-06-23T13:06:09Z</time>
      </trkpt>
      <trkpt lat="52.191389026120305" lon="13.131752014160156">
        <ele>24.16</ele>
        <time>2019-06-23T13:06:10Z</time>
      </trkpt>
      <trkpt lat="52.191389026120305" lon="13.131644977256656">
        <ele>24.16</ele>
        <time>2019-06-23T13:06:11Z</time>
      </trkpt>
      <trkpt lat="52.191367987543344" lon="13.131538024172187">
        <ele>25.120000000000001</ele>
        <time>2019-06-23T13:06:12Z</time>
      </trkpt>
      <trkpt lat="52.191281989216805" lon="13.131495025008917">
        <ele>25.120000000000001</ele>
        <time>2019-06-23T13:06:13Z</time>
      </trkpt>
      <trkpt lat="52.191195990890265" lon="13.131452025845647">
        <ele>26.079999999999998</ele>
        <time>2019-06-23T13:06:14Z</time>
      </trkpt>
      <trkpt lat="52.191089037805796" lon="13.131409026682377">
        <ele>27.039999999999999</ele>
        <time>2019-06-23T13:06:15Z</time>
      </trkpt>
      <trkpt lat="52.190252020955086" lon="13.131023040041327">
        <ele>30.890000000000001</ele>
        <time>2019-06-23T13:06:23Z</time>
      </trkpt>
      <trkpt lat="52.188814021646976" lon="13.130378974601626">
        <ele>32.810000000000002</ele>
        <time>2019-06-23T13:06:29Z</time>
      </trkpt>
      <trkpt lat="52.188620986416936" lon="13.130120979622006">
        <ele>33.289999999999999</ele>
        <time>2019-06-23T13:06:30Z</time>
      </trkpt>
      <trkpt lat="52.188428035005927" lon="13.129842029884458">
        <ele>33.289999999999999</ele>
        <time>2019-06-23T13:06:31Z</time>
      </trkpt>
      <trkpt lat="52.188234999775887" lon="13.129521002992988">
        <ele>32.810000000000002</ele>
        <time>2019-06-23T13:06:32Z</time>
      </trkpt>
      <trkpt lat="52.186968997120857" lon="13.127654017880559">
        <ele>32.810000000000002</ele>
        <time>2019-06-23T13:06:37Z</time>
      </trkpt>
      <trkpt lat="52.185487998649478" lon="13.125936985015869">
        <ele>34.729999999999997</ele>
        <time>2019-06-23T13:06:42Z</time>
      </trkpt>
      <trkpt lat="52.184716025367379" lon="13.12503601424396">
        <ele>36.659999999999997</ele>
        <time>2019-06-23T13:06:46Z</time>
      </trkpt>
      <trkpt lat="52.183064036071301" lon="13.122997032478452">
        <ele>40.5</ele>
        <time>2019-06-23T13:06:56Z</time>
      </trkpt>
      <trkpt lat="52.182204974815249" lon="13.122052978724241">
        <ele>40.020000000000003</ele>
        <time>2019-06-23T13:07:00Z</time>
      </trkpt>
      <trkpt lat="52.181926025077701" lon="13.121924987062812">
        <ele>39.539999999999999</ele>
        <time>2019-06-23T13:07:01Z</time>
      </trkpt>
      <trkpt lat="52.18164699152112" lon="13.121795989573002">
        <ele>38.579999999999998</ele>
        <time>2019-06-23T13:07:02Z</time>
      </trkpt>
      <trkpt lat="52.1811109688133" lon="13.121537994593382">
        <ele>37.619999999999997</ele>
        <time>2019-06-23T13:07:04Z</time>
      </trkpt>
      <trkpt lat="52.18085297383368" lon="13.121410002931952">
        <ele>37.140000000000001</ele>
        <time>2019-06-23T13:07:05Z</time>
      </trkpt>
      <trkpt lat="52.180575029924512" lon="13.121195007115602">
        <ele>37.140000000000001</ele>
        <time>2019-06-23T13:07:06Z</time>
      </trkpt>
      <trkpt lat="52.180338995531201" lon="13.120895018801093">
        <ele>36.659999999999997</ele>
        <time>2019-06-23T13:07:07Z</time>
      </trkpt>
      <trkpt lat="52.180123999714851" lon="13.120529986917973">
        <ele>36.659999999999997</ele>
        <time>2019-06-23T13:07:08Z</time>
      </trkpt>
      <trkpt lat="52.179930964484811" lon="13.120165038853884">
        <ele>36.18</ele>
        <time>2019-06-23T13:07:09Z</time>
      </trkpt>
      <trkpt lat="52.178879035636783" lon="13.118491005152464">
        <ele>35.210000000000001</ele>
        <time>2019-06-23T13:07:15Z</time>
      </trkpt>
      <trkpt lat="52.178771998733282" lon="13.118191016837955">
        <ele>34.729999999999997</ele>
        <time>2019-06-23T13:07:16Z</time>
      </trkpt>
      <trkpt lat="52.178686000406742" lon="13.117848029360175">
        <ele>34.729999999999997</ele>
        <time>2019-06-23T13:07:17Z</time>
      </trkpt>
      <trkpt lat="52.178578963503242" lon="13.117504036054015">
        <ele>34.729999999999997</ele>
        <time>2019-06-23T13:07:18Z</time>
      </trkpt>
      <trkpt lat="52.178320968523622" lon="13.116539027541876">
        <ele>34.25</ele>
        <time>2019-06-23T13:07:21Z</time>
      </trkpt>
      <trkpt lat="52.178214015439153" lon="13.116324031725526">
        <ele>34.25</ele>
        <time>2019-06-23T13:07:22Z</time>
      </trkpt>
      <trkpt lat="52.178043024614453" lon="13.116130996495485">
        <ele>34.25</ele>
        <time>2019-06-23T13:07:23Z</time>
      </trkpt>
      <trkpt lat="52.177848983556032" lon="13.115894962102175">
        <ele>34.25</ele>
        <time>2019-06-23T13:07:24Z</time>
      </trkpt>
      <trkpt lat="52.177613032981753" lon="13.115636967122555">
        <ele>34.729999999999997</ele>
        <time>2019-06-23T13:07:25Z</time>
      </trkpt>
      <trkpt lat="52.175553012639284" lon="13.113190960139036">
        <ele>36.659999999999997</ele>
        <time>2019-06-23T13:07:35Z</time>
      </trkpt>
      <trkpt lat="52.174265971407294" lon="13.111475016921759">
        <ele>37.619999999999997</ele>
        <time>2019-06-23T13:07:42Z</time>
      </trkpt>
      <trkpt lat="52.174159018322825" lon="13.111109985038638">
        <ele>37.619999999999997</ele>
        <time>2019-06-23T13:07:43Z</time>
      </trkpt>
      <trkpt lat="52.174030020833015" lon="13.110745036974549">
        <ele>37.619999999999997</ele>
        <time>2019-06-23T13:07:44Z</time>
      </trkpt>
      <trkpt lat="52.173793986439705" lon="13.110015979036689">
        <ele>37.140000000000001</ele>
        <time>2019-06-23T13:07:46Z</time>
      </trkpt>
      <trkpt lat="52.173664988949895" lon="13.1096510309726">
        <ele>36.659999999999997</ele>
        <time>2019-06-23T13:07:47Z</time>
      </trkpt>
      <trkpt lat="52.173450998961926" lon="13.10935003682971">
        <ele>36.18</ele>
        <time>2019-06-23T13:07:48Z</time>
      </trkpt>
      <trkpt lat="52.173214964568615" lon="13.109200000762939">
        <ele>35.689999999999998</ele>
        <time>2019-06-23T13:07:49Z</time>
      </trkpt>
      <trkpt lat="52.172979013994336" lon="13.109071003273129">
        <ele>35.210000000000001</ele>
        <time>2019-06-23T13:07:50Z</time>
      </trkpt>
      <trkpt lat="52.172699980437756" lon="13.10890001244843">
        <ele>35.210000000000001</ele>
        <time>2019-06-23T13:07:51Z</time>
      </trkpt>
      <trkpt lat="52.172441985458136" lon="13.10874997638166">
        <ele>35.210000000000001</ele>
        <time>2019-06-23T13:07:52Z</time>
      </trkpt>
      <trkpt lat="52.170295966789126" lon="13.10748397372663">
        <ele>36.18</ele>
        <time>2019-06-23T13:08:01Z</time>
      </trkpt>
      <trkpt lat="52.169717028737068" lon="13.1070969812572">
        <ele>38.100000000000001</ele>
        <time>2019-06-23T13:08:04Z</time>
      </trkpt>
      <trkpt lat="52.169545032083988" lon="13.106882991269231">
        <ele>39.060000000000002</ele>
        <time>2019-06-23T13:08:05Z</time>
      </trkpt>
      <trkpt lat="52.169374041259289" lon="13.106690039858222">
        <ele>39.539999999999999</ele>
        <time>2019-06-23T13:08:06Z</time>
      </trkpt>
      <trkpt lat="52.168772974982858" lon="13.105916976928711">
        <ele>44.350000000000001</ele>
        <time>2019-06-23T13:08:11Z</time>
      </trkpt>
      <trkpt lat="52.167935958132148" lon="13.104758011177182">
        <ele>49.630000000000003</ele>
        <time>2019-06-23T13:08:22Z</time>
      </trkpt>
      <trkpt lat="52.167442012578249" lon="13.104178989306092">
        <ele>48.189999999999998</ele>
        <time>2019-06-23T13:08:27Z</time>
      </trkpt>
      <trkpt lat="52.167377974838018" lon="13.104135990142822">
        <ele>47.710000000000001</ele>
        <time>2019-06-23T13:08:28Z</time>
      </trkpt>
      <trkpt lat="52.16727102175355" lon="13.104049991816282">
        <ele>45.310000000000002</ele>
        <time>2019-06-23T13:08:34Z</time>
      </trkpt>
      <trkpt lat="52.16718502342701" lon="13.103986037895083">
        <ele>41.939999999999998</ele>
        <time>2019-06-23T13:08:56Z</time>
      </trkpt>
      <trkpt lat="52.16709902510047" lon="13.103922000154853">
        <ele>40.979999999999997</ele>
        <time>2019-06-23T13:08:57Z</time>
      </trkpt>
      <trkpt lat="52.16652000322938" lon="13.103427970781922">
        <ele>36.659999999999997</ele>
        <time>2019-06-23T13:09:03Z</time>
      </trkpt>
      <trkpt lat="52.166454959660769" lon="13.103298973292112">
        <ele>35.689999999999998</ele>
        <time>2019-06-23T13:09:04Z</time>
      </trkpt>
      <trkpt lat="52.16551098972559" lon="13.101904978975654">
        <ele>35.210000000000001</ele>
        <time>2019-06-23T13:09:14Z</time>
      </trkpt>
      <trkpt lat="52.164610018953681" lon="13.100574016571045">
        <ele>35.210000000000001</ele>
        <time>2019-06-23T13:09:24Z</time>
      </trkpt>
      <trkpt lat="52.164009036496282" lon="13.099865997210145">
        <ele>35.210000000000001</ele>
        <time>2019-06-23T13:09:33Z</time>
      </trkpt>
      <trkpt lat="52.163493968546391" lon="13.098750030621886">
        <ele>33.289999999999999</ele>
        <time>2019-06-23T13:09:42Z</time>
      </trkpt>
      <trkpt lat="52.163450969383121" lon="13.098642993718386">
        <ele>33.289999999999999</ele>
        <time>2019-06-23T13:09:43Z</time>
      </trkpt>
      <trkpt lat="52.163430014625192" lon="13.098579039797187">
        <ele>33.770000000000003</ele>
        <time>2019-06-23T13:09:44Z</time>
      </trkpt>
      <trkpt lat="52.163387015461922" lon="13.098493041470647">
        <ele>33.770000000000003</ele>
        <time>2019-06-23T13:09:45Z</time>
      </trkpt>
      <trkpt lat="52.163387015461922" lon="13.098257007077336">
        <ele>34.25</ele>
        <time>2019-06-23T13:09:47Z</time>
      </trkpt>
      <trkpt lat="52.163407970219851" lon="13.098214007914066">
        <ele>34.729999999999997</ele>
        <time>2019-06-23T13:09:48Z</time>
      </trkpt>
      <trkpt lat="52.163602011278272" lon="13.097034003585577">
        <ele>36.18</ele>
        <time>2019-06-23T13:09:56Z</time>
      </trkpt>
      <trkpt lat="52.163730002939701" lon="13.095488967373967">
        <ele>37.140000000000001</ele>
        <time>2019-06-23T13:10:06Z</time>
      </trkpt>
      <trkpt lat="52.163751963526011" lon="13.094265963882208">
        <ele>37.140000000000001</ele>
        <time>2019-06-23T13:10:13Z</time>
      </trkpt>
      <trkpt lat="52.163816001266241" lon="13.092441977933049">
        <ele>35.689999999999998</ele>
        <time>2019-06-23T13:10:21Z</time>
      </trkpt>
      <trkpt lat="52.163794962689281" lon="13.092226982116699">
        <ele>35.689999999999998</ele>
        <time>2019-06-23T13:10:22Z</time>
      </trkpt>
      <trkpt lat="52.163516012951732" lon="13.09106801636517">
        <ele>34.729999999999997</ele>
        <time>2019-06-23T13:10:29Z</time>
      </trkpt>
      <trkpt lat="52.163172019645572" lon="13.089717021211982">
        <ele>35.689999999999998</ele>
        <time>2019-06-23T13:10:36Z</time>
      </trkpt>
      <trkpt lat="52.162807993590832" lon="13.087678039446473">
        <ele>35.689999999999998</ele>
        <time>2019-06-23T13:10:44Z</time>
      </trkpt>
      <trkpt lat="52.162464000284672" lon="13.085275031626225">
        <ele>35.689999999999998</ele>
        <time>2019-06-23T13:10:53Z</time>
      </trkpt>
      <trkpt lat="52.162464000284672" lon="13.084309017285705">
        <ele>34.25</ele>
        <time>2019-06-23T13:10:57Z</time>
      </trkpt>
      <trkpt lat="52.162485960870981" lon="13.084072982892394">
        <ele>34.25</ele>
        <time>2019-06-23T13:10:58Z</time>
      </trkpt>
      <trkpt lat="52.162549998611212" lon="13.083858992904425">
        <ele>33.770000000000003</ele>
        <time>2019-06-23T13:10:59Z</time>
      </trkpt>
      <trkpt lat="52.162635996937752" lon="13.083622958511114">
        <ele>33.770000000000003</ele>
        <time>2019-06-23T13:11:00Z</time>
      </trkpt>
      <trkpt lat="52.162721995264292" lon="13.083429001271725">
        <ele>33.770000000000003</ele>
        <time>2019-06-23T13:11:01Z</time>
      </trkpt>
      <trkpt lat="52.162829032167792" lon="13.083258010447025">
        <ele>33.770000000000003</ele>
        <time>2019-06-23T13:11:02Z</time>
      </trkpt>
      <trkpt lat="52.162935985252261" lon="13.083107974380255">
        <ele>33.770000000000003</ele>
        <time>2019-06-23T13:11:03Z</time>
      </trkpt>
      <trkpt lat="52.163473013788462" lon="13.082314040511847">
        <ele>34.25</ele>
        <time>2019-06-23T13:11:08Z</time>
      </trkpt>
      <trkpt lat="52.163579966872931" lon="13.082121005281806">
        <ele>34.729999999999997</ele>
        <time>2019-06-23T13:11:09Z</time>
      </trkpt>
      <trkpt lat="52.163644004613161" lon="13.081906009465456">
        <ele>34.729999999999997</ele>
        <time>2019-06-23T13:11:10Z</time>
      </trkpt>
      <trkpt lat="52.163687003776431" lon="13.081649020314217">
        <ele>34.25</ele>
        <time>2019-06-23T13:11:11Z</time>
      </trkpt>
      <trkpt lat="52.163687003776431" lon="13.081369986757636">
        <ele>34.25</ele>
        <time>2019-06-23T13:11:12Z</time>
      </trkpt>
      <trkpt lat="52.163665965199471" lon="13.081068992614746">
        <ele>33.770000000000003</ele>
        <time>2019-06-23T13:11:13Z</time>
      </trkpt>
      <trkpt lat="52.163644004613161" lon="13.080812003463507">
        <ele>33.289999999999999</ele>
        <time>2019-06-23T13:11:14Z</time>
      </trkpt>
      <trkpt lat="52.163622966036201" lon="13.080554008483887">
        <ele>32.329999999999998</ele>
        <time>2019-06-23T13:11:16Z</time>
      </trkpt>
      <trkpt lat="52.163450969383121" lon="13.078773021697998">
        <ele>31.370000000000001</ele>
        <time>2019-06-23T13:11:25Z</time>
      </trkpt>
      <trkpt lat="52.163258017972112" lon="13.076691962778568">
        <ele>32.329999999999998</ele>
        <time>2019-06-23T13:11:36Z</time>
      </trkpt>
      <trkpt lat="52.163236979395151" lon="13.076241016387939">
        <ele>32.810000000000002</ele>
        <time>2019-06-23T13:11:40Z</time>
      </trkpt>
      <trkpt lat="52.163258017972112" lon="13.076176978647709">
        <ele>32.810000000000002</ele>
        <time>2019-06-23T13:11:41Z</time>
      </trkpt>
      <trkpt lat="52.163279978558421" lon="13.0759840272367">
        <ele>35.210000000000001</ele>
        <time>2019-06-23T13:11:50Z</time>
      </trkpt>
      <trkpt lat="52.163387015461922" lon="13.07561899535358">
        <ele>36.659999999999997</ele>
        <time>2019-06-23T13:12:08Z</time>
      </trkpt>
      <trkpt lat="52.163859000429511" lon="13.07452498935163">
        <ele>38.100000000000001</ele>
        <time>2019-06-23T13:12:14Z</time>
      </trkpt>
      <trkpt lat="52.164224032312632" lon="13.07351597584784">
        <ele>38.100000000000001</ele>
        <time>2019-06-23T13:12:19Z</time>
      </trkpt>
      <trkpt lat="52.16424498707056" lon="13.07330098003149">
        <ele>38.579999999999998</ele>
        <time>2019-06-23T13:12:20Z</time>
      </trkpt>
      <trkpt lat="52.16458898037672" lon="13.071177005767822">
        <ele>39.060000000000002</ele>
        <time>2019-06-23T13:12:29Z</time>
      </trkpt>
      <trkpt lat="52.164782015606761" lon="13.069225028157234">
        <ele>39.060000000000002</ele>
        <time>2019-06-23T13:12:36Z</time>
      </trkpt>
      <trkpt lat="52.164739016443491" lon="13.066198993474245">
        <ele>37.619999999999997</ele>
        <time>2019-06-23T13:12:48Z</time>
      </trkpt>
      <trkpt lat="52.164782015606761" lon="13.065598011016846">
        <ele>37.619999999999997</ele>
        <time>2019-06-23T13:12:52Z</time>
      </trkpt>
      <trkpt lat="52.16516800224781" lon="13.063216041773558">
        <ele>36.659999999999997</ele>
        <time>2019-06-23T13:13:05Z</time>
      </trkpt>
      <trkpt lat="52.16521100141108" lon="13.062980007380247">
        <ele>36.659999999999997</ele>
        <time>2019-06-23T13:13:06Z</time>
      </trkpt>
      <trkpt lat="52.165146041661501" lon="13.062872970476747">
        <ele>36.659999999999997</ele>
        <time>2019-06-23T13:13:08Z</time>
      </trkpt>
      <trkpt lat="52.16508200392127" lon="13.062786972150207">
        <ele>37.140000000000001</ele>
        <time>2019-06-23T13:13:09Z</time>
      </trkpt>
      <trkpt lat="52.16501796618104" lon="13.062700973823667">
        <ele>37.140000000000001</ele>
        <time>2019-06-23T13:13:10Z</time>
      </trkpt>
      <trkpt lat="52.164825014770031" lon="13.062572982162237">
        <ele>37.619999999999997</ele>
        <time>2019-06-23T13:13:11Z</time>
      </trkpt>
      <trkpt lat="52.16471697203815" lon="13.062615981325507">
        <ele>38.100000000000001</ele>
        <time>2019-06-23T13:13:13Z</time>
      </trkpt>
      <trkpt lat="52.164610018953681" lon="13.062680019065738">
        <ele>38.579999999999998</ele>
        <time>2019-06-23T13:13:14Z</time>
      </trkpt>
      <trkpt lat="52.163751963526011" lon="13.063623989000916">
        <ele>37.140000000000001</ele>
        <time>2019-06-23T13:13:23Z</time>
      </trkpt>
      <trkpt lat="52.163665965199471" lon="13.063709987327456">
        <ele>37.140000000000001</ele>
        <time>2019-06-23T13:13:25Z</time>
      </trkpt>
      <trkpt lat="52.163107981905341" lon="13.064118018373847">
        <ele>36.18</ele>
        <time>2019-06-23T13:13:30Z</time>
      </trkpt>
      <trkpt lat="52.163021983578801" lon="13.064118018373847">
        <ele>36.18</ele>
        <time>2019-06-23T13:13:31Z</time>
      </trkpt>
      <trkpt lat="52.162915030494332" lon="13.064075019210577">
        <ele>36.18</ele>
        <time>2019-06-23T13:13:32Z</time>
      </trkpt>
      <trkpt lat="52.162807993590832" lon="13.064052974805236">
        <ele>36.659999999999997</ele>
        <time>2019-06-23T13:13:33Z</time>
      </trkpt>
      <trkpt lat="52.162721995264292" lon="13.064009975641966">
        <ele>37.140000000000001</ele>
        <time>2019-06-23T13:13:34Z</time>
      </trkpt>
      <trkpt lat="52.162657035514712" lon="13.063881983980536">
        <ele>37.140000000000001</ele>
        <time>2019-06-23T13:13:35Z</time>
      </trkpt>
      <trkpt lat="52.162592997774482" lon="13.063774025067687">
        <ele>37.619999999999997</ele>
        <time>2019-06-23T13:13:36Z</time>
      </trkpt>
      <trkpt lat="52.162528960034251" lon="13.063666988164186">
        <ele>37.619999999999997</ele>
        <time>2019-06-23T13:13:37Z</time>
      </trkpt>
      <trkpt lat="52.162442961707711" lon="13.063537990674376">
        <ele>37.619999999999997</ele>
        <time>2019-06-23T13:13:39Z</time>
      </trkpt>
      <trkpt lat="52.162293009459972" lon="13.063345039263368">
        <ele>37.619999999999997</ele>
        <time>2019-06-23T13:13:40Z</time>
      </trkpt>
      <trkpt lat="52.162207011133432" lon="13.063259040936828">
        <ele>37.619999999999997</ele>
        <time>2019-06-23T13:13:41Z</time>
      </trkpt>
      <trkpt lat="52.161735026165843" lon="13.062872970476747">
        <ele>37.619999999999997</ele>
        <time>2019-06-23T13:13:48Z</time>
      </trkpt>
      <trkpt lat="52.161755980923772" lon="13.062872970476747">
        <ele>38.100000000000001</ele>
        <time>2019-06-23T13:13:52Z</time>
      </trkpt>
      <trkpt lat="52.161778025329113" lon="13.062894009053707">
        <ele>38.100000000000001</ele>
        <time>2019-06-23T13:13:53Z</time>
      </trkpt>
      <trkpt lat="52.161821024492383" lon="13.063474036753178">
        <ele>39.060000000000002</ele>
        <time>2019-06-23T13:14:01Z</time>
      </trkpt>
      <trkpt lat="52.161863017827272" lon="13.063623989000916">
        <ele>39.060000000000002</ele>
        <time>2019-06-23T13:14:11Z</time>
      </trkpt>
      <trkpt lat="52.161821024492383" lon="13.063603034242988">
        <ele>39.060000000000002</ele>
        <time>2019-06-23T13:14:27Z</time>
      </trkpt>
      <trkpt lat="52.161821024492383" lon="13.063603034242988">
        <ele>39.060000000000002</ele>
        <time>2019-06-23T13:14:48Z</time>
      </trkpt>
      <trkpt lat="52.161841979250312" lon="13.063603034242988">
        <ele>52.520000000000003</ele>
        <time>2019-06-23T14:14:58Z</time>
      </trkpt>
      <trkpt lat="52.161841979250312" lon="13.063580989837646">
        <ele>41.939999999999998</ele>
        <time>2019-06-23T14:15:00Z</time>
      </trkpt>
      <trkpt lat="52.161992015317082" lon="13.063087966293097">
        <ele>39.060000000000002</ele>
        <time>2019-06-23T14:15:02Z</time>
      </trkpt>
    </trkseg>
  </trk>

</gpx>